<?xml version="1.0" encoding="UTF-8" standalone="no" ?>
<gpx xmlns="http://www.topografix.com/GPX/1/1" xmlns:xsi="http://www.w3.org/2001/XMLSchema-instance" xsi:schemaLocation="http://www.topografix.com/GPX/1/1 http://www.topografix.com/GPX/1/1/gpx.xsd" version="1.1" creator="VisuGPX - https://www.visugpx.com">
  <metadata>
    <name>Ambrevetta - Tardevant + un petit Grand Crêt</name>
    <desc><![CDATA[Petit tricotage aux Confins]]></desc>
  </metadata>
  <trk>
    <name><![CDATA[Ambrevetta - Tardevant + un petit Grand Crêt_1]]></name>
    <trkseg>
      <trkpt lat="45.91979" lon="6.4788">
        <ele>1399.400024</ele>
        <time>2012-03-04T07:24:52Z</time>
      </trkpt>
      <trkpt lat="45.91988" lon="6.4788">
        <ele>1407.599975</ele>
        <time>2012-03-04T07:25:44Z</time>
      </trkpt>
      <trkpt lat="45.91988" lon="6.47879">
        <ele>1407.400024</ele>
        <time>2012-03-04T07:25:45Z</time>
      </trkpt>
      <trkpt lat="45.91988" lon="6.47903">
        <ele>1400.6</ele>
        <time>2012-03-04T07:26:20Z</time>
      </trkpt>
      <trkpt lat="45.9199" lon="6.47915">
        <ele>1402.9</ele>
        <time>2012-03-04T07:26:27Z</time>
      </trkpt>
      <trkpt lat="45.91993" lon="6.47925">
        <ele>1405.9</ele>
        <time>2012-03-04T07:26:33Z</time>
      </trkpt>
      <trkpt lat="45.91996" lon="6.47937">
        <ele>1408</ele>
        <time>2012-03-04T07:26:39Z</time>
      </trkpt>
      <trkpt lat="45.91998" lon="6.47947">
        <ele>1409.5</ele>
        <time>2012-03-04T07:26:44Z</time>
      </trkpt>
      <trkpt lat="45.92" lon="6.47959">
        <ele>1410.9</ele>
        <time>2012-03-04T07:26:50Z</time>
      </trkpt>
      <trkpt lat="45.92" lon="6.4796">
        <ele>1411.1</ele>
        <time>2012-03-04T07:26:51Z</time>
      </trkpt>
      <trkpt lat="45.92005" lon="6.47982">
        <ele>1412.8</ele>
        <time>2012-03-04T07:27:03Z</time>
      </trkpt>
      <trkpt lat="45.92006" lon="6.47993">
        <ele>1412.4</ele>
        <time>2012-03-04T07:27:10Z</time>
      </trkpt>
      <trkpt lat="45.92008" lon="6.48005">
        <ele>1411.6</ele>
        <time>2012-03-04T07:27:18Z</time>
      </trkpt>
      <trkpt lat="45.92011" lon="6.48017">
        <ele>1412.5</ele>
        <time>2012-03-04T07:27:27Z</time>
      </trkpt>
      <trkpt lat="45.92014" lon="6.48027">
        <ele>1411</ele>
        <time>2012-03-04T07:27:34Z</time>
      </trkpt>
      <trkpt lat="45.92017" lon="6.48038">
        <ele>1411.1</ele>
        <time>2012-03-04T07:27:40Z</time>
      </trkpt>
      <trkpt lat="45.9202" lon="6.48048">
        <ele>1412.9</ele>
        <time>2012-03-04T07:27:46Z</time>
      </trkpt>
      <trkpt lat="45.92025" lon="6.48058">
        <ele>1414</ele>
        <time>2012-03-04T07:27:52Z</time>
      </trkpt>
      <trkpt lat="45.92026" lon="6.4806">
        <ele>1414.3</ele>
        <time>2012-03-04T07:27:53Z</time>
      </trkpt>
      <trkpt lat="45.92033" lon="6.48078">
        <ele>1416.3</ele>
        <time>2012-03-04T07:28:04Z</time>
      </trkpt>
      <trkpt lat="45.92038" lon="6.48089">
        <ele>1417.3</ele>
        <time>2012-03-04T07:28:11Z</time>
      </trkpt>
      <trkpt lat="45.92043" lon="6.481">
        <ele>1416.4</ele>
        <time>2012-03-04T07:28:18Z</time>
      </trkpt>
      <trkpt lat="45.92048" lon="6.4811">
        <ele>1415</ele>
        <time>2012-03-04T07:28:26Z</time>
      </trkpt>
      <trkpt lat="45.92054" lon="6.48118">
        <ele>1414.3</ele>
        <time>2012-03-04T07:28:33Z</time>
      </trkpt>
      <trkpt lat="45.9206" lon="6.48127">
        <ele>1415.4</ele>
        <time>2012-03-04T07:28:42Z</time>
      </trkpt>
      <trkpt lat="45.92064" lon="6.48138">
        <ele>1418</ele>
        <time>2012-03-04T07:28:51Z</time>
      </trkpt>
      <trkpt lat="45.92069" lon="6.48149">
        <ele>1420.5</ele>
        <time>2012-03-04T07:28:59Z</time>
      </trkpt>
      <trkpt lat="45.92069" lon="6.4815">
        <ele>1420.8</ele>
        <time>2012-03-04T07:29:00Z</time>
      </trkpt>
      <trkpt lat="45.92073" lon="6.48173">
        <ele>1421.5</ele>
        <time>2012-03-04T07:29:16Z</time>
      </trkpt>
      <trkpt lat="45.92075" lon="6.48184">
        <ele>1421.6</ele>
        <time>2012-03-04T07:29:24Z</time>
      </trkpt>
      <trkpt lat="45.92078" lon="6.48195">
        <ele>1423.1</ele>
        <time>2012-03-04T07:29:31Z</time>
      </trkpt>
      <trkpt lat="45.92082" lon="6.48206">
        <ele>1425.1</ele>
        <time>2012-03-04T07:29:39Z</time>
      </trkpt>
      <trkpt lat="45.92085" lon="6.48217">
        <ele>1426</ele>
        <time>2012-03-04T07:29:47Z</time>
      </trkpt>
      <trkpt lat="45.92089" lon="6.48227">
        <ele>1428.9</ele>
        <time>2012-03-04T07:29:55Z</time>
      </trkpt>
      <trkpt lat="45.92094" lon="6.48237">
        <ele>1434.3</ele>
        <time>2012-03-04T07:30:03Z</time>
      </trkpt>
      <trkpt lat="45.92095" lon="6.48238">
        <ele>1434.5</ele>
        <time>2012-03-04T07:30:04Z</time>
      </trkpt>
      <trkpt lat="45.92102" lon="6.48258">
        <ele>1435.8</ele>
        <time>2012-03-04T07:30:21Z</time>
      </trkpt>
      <trkpt lat="45.92103" lon="6.48271">
        <ele>1434.6</ele>
        <time>2012-03-04T07:30:30Z</time>
      </trkpt>
      <trkpt lat="45.92105" lon="6.48283">
        <ele>1435</ele>
        <time>2012-03-04T07:30:39Z</time>
      </trkpt>
      <trkpt lat="45.92107" lon="6.48294">
        <ele>1437.1</ele>
        <time>2012-03-04T07:30:48Z</time>
      </trkpt>
      <trkpt lat="45.9211" lon="6.48306">
        <ele>1438.1</ele>
        <time>2012-03-04T07:30:57Z</time>
      </trkpt>
      <trkpt lat="45.92115" lon="6.48315">
        <ele>1437.6</ele>
        <time>2012-03-04T07:31:06Z</time>
      </trkpt>
      <trkpt lat="45.92116" lon="6.48316">
        <ele>1437.8</ele>
        <time>2012-03-04T07:31:07Z</time>
      </trkpt>
      <trkpt lat="45.92129" lon="6.4833">
        <ele>1440.8</ele>
        <time>2012-03-04T07:31:23Z</time>
      </trkpt>
      <trkpt lat="45.92136" lon="6.48335">
        <ele>1441.5</ele>
        <time>2012-03-04T07:31:29Z</time>
      </trkpt>
      <trkpt lat="45.92142" lon="6.48342">
        <ele>1442.6</ele>
        <time>2012-03-04T07:31:34Z</time>
      </trkpt>
      <trkpt lat="45.92149" lon="6.48348">
        <ele>1444</ele>
        <time>2012-03-04T07:31:39Z</time>
      </trkpt>
      <trkpt lat="45.92155" lon="6.48354">
        <ele>1444.5</ele>
        <time>2012-03-04T07:31:44Z</time>
      </trkpt>
      <trkpt lat="45.92162" lon="6.4836">
        <ele>1445.5</ele>
        <time>2012-03-04T07:31:50Z</time>
      </trkpt>
      <trkpt lat="45.92169" lon="6.48368">
        <ele>1446.6</ele>
        <time>2012-03-04T07:31:56Z</time>
      </trkpt>
      <trkpt lat="45.92174" lon="6.48375">
        <ele>1448</ele>
        <time>2012-03-04T07:32:02Z</time>
      </trkpt>
      <trkpt lat="45.92182" lon="6.48381">
        <ele>1448</ele>
        <time>2012-03-04T07:32:07Z</time>
      </trkpt>
      <trkpt lat="45.92183" lon="6.48382">
        <ele>1448</ele>
        <time>2012-03-04T07:32:08Z</time>
      </trkpt>
      <trkpt lat="45.92197" lon="6.48386">
        <ele>1445.6</ele>
        <time>2012-03-04T07:32:16Z</time>
      </trkpt>
      <trkpt lat="45.92206" lon="6.4839">
        <ele>1440.9</ele>
        <time>2012-03-04T07:32:23Z</time>
      </trkpt>
      <trkpt lat="45.92214" lon="6.48395">
        <ele>1438.9</ele>
        <time>2012-03-04T07:32:32Z</time>
      </trkpt>
      <trkpt lat="45.92222" lon="6.484">
        <ele>1440.3</ele>
        <time>2012-03-04T07:32:41Z</time>
      </trkpt>
      <trkpt lat="45.92227" lon="6.48411">
        <ele>1439.1</ele>
        <time>2012-03-04T07:32:49Z</time>
      </trkpt>
      <trkpt lat="45.92232" lon="6.4842">
        <ele>1439.1</ele>
        <time>2012-03-04T07:32:58Z</time>
      </trkpt>
      <trkpt lat="45.92236" lon="6.48432">
        <ele>1439.8</ele>
        <time>2012-03-04T07:33:04Z</time>
      </trkpt>
      <trkpt lat="45.92232" lon="6.48441">
        <ele>1439.9</ele>
        <time>2012-03-04T07:33:11Z</time>
      </trkpt>
      <trkpt lat="45.92231" lon="6.48442">
        <ele>1439.8</ele>
        <time>2012-03-04T07:33:12Z</time>
      </trkpt>
      <trkpt lat="45.92219" lon="6.48455">
        <ele>1441.6</ele>
        <time>2012-03-04T07:33:26Z</time>
      </trkpt>
      <trkpt lat="45.92211" lon="6.48462">
        <ele>1446</ele>
        <time>2012-03-04T07:33:34Z</time>
      </trkpt>
      <trkpt lat="45.92205" lon="6.4847">
        <ele>1450.5</ele>
        <time>2012-03-04T07:33:42Z</time>
      </trkpt>
      <trkpt lat="45.92199" lon="6.4848">
        <ele>1452.5</ele>
        <time>2012-03-04T07:33:50Z</time>
      </trkpt>
      <trkpt lat="45.92194" lon="6.48491">
        <ele>1455.3</ele>
        <time>2012-03-04T07:33:59Z</time>
      </trkpt>
      <trkpt lat="45.9219" lon="6.48501">
        <ele>1458.3</ele>
        <time>2012-03-04T07:34:08Z</time>
      </trkpt>
      <trkpt lat="45.92184" lon="6.48511">
        <ele>1458.5</ele>
        <time>2012-03-04T07:34:16Z</time>
      </trkpt>
      <trkpt lat="45.92184" lon="6.48512">
        <ele>1458.4</ele>
        <time>2012-03-04T07:34:17Z</time>
      </trkpt>
      <trkpt lat="45.92176" lon="6.48531">
        <ele>1462.4</ele>
        <time>2012-03-04T07:34:32Z</time>
      </trkpt>
      <trkpt lat="45.92172" lon="6.48541">
        <ele>1464.5</ele>
        <time>2012-03-04T07:34:39Z</time>
      </trkpt>
      <trkpt lat="45.92167" lon="6.48551">
        <ele>1464.6</ele>
        <time>2012-03-04T07:34:46Z</time>
      </trkpt>
      <trkpt lat="45.92163" lon="6.4856">
        <ele>1464.3</ele>
        <time>2012-03-04T07:34:54Z</time>
      </trkpt>
      <trkpt lat="45.92158" lon="6.48571">
        <ele>1463.6</ele>
        <time>2012-03-04T07:35:02Z</time>
      </trkpt>
      <trkpt lat="45.92153" lon="6.48581">
        <ele>1463.1</ele>
        <time>2012-03-04T07:35:10Z</time>
      </trkpt>
      <trkpt lat="45.92148" lon="6.48591">
        <ele>1464</ele>
        <time>2012-03-04T07:35:18Z</time>
      </trkpt>
      <trkpt lat="45.92148" lon="6.48592">
        <ele>1464</ele>
        <time>2012-03-04T07:35:19Z</time>
      </trkpt>
      <trkpt lat="45.92139" lon="6.48611">
        <ele>1462.6</ele>
        <time>2012-03-04T07:35:34Z</time>
      </trkpt>
      <trkpt lat="45.92135" lon="6.48621">
        <ele>1463.9</ele>
        <time>2012-03-04T07:35:42Z</time>
      </trkpt>
      <trkpt lat="45.9213" lon="6.48632">
        <ele>1463.9</ele>
        <time>2012-03-04T07:35:51Z</time>
      </trkpt>
      <trkpt lat="45.9213" lon="6.48643">
        <ele>1464.3</ele>
        <time>2012-03-04T07:36:00Z</time>
      </trkpt>
      <trkpt lat="45.92131" lon="6.48656">
        <ele>1464.3</ele>
        <time>2012-03-04T07:36:11Z</time>
      </trkpt>
      <trkpt lat="45.92134" lon="6.48667">
        <ele>1465.5</ele>
        <time>2012-03-04T07:36:19Z</time>
      </trkpt>
      <trkpt lat="45.92134" lon="6.48668">
        <ele>1465.8</ele>
        <time>2012-03-04T07:36:20Z</time>
      </trkpt>
      <trkpt lat="45.92141" lon="6.48688">
        <ele>1465</ele>
        <time>2012-03-04T07:36:35Z</time>
      </trkpt>
      <trkpt lat="45.92145" lon="6.48698">
        <ele>1464.8</ele>
        <time>2012-03-04T07:36:40Z</time>
      </trkpt>
      <trkpt lat="45.9215" lon="6.48707">
        <ele>1464</ele>
        <time>2012-03-04T07:36:44Z</time>
      </trkpt>
      <trkpt lat="45.92153" lon="6.48717">
        <ele>1462.1</ele>
        <time>2012-03-04T07:36:48Z</time>
      </trkpt>
      <trkpt lat="45.92156" lon="6.48727">
        <ele>1460.1</ele>
        <time>2012-03-04T07:36:52Z</time>
      </trkpt>
      <trkpt lat="45.92158" lon="6.48737">
        <ele>1458.8</ele>
        <time>2012-03-04T07:36:56Z</time>
      </trkpt>
      <trkpt lat="45.92161" lon="6.48748">
        <ele>1457.8</ele>
        <time>2012-03-04T07:37:00Z</time>
      </trkpt>
      <trkpt lat="45.92165" lon="6.48758">
        <ele>1458</ele>
        <time>2012-03-04T07:37:04Z</time>
      </trkpt>
      <trkpt lat="45.92168" lon="6.48769">
        <ele>1458.1</ele>
        <time>2012-03-04T07:37:09Z</time>
      </trkpt>
      <trkpt lat="45.92172" lon="6.48779">
        <ele>1457.1</ele>
        <time>2012-03-04T07:37:14Z</time>
      </trkpt>
      <trkpt lat="45.92175" lon="6.48789">
        <ele>1456.5</ele>
        <time>2012-03-04T07:37:19Z</time>
      </trkpt>
      <trkpt lat="45.92177" lon="6.488">
        <ele>1455.1</ele>
        <time>2012-03-04T07:37:23Z</time>
      </trkpt>
      <trkpt lat="45.92177" lon="6.48803">
        <ele>1454.6</ele>
        <time>2012-03-04T07:37:24Z</time>
      </trkpt>
      <trkpt lat="45.92173" lon="6.48823">
        <ele>1453.1</ele>
        <time>2012-03-04T07:37:31Z</time>
      </trkpt>
      <trkpt lat="45.92169" lon="6.48833">
        <ele>1454.1</ele>
        <time>2012-03-04T07:37:35Z</time>
      </trkpt>
      <trkpt lat="45.92168" lon="6.48845">
        <ele>1454.3</ele>
        <time>2012-03-04T07:37:40Z</time>
      </trkpt>
      <trkpt lat="45.9217" lon="6.48858">
        <ele>1452.5</ele>
        <time>2012-03-04T07:37:46Z</time>
      </trkpt>
      <trkpt lat="45.92172" lon="6.4887">
        <ele>1449.9</ele>
        <time>2012-03-04T07:37:53Z</time>
      </trkpt>
      <trkpt lat="45.92176" lon="6.48882">
        <ele>1447.1</ele>
        <time>2012-03-04T07:38:00Z</time>
      </trkpt>
      <trkpt lat="45.9218" lon="6.48892">
        <ele>1444.9</ele>
        <time>2012-03-04T07:38:07Z</time>
      </trkpt>
      <trkpt lat="45.92185" lon="6.48901">
        <ele>1445.6</ele>
        <time>2012-03-04T07:38:12Z</time>
      </trkpt>
      <trkpt lat="45.9219" lon="6.4891">
        <ele>1446.8</ele>
        <time>2012-03-04T07:38:18Z</time>
      </trkpt>
      <trkpt lat="45.92195" lon="6.48919">
        <ele>1447.9</ele>
        <time>2012-03-04T07:38:24Z</time>
      </trkpt>
      <trkpt lat="45.92196" lon="6.48921">
        <ele>1448</ele>
        <time>2012-03-04T07:38:25Z</time>
      </trkpt>
      <trkpt lat="45.92205" lon="6.48937">
        <ele>1451.6</ele>
        <time>2012-03-04T07:38:36Z</time>
      </trkpt>
      <trkpt lat="45.92212" lon="6.48945">
        <ele>1452.3</ele>
        <time>2012-03-04T07:38:42Z</time>
      </trkpt>
      <trkpt lat="45.92217" lon="6.48953">
        <ele>1453.1</ele>
        <time>2012-03-04T07:38:48Z</time>
      </trkpt>
      <trkpt lat="45.92223" lon="6.48962">
        <ele>1454</ele>
        <time>2012-03-04T07:38:54Z</time>
      </trkpt>
      <trkpt lat="45.92229" lon="6.48972">
        <ele>1453.4</ele>
        <time>2012-03-04T07:39:01Z</time>
      </trkpt>
      <trkpt lat="45.92233" lon="6.48982">
        <ele>1454.1</ele>
        <time>2012-03-04T07:39:08Z</time>
      </trkpt>
      <trkpt lat="45.92239" lon="6.48991">
        <ele>1454.1</ele>
        <time>2012-03-04T07:39:15Z</time>
      </trkpt>
      <trkpt lat="45.92245" lon="6.49">
        <ele>1454.5</ele>
        <time>2012-03-04T07:39:22Z</time>
      </trkpt>
      <trkpt lat="45.92251" lon="6.49009">
        <ele>1456.1</ele>
        <time>2012-03-04T07:39:29Z</time>
      </trkpt>
      <trkpt lat="45.92252" lon="6.49011">
        <ele>1456.5</ele>
        <time>2012-03-04T07:39:30Z</time>
      </trkpt>
      <trkpt lat="45.92264" lon="6.49027">
        <ele>1460</ele>
        <time>2012-03-04T07:39:42Z</time>
      </trkpt>
      <trkpt lat="45.9227" lon="6.49035">
        <ele>1461.9</ele>
        <time>2012-03-04T07:39:49Z</time>
      </trkpt>
      <trkpt lat="45.92276" lon="6.49042">
        <ele>1462</ele>
        <time>2012-03-04T07:39:56Z</time>
      </trkpt>
      <trkpt lat="45.92283" lon="6.49051">
        <ele>1462.8</ele>
        <time>2012-03-04T07:40:04Z</time>
      </trkpt>
      <trkpt lat="45.92289" lon="6.49059">
        <ele>1466.8</ele>
        <time>2012-03-04T07:40:11Z</time>
      </trkpt>
      <trkpt lat="45.92295" lon="6.49067">
        <ele>1469.8</ele>
        <time>2012-03-04T07:40:19Z</time>
      </trkpt>
      <trkpt lat="45.92303" lon="6.49072">
        <ele>1471.8</ele>
        <time>2012-03-04T07:40:27Z</time>
      </trkpt>
      <trkpt lat="45.92312" lon="6.49075">
        <ele>1470.8</ele>
        <time>2012-03-04T07:40:35Z</time>
      </trkpt>
      <trkpt lat="45.92312" lon="6.49076">
        <ele>1470.8</ele>
        <time>2012-03-04T07:40:36Z</time>
      </trkpt>
      <trkpt lat="45.92328" lon="6.49082">
        <ele>1472.1</ele>
        <time>2012-03-04T07:40:52Z</time>
      </trkpt>
      <trkpt lat="45.92335" lon="6.49089">
        <ele>1471.9</ele>
        <time>2012-03-04T07:41:00Z</time>
      </trkpt>
      <trkpt lat="45.92342" lon="6.49096">
        <ele>1472.5</ele>
        <time>2012-03-04T07:41:08Z</time>
      </trkpt>
      <trkpt lat="45.92349" lon="6.49104">
        <ele>1473</ele>
        <time>2012-03-04T07:41:15Z</time>
      </trkpt>
      <trkpt lat="45.92355" lon="6.49112">
        <ele>1473</ele>
        <time>2012-03-04T07:41:22Z</time>
      </trkpt>
      <trkpt lat="45.92362" lon="6.49118">
        <ele>1473.8</ele>
        <time>2012-03-04T07:41:29Z</time>
      </trkpt>
      <trkpt lat="45.92369" lon="6.49122">
        <ele>1476</ele>
        <time>2012-03-04T07:41:36Z</time>
      </trkpt>
      <trkpt lat="45.9237" lon="6.49123">
        <ele>1476.3</ele>
        <time>2012-03-04T07:41:37Z</time>
      </trkpt>
      <trkpt lat="45.92386" lon="6.49126">
        <ele>1479</ele>
        <time>2012-03-04T07:41:49Z</time>
      </trkpt>
      <trkpt lat="45.92394" lon="6.49125">
        <ele>1481.5</ele>
        <time>2012-03-04T07:41:56Z</time>
      </trkpt>
      <trkpt lat="45.92403" lon="6.49123">
        <ele>1483.6</ele>
        <time>2012-03-04T07:42:04Z</time>
      </trkpt>
      <trkpt lat="45.92411" lon="6.49124">
        <ele>1484.9</ele>
        <time>2012-03-04T07:42:12Z</time>
      </trkpt>
      <trkpt lat="45.9242" lon="6.49122">
        <ele>1487.1</ele>
        <time>2012-03-04T07:42:21Z</time>
      </trkpt>
      <trkpt lat="45.92428" lon="6.49121">
        <ele>1488</ele>
        <time>2012-03-04T07:42:28Z</time>
      </trkpt>
      <trkpt lat="45.92436" lon="6.49123">
        <ele>1488.3</ele>
        <time>2012-03-04T07:42:37Z</time>
      </trkpt>
      <trkpt lat="45.92437" lon="6.49124">
        <ele>1488.5</ele>
        <time>2012-03-04T07:42:38Z</time>
      </trkpt>
      <trkpt lat="45.92448" lon="6.49139">
        <ele>1490.4</ele>
        <time>2012-03-04T07:42:55Z</time>
      </trkpt>
      <trkpt lat="45.92454" lon="6.49147">
        <ele>1492.1</ele>
        <time>2012-03-04T07:43:02Z</time>
      </trkpt>
      <trkpt lat="45.92461" lon="6.49154">
        <ele>1494.8</ele>
        <time>2012-03-04T07:43:09Z</time>
      </trkpt>
      <trkpt lat="45.92468" lon="6.49161">
        <ele>1497.5</ele>
        <time>2012-03-04T07:43:15Z</time>
      </trkpt>
      <trkpt lat="45.92473" lon="6.49169">
        <ele>1497.9</ele>
        <time>2012-03-04T07:43:20Z</time>
      </trkpt>
      <trkpt lat="45.92479" lon="6.49178">
        <ele>1497.6</ele>
        <time>2012-03-04T07:43:25Z</time>
      </trkpt>
      <trkpt lat="45.92484" lon="6.49186">
        <ele>1497</ele>
        <time>2012-03-04T07:43:30Z</time>
      </trkpt>
      <trkpt lat="45.92491" lon="6.49194">
        <ele>1496.1</ele>
        <time>2012-03-04T07:43:35Z</time>
      </trkpt>
      <trkpt lat="45.92498" lon="6.49202">
        <ele>1494.5</ele>
        <time>2012-03-04T07:43:41Z</time>
      </trkpt>
      <trkpt lat="45.92499" lon="6.49202">
        <ele>1494.1</ele>
        <time>2012-03-04T07:43:42Z</time>
      </trkpt>
      <trkpt lat="45.92514" lon="6.49211">
        <ele>1494</ele>
        <time>2012-03-04T07:43:54Z</time>
      </trkpt>
      <trkpt lat="45.92522" lon="6.49216">
        <ele>1494</ele>
        <time>2012-03-04T07:44:00Z</time>
      </trkpt>
      <trkpt lat="45.92529" lon="6.4922">
        <ele>1493.4</ele>
        <time>2012-03-04T07:44:05Z</time>
      </trkpt>
      <trkpt lat="45.92536" lon="6.49224">
        <ele>1492.9</ele>
        <time>2012-03-04T07:44:10Z</time>
      </trkpt>
      <trkpt lat="45.92543" lon="6.49226">
        <ele>1492.5</ele>
        <time>2012-03-04T07:44:14Z</time>
      </trkpt>
      <trkpt lat="45.92552" lon="6.49227">
        <ele>1491.9</ele>
        <time>2012-03-04T07:44:20Z</time>
      </trkpt>
      <trkpt lat="45.9256" lon="6.49229">
        <ele>1491</ele>
        <time>2012-03-04T07:44:27Z</time>
      </trkpt>
      <trkpt lat="45.92568" lon="6.49229">
        <ele>1489.3</ele>
        <time>2012-03-04T07:44:36Z</time>
      </trkpt>
      <trkpt lat="45.92576" lon="6.49233">
        <ele>1490</ele>
        <time>2012-03-04T07:44:42Z</time>
      </trkpt>
      <trkpt lat="45.92578" lon="6.49233">
        <ele>1490.1</ele>
        <time>2012-03-04T07:44:43Z</time>
      </trkpt>
      <trkpt lat="45.92592" lon="6.49237">
        <ele>1489</ele>
        <time>2012-03-04T07:44:54Z</time>
      </trkpt>
      <trkpt lat="45.92601" lon="6.4924">
        <ele>1488.3</ele>
        <time>2012-03-04T07:45:00Z</time>
      </trkpt>
      <trkpt lat="45.92608" lon="6.49243">
        <ele>1487.8</ele>
        <time>2012-03-04T07:45:04Z</time>
      </trkpt>
      <trkpt lat="45.92615" lon="6.49248">
        <ele>1488.1</ele>
        <time>2012-03-04T07:45:09Z</time>
      </trkpt>
      <trkpt lat="45.92621" lon="6.49254">
        <ele>1488.5</ele>
        <time>2012-03-04T07:45:15Z</time>
      </trkpt>
      <trkpt lat="45.92628" lon="6.49262">
        <ele>1487.5</ele>
        <time>2012-03-04T07:45:22Z</time>
      </trkpt>
      <trkpt lat="45.92633" lon="6.4927">
        <ele>1486</ele>
        <time>2012-03-04T07:45:30Z</time>
      </trkpt>
      <trkpt lat="45.92641" lon="6.49275">
        <ele>1487</ele>
        <time>2012-03-04T07:45:37Z</time>
      </trkpt>
      <trkpt lat="45.92649" lon="6.49279">
        <ele>1488.9</ele>
        <time>2012-03-04T07:45:43Z</time>
      </trkpt>
      <trkpt lat="45.92651" lon="6.49279">
        <ele>1489.3</ele>
        <time>2012-03-04T07:45:44Z</time>
      </trkpt>
      <trkpt lat="45.92664" lon="6.4929">
        <ele>1495</ele>
        <time>2012-03-04T07:45:59Z</time>
      </trkpt>
      <trkpt lat="45.92672" lon="6.49294">
        <ele>1493.6</ele>
        <time>2012-03-04T07:46:05Z</time>
      </trkpt>
      <trkpt lat="45.92679" lon="6.49301">
        <ele>1492.8</ele>
        <time>2012-03-04T07:46:11Z</time>
      </trkpt>
      <trkpt lat="45.92685" lon="6.4931">
        <ele>1492.3</ele>
        <time>2012-03-04T07:46:19Z</time>
      </trkpt>
      <trkpt lat="45.9269" lon="6.4932">
        <ele>1493.4</ele>
        <time>2012-03-04T07:46:27Z</time>
      </trkpt>
      <trkpt lat="45.92695" lon="6.4933">
        <ele>1493.6</ele>
        <time>2012-03-04T07:46:35Z</time>
      </trkpt>
      <trkpt lat="45.92698" lon="6.49341">
        <ele>1492.9</ele>
        <time>2012-03-04T07:46:44Z</time>
      </trkpt>
      <trkpt lat="45.92699" lon="6.49343">
        <ele>1492.8</ele>
        <time>2012-03-04T07:46:45Z</time>
      </trkpt>
      <trkpt lat="45.92699" lon="6.49367">
        <ele>1498</ele>
        <time>2012-03-04T07:47:02Z</time>
      </trkpt>
      <trkpt lat="45.92705" lon="6.49375">
        <ele>1497.9</ele>
        <time>2012-03-04T07:47:12Z</time>
      </trkpt>
      <trkpt lat="45.92707" lon="6.49387">
        <ele>1496.5</ele>
        <time>2012-03-04T07:47:21Z</time>
      </trkpt>
      <trkpt lat="45.92702" lon="6.49398">
        <ele>1496.5</ele>
        <time>2012-03-04T07:47:41Z</time>
      </trkpt>
      <trkpt lat="45.92697" lon="6.49408">
        <ele>1501.5</ele>
        <time>2012-03-04T07:49:53Z</time>
      </trkpt>
      <trkpt lat="45.92696" lon="6.49409">
        <ele>1502.1</ele>
        <time>2012-03-04T07:49:54Z</time>
      </trkpt>
      <trkpt lat="45.9269" lon="6.49429">
        <ele>1508.6</ele>
        <time>2012-03-04T07:50:10Z</time>
      </trkpt>
      <trkpt lat="45.92686" lon="6.49437">
        <ele>1507.3</ele>
        <time>2012-03-04T07:50:15Z</time>
      </trkpt>
      <trkpt lat="45.9268" lon="6.49445">
        <ele>1507</ele>
        <time>2012-03-04T07:50:19Z</time>
      </trkpt>
      <trkpt lat="45.92673" lon="6.49452">
        <ele>1504</ele>
        <time>2012-03-04T07:50:26Z</time>
      </trkpt>
      <trkpt lat="45.92667" lon="6.49459">
        <ele>1505.5</ele>
        <time>2012-03-04T07:50:34Z</time>
      </trkpt>
      <trkpt lat="45.92662" lon="6.49469">
        <ele>1511</ele>
        <time>2012-03-04T07:50:43Z</time>
      </trkpt>
      <trkpt lat="45.92658" lon="6.49478">
        <ele>1512.3</ele>
        <time>2012-03-04T07:50:51Z</time>
      </trkpt>
      <trkpt lat="45.92652" lon="6.49487">
        <ele>1510.9</ele>
        <time>2012-03-04T07:50:59Z</time>
      </trkpt>
      <trkpt lat="45.92651" lon="6.49488">
        <ele>1510.5</ele>
        <time>2012-03-04T07:51:00Z</time>
      </trkpt>
      <trkpt lat="45.92648" lon="6.49511">
        <ele>1511</ele>
        <time>2012-03-04T07:51:19Z</time>
      </trkpt>
      <trkpt lat="45.92644" lon="6.49521">
        <ele>1510.8</ele>
        <time>2012-03-04T07:51:27Z</time>
      </trkpt>
      <trkpt lat="45.9264" lon="6.49532">
        <ele>1511.5</ele>
        <time>2012-03-04T07:51:35Z</time>
      </trkpt>
      <trkpt lat="45.92638" lon="6.49543">
        <ele>1513.5</ele>
        <time>2012-03-04T07:51:44Z</time>
      </trkpt>
      <trkpt lat="45.92638" lon="6.49556">
        <ele>1513.8</ele>
        <time>2012-03-04T07:51:52Z</time>
      </trkpt>
      <trkpt lat="45.92638" lon="6.49569">
        <ele>1512.6</ele>
        <time>2012-03-04T07:52:00Z</time>
      </trkpt>
      <trkpt lat="45.92638" lon="6.4957">
        <ele>1512.4</ele>
        <time>2012-03-04T07:52:01Z</time>
      </trkpt>
      <trkpt lat="45.9264" lon="6.49592">
        <ele>1510.6</ele>
        <time>2012-03-04T07:52:14Z</time>
      </trkpt>
      <trkpt lat="45.9264" lon="6.49603">
        <ele>1510.4</ele>
        <time>2012-03-04T07:52:21Z</time>
      </trkpt>
      <trkpt lat="45.92639" lon="6.49615">
        <ele>1510.5</ele>
        <time>2012-03-04T07:52:29Z</time>
      </trkpt>
      <trkpt lat="45.92635" lon="6.49626">
        <ele>1511.1</ele>
        <time>2012-03-04T07:52:36Z</time>
      </trkpt>
      <trkpt lat="45.92635" lon="6.49639">
        <ele>1511.6</ele>
        <time>2012-03-04T07:52:45Z</time>
      </trkpt>
      <trkpt lat="45.92634" lon="6.49652">
        <ele>1513.5</ele>
        <time>2012-03-04T07:52:54Z</time>
      </trkpt>
      <trkpt lat="45.92634" lon="6.49663">
        <ele>1515.1</ele>
        <time>2012-03-04T07:53:01Z</time>
      </trkpt>
      <trkpt lat="45.92634" lon="6.49665">
        <ele>1515.5</ele>
        <time>2012-03-04T07:53:02Z</time>
      </trkpt>
      <trkpt lat="45.92635" lon="6.49687">
        <ele>1513.8</ele>
        <time>2012-03-04T07:53:14Z</time>
      </trkpt>
      <trkpt lat="45.92637" lon="6.49699">
        <ele>1512</ele>
        <time>2012-03-04T07:53:21Z</time>
      </trkpt>
      <trkpt lat="45.92638" lon="6.49711">
        <ele>1512.9</ele>
        <time>2012-03-04T07:53:28Z</time>
      </trkpt>
      <trkpt lat="45.92641" lon="6.49722">
        <ele>1513.1</ele>
        <time>2012-03-04T07:53:35Z</time>
      </trkpt>
      <trkpt lat="45.92645" lon="6.49732">
        <ele>1514.3</ele>
        <time>2012-03-04T07:53:42Z</time>
      </trkpt>
      <trkpt lat="45.92649" lon="6.49743">
        <ele>1515.5</ele>
        <time>2012-03-04T07:53:50Z</time>
      </trkpt>
      <trkpt lat="45.92653" lon="6.49754">
        <ele>1516.5</ele>
        <time>2012-03-04T07:53:58Z</time>
      </trkpt>
      <trkpt lat="45.92655" lon="6.49765">
        <ele>1517.5</ele>
        <time>2012-03-04T07:54:08Z</time>
      </trkpt>
      <trkpt lat="45.92655" lon="6.49767">
        <ele>1517.8</ele>
        <time>2012-03-04T07:54:09Z</time>
      </trkpt>
      <trkpt lat="45.9266" lon="6.49788">
        <ele>1520.4</ele>
        <time>2012-03-04T07:54:28Z</time>
      </trkpt>
      <trkpt lat="45.92662" lon="6.498">
        <ele>1522.6</ele>
        <time>2012-03-04T07:54:38Z</time>
      </trkpt>
      <trkpt lat="45.92665" lon="6.49812">
        <ele>1526</ele>
        <time>2012-03-04T07:54:48Z</time>
      </trkpt>
      <trkpt lat="45.92668" lon="6.49824">
        <ele>1527</ele>
        <time>2012-03-04T07:54:58Z</time>
      </trkpt>
      <trkpt lat="45.92672" lon="6.49835">
        <ele>1531.1</ele>
        <time>2012-03-04T07:55:07Z</time>
      </trkpt>
      <trkpt lat="45.92672" lon="6.49847">
        <ele>1531.9</ele>
        <time>2012-03-04T07:55:15Z</time>
      </trkpt>
      <trkpt lat="45.92672" lon="6.49848">
        <ele>1531.9</ele>
        <time>2012-03-04T07:55:16Z</time>
      </trkpt>
      <trkpt lat="45.92673" lon="6.49871">
        <ele>1535.1</ele>
        <time>2012-03-04T07:55:34Z</time>
      </trkpt>
      <trkpt lat="45.92674" lon="6.49884">
        <ele>1535</ele>
        <time>2012-03-04T07:55:43Z</time>
      </trkpt>
      <trkpt lat="45.92673" lon="6.49897">
        <ele>1535.1</ele>
        <time>2012-03-04T07:55:52Z</time>
      </trkpt>
      <trkpt lat="45.92675" lon="6.49909">
        <ele>1537.5</ele>
        <time>2012-03-04T07:56:02Z</time>
      </trkpt>
      <trkpt lat="45.92677" lon="6.49921">
        <ele>1538.9</ele>
        <time>2012-03-04T07:56:11Z</time>
      </trkpt>
      <trkpt lat="45.92677" lon="6.49933">
        <ele>1538</ele>
        <time>2012-03-04T07:56:20Z</time>
      </trkpt>
      <trkpt lat="45.92677" lon="6.49935">
        <ele>1538</ele>
        <time>2012-03-04T07:56:21Z</time>
      </trkpt>
      <trkpt lat="45.92677" lon="6.49959">
        <ele>1540.5</ele>
        <time>2012-03-04T07:56:42Z</time>
      </trkpt>
      <trkpt lat="45.9268" lon="6.4997">
        <ele>1542.6</ele>
        <time>2012-03-04T07:56:52Z</time>
      </trkpt>
      <trkpt lat="45.92678" lon="6.49982">
        <ele>1544</ele>
        <time>2012-03-04T07:57:03Z</time>
      </trkpt>
      <trkpt lat="45.9268" lon="6.49994">
        <ele>1544.9</ele>
        <time>2012-03-04T07:57:13Z</time>
      </trkpt>
      <trkpt lat="45.92679" lon="6.50007">
        <ele>1549</ele>
        <time>2012-03-04T07:57:22Z</time>
      </trkpt>
      <trkpt lat="45.92679" lon="6.50008">
        <ele>1549.5</ele>
        <time>2012-03-04T07:57:23Z</time>
      </trkpt>
      <trkpt lat="45.92686" lon="6.50028">
        <ele>1558.8</ele>
        <time>2012-03-04T07:57:40Z</time>
      </trkpt>
      <trkpt lat="45.9269" lon="6.50038">
        <ele>1560.9</ele>
        <time>2012-03-04T07:57:47Z</time>
      </trkpt>
      <trkpt lat="45.92694" lon="6.50049">
        <ele>1560.1</ele>
        <time>2012-03-04T07:57:55Z</time>
      </trkpt>
      <trkpt lat="45.92696" lon="6.50061">
        <ele>1560.5</ele>
        <time>2012-03-04T07:58:04Z</time>
      </trkpt>
      <trkpt lat="45.92697" lon="6.50074">
        <ele>1563.5</ele>
        <time>2012-03-04T07:58:17Z</time>
      </trkpt>
      <trkpt lat="45.9269" lon="6.5008">
        <ele>1561.5</ele>
        <time>2012-03-04T07:58:27Z</time>
      </trkpt>
      <trkpt lat="45.92689" lon="6.50081">
        <ele>1561.6</ele>
        <time>2012-03-04T07:58:28Z</time>
      </trkpt>
      <trkpt lat="45.92696" lon="6.50102">
        <ele>1566.9</ele>
        <time>2012-03-04T07:58:45Z</time>
      </trkpt>
      <trkpt lat="45.92704" lon="6.50105">
        <ele>1568.1</ele>
        <time>2012-03-04T07:58:53Z</time>
      </trkpt>
      <trkpt lat="45.92712" lon="6.50106">
        <ele>1570.3</ele>
        <time>2012-03-04T07:59:02Z</time>
      </trkpt>
      <trkpt lat="45.9272" lon="6.5011">
        <ele>1573.3</ele>
        <time>2012-03-04T07:59:10Z</time>
      </trkpt>
      <trkpt lat="45.92725" lon="6.5012">
        <ele>1574.5</ele>
        <time>2012-03-04T07:59:20Z</time>
      </trkpt>
      <trkpt lat="45.9273" lon="6.5013">
        <ele>1576</ele>
        <time>2012-03-04T07:59:29Z</time>
      </trkpt>
      <trkpt lat="45.92731" lon="6.50132">
        <ele>1576.1</ele>
        <time>2012-03-04T07:59:30Z</time>
      </trkpt>
      <trkpt lat="45.92741" lon="6.5015">
        <ele>1581.3</ele>
        <time>2012-03-04T07:59:47Z</time>
      </trkpt>
      <trkpt lat="45.92747" lon="6.50157">
        <ele>1584</ele>
        <time>2012-03-04T07:59:55Z</time>
      </trkpt>
      <trkpt lat="45.92753" lon="6.50166">
        <ele>1585.6</ele>
        <time>2012-03-04T08:00:03Z</time>
      </trkpt>
      <trkpt lat="45.92759" lon="6.50176">
        <ele>1586.3</ele>
        <time>2012-03-04T08:00:11Z</time>
      </trkpt>
      <trkpt lat="45.92764" lon="6.50186">
        <ele>1587.9</ele>
        <time>2012-03-04T08:00:19Z</time>
      </trkpt>
      <trkpt lat="45.9277" lon="6.50195">
        <ele>1590</ele>
        <time>2012-03-04T08:00:28Z</time>
      </trkpt>
      <trkpt lat="45.92775" lon="6.50204">
        <ele>1592.6</ele>
        <time>2012-03-04T08:00:37Z</time>
      </trkpt>
      <trkpt lat="45.92775" lon="6.50205">
        <ele>1593</ele>
        <time>2012-03-04T08:00:38Z</time>
      </trkpt>
      <trkpt lat="45.92786" lon="6.50223">
        <ele>1599.1</ele>
        <time>2012-03-04T08:00:57Z</time>
      </trkpt>
      <trkpt lat="45.92791" lon="6.50233">
        <ele>1600</ele>
        <time>2012-03-04T08:01:06Z</time>
      </trkpt>
      <trkpt lat="45.92796" lon="6.50242">
        <ele>1600.3</ele>
        <time>2012-03-04T08:01:14Z</time>
      </trkpt>
      <trkpt lat="45.92801" lon="6.50253">
        <ele>1602.5</ele>
        <time>2012-03-04T08:01:23Z</time>
      </trkpt>
      <trkpt lat="45.92805" lon="6.50263">
        <ele>1604.3</ele>
        <time>2012-03-04T08:01:32Z</time>
      </trkpt>
      <trkpt lat="45.92811" lon="6.50273">
        <ele>1607</ele>
        <time>2012-03-04T08:01:41Z</time>
      </trkpt>
      <trkpt lat="45.92811" lon="6.50274">
        <ele>1607.4</ele>
        <time>2012-03-04T08:01:42Z</time>
      </trkpt>
      <trkpt lat="45.92822" lon="6.50291">
        <ele>1611.3</ele>
        <time>2012-03-04T08:02:00Z</time>
      </trkpt>
      <trkpt lat="45.92822" lon="6.50303">
        <ele>1611.4</ele>
        <time>2012-03-04T08:02:22Z</time>
      </trkpt>
      <trkpt lat="45.92824" lon="6.50315">
        <ele>1613</ele>
        <time>2012-03-04T08:02:38Z</time>
      </trkpt>
      <trkpt lat="45.92817" lon="6.50322">
        <ele>1618.8</ele>
        <time>2012-03-04T08:02:54Z</time>
      </trkpt>
      <trkpt lat="45.92817" lon="6.50323">
        <ele>1619</ele>
        <time>2012-03-04T08:02:55Z</time>
      </trkpt>
      <trkpt lat="45.92827" lon="6.50342">
        <ele>1626.6</ele>
        <time>2012-03-04T08:03:19Z</time>
      </trkpt>
      <trkpt lat="45.92833" lon="6.5035">
        <ele>1629.6</ele>
        <time>2012-03-04T08:03:26Z</time>
      </trkpt>
      <trkpt lat="45.92834" lon="6.50362">
        <ele>1632</ele>
        <time>2012-03-04T08:03:40Z</time>
      </trkpt>
      <trkpt lat="45.92842" lon="6.50367">
        <ele>1633.8</ele>
        <time>2012-03-04T08:03:54Z</time>
      </trkpt>
      <trkpt lat="45.92849" lon="6.50374">
        <ele>1633.5</ele>
        <time>2012-03-04T08:04:03Z</time>
      </trkpt>
      <trkpt lat="45.92849" lon="6.50375">
        <ele>1633.5</ele>
        <time>2012-03-04T08:04:04Z</time>
      </trkpt>
      <trkpt lat="45.92843" lon="6.50397">
        <ele>1639.1</ele>
        <time>2012-03-04T08:04:40Z</time>
      </trkpt>
      <trkpt lat="45.92848" lon="6.50407">
        <ele>1644.6</ele>
        <time>2012-03-04T08:04:56Z</time>
      </trkpt>
      <trkpt lat="45.92852" lon="6.50418">
        <ele>1646.6</ele>
        <time>2012-03-04T08:05:06Z</time>
      </trkpt>
      <trkpt lat="45.92852" lon="6.5042">
        <ele>1646.5</ele>
        <time>2012-03-04T08:05:07Z</time>
      </trkpt>
      <trkpt lat="45.92859" lon="6.50439">
        <ele>1646.5</ele>
        <time>2012-03-04T08:05:40Z</time>
      </trkpt>
      <trkpt lat="45.92862" lon="6.50451">
        <ele>1648.6</ele>
        <time>2012-03-04T08:05:53Z</time>
      </trkpt>
      <trkpt lat="45.9287" lon="6.50456">
        <ele>1651.1</ele>
        <time>2012-03-04T08:06:06Z</time>
      </trkpt>
      <trkpt lat="45.92871" lon="6.50469">
        <ele>1657.3</ele>
        <time>2012-03-04T08:06:33Z</time>
      </trkpt>
      <trkpt lat="45.9287" lon="6.50469">
        <ele>1657.4</ele>
        <time>2012-03-04T08:06:34Z</time>
      </trkpt>
      <trkpt lat="45.92885" lon="6.50481">
        <ele>1664.4</ele>
        <time>2012-03-04T08:07:02Z</time>
      </trkpt>
      <trkpt lat="45.92891" lon="6.5049">
        <ele>1667.9</ele>
        <time>2012-03-04T08:07:11Z</time>
      </trkpt>
      <trkpt lat="45.92898" lon="6.50498">
        <ele>1671</ele>
        <time>2012-03-04T08:07:20Z</time>
      </trkpt>
      <trkpt lat="45.92904" lon="6.50508">
        <ele>1670.1</ele>
        <time>2012-03-04T08:07:50Z</time>
      </trkpt>
      <trkpt lat="45.92904" lon="6.50508">
        <ele>1670</ele>
        <time>2012-03-04T08:07:51Z</time>
      </trkpt>
      <trkpt lat="45.92909" lon="6.5052">
        <ele>1669.1</ele>
        <time>2012-03-04T08:09:39Z</time>
      </trkpt>
      <trkpt lat="45.92922" lon="6.50533">
        <ele>1670</ele>
        <time>2012-03-04T08:09:57Z</time>
      </trkpt>
      <trkpt lat="45.92929" lon="6.50541">
        <ele>1669.1</ele>
        <time>2012-03-04T08:10:08Z</time>
      </trkpt>
      <trkpt lat="45.92933" lon="6.50552">
        <ele>1669.5</ele>
        <time>2012-03-04T08:10:17Z</time>
      </trkpt>
      <trkpt lat="45.92936" lon="6.50564">
        <ele>1672.4</ele>
        <time>2012-03-04T08:10:28Z</time>
      </trkpt>
      <trkpt lat="45.92936" lon="6.50576">
        <ele>1677.1</ele>
        <time>2012-03-04T08:10:40Z</time>
      </trkpt>
      <trkpt lat="45.92936" lon="6.50577">
        <ele>1677.6</ele>
        <time>2012-03-04T08:10:41Z</time>
      </trkpt>
      <trkpt lat="45.92937" lon="6.506">
        <ele>1683.5</ele>
        <time>2012-03-04T08:11:01Z</time>
      </trkpt>
      <trkpt lat="45.92941" lon="6.50611">
        <ele>1683.4</ele>
        <time>2012-03-04T08:11:10Z</time>
      </trkpt>
      <trkpt lat="45.92945" lon="6.50621">
        <ele>1684</ele>
        <time>2012-03-04T08:11:18Z</time>
      </trkpt>
      <trkpt lat="45.92951" lon="6.50629">
        <ele>1686.5</ele>
        <time>2012-03-04T08:11:25Z</time>
      </trkpt>
      <trkpt lat="45.92957" lon="6.50638">
        <ele>1689.1</ele>
        <time>2012-03-04T08:11:32Z</time>
      </trkpt>
      <trkpt lat="45.92963" lon="6.50647">
        <ele>1690</ele>
        <time>2012-03-04T08:11:40Z</time>
      </trkpt>
      <trkpt lat="45.92966" lon="6.50658">
        <ele>1688.1</ele>
        <time>2012-03-04T08:11:49Z</time>
      </trkpt>
      <trkpt lat="45.92967" lon="6.5066">
        <ele>1687.9</ele>
        <time>2012-03-04T08:11:50Z</time>
      </trkpt>
      <trkpt lat="45.92974" lon="6.5068">
        <ele>1687.3</ele>
        <time>2012-03-04T08:12:06Z</time>
      </trkpt>
      <trkpt lat="45.92979" lon="6.5069">
        <ele>1689.5</ele>
        <time>2012-03-04T08:12:15Z</time>
      </trkpt>
      <trkpt lat="45.92984" lon="6.50701">
        <ele>1692.5</ele>
        <time>2012-03-04T08:12:24Z</time>
      </trkpt>
      <trkpt lat="45.92988" lon="6.50712">
        <ele>1694.5</ele>
        <time>2012-03-04T08:12:35Z</time>
      </trkpt>
      <trkpt lat="45.92992" lon="6.50723">
        <ele>1696.6</ele>
        <time>2012-03-04T08:12:47Z</time>
      </trkpt>
      <trkpt lat="45.92983" lon="6.50725">
        <ele>1697</ele>
        <time>2012-03-04T08:13:02Z</time>
      </trkpt>
      <trkpt lat="45.92983" lon="6.50724">
        <ele>1697</ele>
        <time>2012-03-04T08:13:03Z</time>
      </trkpt>
      <trkpt lat="45.92972" lon="6.50733">
        <ele>1707.9</ele>
        <time>2012-03-04T08:13:42Z</time>
      </trkpt>
      <trkpt lat="45.92976" lon="6.50743">
        <ele>1711.8</ele>
        <time>2012-03-04T08:13:53Z</time>
      </trkpt>
      <trkpt lat="45.9298" lon="6.50754">
        <ele>1715.8</ele>
        <time>2012-03-04T08:14:03Z</time>
      </trkpt>
      <trkpt lat="45.92981" lon="6.50755">
        <ele>1716</ele>
        <time>2012-03-04T08:14:04Z</time>
      </trkpt>
      <trkpt lat="45.92988" lon="6.50774">
        <ele>1717.5</ele>
        <time>2012-03-04T08:14:20Z</time>
      </trkpt>
      <trkpt lat="45.92991" lon="6.50786">
        <ele>1715</ele>
        <time>2012-03-04T08:14:30Z</time>
      </trkpt>
      <trkpt lat="45.92996" lon="6.50797">
        <ele>1718</ele>
        <time>2012-03-04T08:14:40Z</time>
      </trkpt>
      <trkpt lat="45.93001" lon="6.50807">
        <ele>1722.5</ele>
        <time>2012-03-04T08:14:50Z</time>
      </trkpt>
      <trkpt lat="45.93005" lon="6.50818">
        <ele>1725.3</ele>
        <time>2012-03-04T08:14:59Z</time>
      </trkpt>
      <trkpt lat="45.9301" lon="6.50829">
        <ele>1728.1</ele>
        <time>2012-03-04T08:15:08Z</time>
      </trkpt>
      <trkpt lat="45.93011" lon="6.5083">
        <ele>1728.5</ele>
        <time>2012-03-04T08:15:09Z</time>
      </trkpt>
      <trkpt lat="45.93016" lon="6.50851">
        <ele>1727.8</ele>
        <time>2012-03-04T08:15:26Z</time>
      </trkpt>
      <trkpt lat="45.9302" lon="6.50861">
        <ele>1725.5</ele>
        <time>2012-03-04T08:15:35Z</time>
      </trkpt>
      <trkpt lat="45.93023" lon="6.50872">
        <ele>1723.5</ele>
        <time>2012-03-04T08:15:44Z</time>
      </trkpt>
      <trkpt lat="45.93025" lon="6.50884">
        <ele>1723.5</ele>
        <time>2012-03-04T08:15:55Z</time>
      </trkpt>
      <trkpt lat="45.93028" lon="6.50895">
        <ele>1727.6</ele>
        <time>2012-03-04T08:16:08Z</time>
      </trkpt>
      <trkpt lat="45.93033" lon="6.50905">
        <ele>1731.8</ele>
        <time>2012-03-04T08:16:17Z</time>
      </trkpt>
      <trkpt lat="45.93034" lon="6.50906">
        <ele>1732.3</ele>
        <time>2012-03-04T08:16:18Z</time>
      </trkpt>
      <trkpt lat="45.93043" lon="6.50925">
        <ele>1737.8</ele>
        <time>2012-03-04T08:16:36Z</time>
      </trkpt>
      <trkpt lat="45.93047" lon="6.50936">
        <ele>1740</ele>
        <time>2012-03-04T08:16:46Z</time>
      </trkpt>
      <trkpt lat="45.9305" lon="6.50948">
        <ele>1746</ele>
        <time>2012-03-04T08:16:59Z</time>
      </trkpt>
      <trkpt lat="45.93053" lon="6.5096">
        <ele>1750</ele>
        <time>2012-03-04T08:17:12Z</time>
      </trkpt>
      <trkpt lat="45.93055" lon="6.50972">
        <ele>1750.6</ele>
        <time>2012-03-04T08:17:22Z</time>
      </trkpt>
      <trkpt lat="45.93055" lon="6.50973">
        <ele>1750.6</ele>
        <time>2012-03-04T08:17:23Z</time>
      </trkpt>
      <trkpt lat="45.93063" lon="6.50994">
        <ele>1756.5</ele>
        <time>2012-03-04T08:17:44Z</time>
      </trkpt>
      <trkpt lat="45.93069" lon="6.51002">
        <ele>1760.8</ele>
        <time>2012-03-04T08:17:54Z</time>
      </trkpt>
      <trkpt lat="45.93075" lon="6.51011">
        <ele>1763.1</ele>
        <time>2012-03-04T08:18:04Z</time>
      </trkpt>
      <trkpt lat="45.93076" lon="6.51024">
        <ele>1763</ele>
        <time>2012-03-04T08:18:15Z</time>
      </trkpt>
      <trkpt lat="45.93075" lon="6.51036">
        <ele>1766</ele>
        <time>2012-03-04T08:18:29Z</time>
      </trkpt>
      <trkpt lat="45.93075" lon="6.51037">
        <ele>1766.5</ele>
        <time>2012-03-04T08:18:30Z</time>
      </trkpt>
      <trkpt lat="45.9307" lon="6.51056">
        <ele>1774.3</ele>
        <time>2012-03-04T08:19:00Z</time>
      </trkpt>
      <trkpt lat="45.93062" lon="6.51061">
        <ele>1774.4</ele>
        <time>2012-03-04T08:19:12Z</time>
      </trkpt>
      <trkpt lat="45.93054" lon="6.51065">
        <ele>1773.1</ele>
        <time>2012-03-04T08:19:23Z</time>
      </trkpt>
      <trkpt lat="45.93045" lon="6.51068">
        <ele>1776.9</ele>
        <time>2012-03-04T08:19:36Z</time>
      </trkpt>
      <trkpt lat="45.93044" lon="6.51068">
        <ele>1777.5</ele>
        <time>2012-03-04T08:19:37Z</time>
      </trkpt>
      <trkpt lat="45.93029" lon="6.51077">
        <ele>1783.5</ele>
        <time>2012-03-04T08:20:02Z</time>
      </trkpt>
      <trkpt lat="45.93022" lon="6.51086">
        <ele>1796.1</ele>
        <time>2012-03-04T08:21:24Z</time>
      </trkpt>
      <trkpt lat="45.93021" lon="6.51086">
        <ele>1796</ele>
        <time>2012-03-04T08:21:25Z</time>
      </trkpt>
      <trkpt lat="45.93013" lon="6.51103">
        <ele>1798.5</ele>
        <time>2012-03-04T08:21:41Z</time>
      </trkpt>
      <trkpt lat="45.93012" lon="6.51116">
        <ele>1798</ele>
        <time>2012-03-04T08:21:50Z</time>
      </trkpt>
      <trkpt lat="45.93004" lon="6.51113">
        <ele>1799.5</ele>
        <time>2012-03-04T08:22:01Z</time>
      </trkpt>
      <trkpt lat="45.92995" lon="6.51115">
        <ele>1803</ele>
        <time>2012-03-04T08:22:15Z</time>
      </trkpt>
      <trkpt lat="45.92993" lon="6.51127">
        <ele>1803.6</ele>
        <time>2012-03-04T08:22:24Z</time>
      </trkpt>
      <trkpt lat="45.92992" lon="6.5114">
        <ele>1804</ele>
        <time>2012-03-04T08:22:34Z</time>
      </trkpt>
      <trkpt lat="45.92992" lon="6.51141">
        <ele>1804</ele>
        <time>2012-03-04T08:22:35Z</time>
      </trkpt>
      <trkpt lat="45.92984" lon="6.51161">
        <ele>1811.8</ele>
        <time>2012-03-04T08:23:05Z</time>
      </trkpt>
      <trkpt lat="45.92982" lon="6.51172">
        <ele>1810.3</ele>
        <time>2012-03-04T08:23:14Z</time>
      </trkpt>
      <trkpt lat="45.9298" lon="6.51184">
        <ele>1809.5</ele>
        <time>2012-03-04T08:23:24Z</time>
      </trkpt>
      <trkpt lat="45.9298" lon="6.51196">
        <ele>1811.4</ele>
        <time>2012-03-04T08:23:34Z</time>
      </trkpt>
      <trkpt lat="45.92983" lon="6.51208">
        <ele>1813</ele>
        <time>2012-03-04T08:23:45Z</time>
      </trkpt>
      <trkpt lat="45.92984" lon="6.51208">
        <ele>1813.4</ele>
        <time>2012-03-04T08:23:46Z</time>
      </trkpt>
      <trkpt lat="45.92977" lon="6.51228">
        <ele>1820</ele>
        <time>2012-03-04T08:24:17Z</time>
      </trkpt>
      <trkpt lat="45.92971" lon="6.51236">
        <ele>1822.1</ele>
        <time>2012-03-04T08:24:28Z</time>
      </trkpt>
      <trkpt lat="45.92965" lon="6.51246">
        <ele>1822.4</ele>
        <time>2012-03-04T08:24:37Z</time>
      </trkpt>
      <trkpt lat="45.92962" lon="6.51258">
        <ele>1827.8</ele>
        <time>2012-03-04T08:24:49Z</time>
      </trkpt>
      <trkpt lat="45.92962" lon="6.51258">
        <ele>1828.5</ele>
        <time>2012-03-04T08:24:50Z</time>
      </trkpt>
      <trkpt lat="45.9295" lon="6.51273">
        <ele>1832</ele>
        <time>2012-03-04T08:25:13Z</time>
      </trkpt>
      <trkpt lat="45.92944" lon="6.51283">
        <ele>1833.3</ele>
        <time>2012-03-04T08:25:21Z</time>
      </trkpt>
      <trkpt lat="45.92945" lon="6.51295">
        <ele>1843.1</ele>
        <time>2012-03-04T08:25:33Z</time>
      </trkpt>
      <trkpt lat="45.92948" lon="6.51307">
        <ele>1851.9</ele>
        <time>2012-03-04T08:25:46Z</time>
      </trkpt>
      <trkpt lat="45.92946" lon="6.51319">
        <ele>1858</ele>
        <time>2012-03-04T08:25:59Z</time>
      </trkpt>
      <trkpt lat="45.92946" lon="6.51319">
        <ele>1858</ele>
        <time>2012-03-04T08:26:00Z</time>
      </trkpt>
      <trkpt lat="45.92932" lon="6.51332">
        <ele>1853.5</ele>
        <time>2012-03-04T08:26:16Z</time>
      </trkpt>
      <trkpt lat="45.92927" lon="6.51342">
        <ele>1855.9</ele>
        <time>2012-03-04T08:26:28Z</time>
      </trkpt>
      <trkpt lat="45.92922" lon="6.51352">
        <ele>1855</ele>
        <time>2012-03-04T08:26:36Z</time>
      </trkpt>
      <trkpt lat="45.92921" lon="6.51365">
        <ele>1859</ele>
        <time>2012-03-04T08:26:49Z</time>
      </trkpt>
      <trkpt lat="45.92919" lon="6.51377">
        <ele>1865.3</ele>
        <time>2012-03-04T08:27:03Z</time>
      </trkpt>
      <trkpt lat="45.92919" lon="6.51378">
        <ele>1865.8</ele>
        <time>2012-03-04T08:27:04Z</time>
      </trkpt>
      <trkpt lat="45.92902" lon="6.51376">
        <ele>1881.1</ele>
        <time>2012-03-04T08:27:37Z</time>
      </trkpt>
      <trkpt lat="45.92894" lon="6.5138">
        <ele>1882</ele>
        <time>2012-03-04T08:27:45Z</time>
      </trkpt>
      <trkpt lat="45.92886" lon="6.51384">
        <ele>1880.9</ele>
        <time>2012-03-04T08:27:54Z</time>
      </trkpt>
      <trkpt lat="45.9288" lon="6.51392">
        <ele>1879</ele>
        <time>2012-03-04T08:28:06Z</time>
      </trkpt>
      <trkpt lat="45.9288" lon="6.51393">
        <ele>1879</ele>
        <time>2012-03-04T08:28:07Z</time>
      </trkpt>
      <trkpt lat="45.92877" lon="6.51417">
        <ele>1882</ele>
        <time>2012-03-04T08:28:28Z</time>
      </trkpt>
      <trkpt lat="45.92876" lon="6.51429">
        <ele>1883</ele>
        <time>2012-03-04T08:28:38Z</time>
      </trkpt>
      <trkpt lat="45.92873" lon="6.51441">
        <ele>1885.5</ele>
        <time>2012-03-04T08:28:56Z</time>
      </trkpt>
      <trkpt lat="45.92866" lon="6.51445">
        <ele>1885.1</ele>
        <time>2012-03-04T08:29:04Z</time>
      </trkpt>
      <trkpt lat="45.92858" lon="6.5145">
        <ele>1885.9</ele>
        <time>2012-03-04T08:29:16Z</time>
      </trkpt>
      <trkpt lat="45.92857" lon="6.51451">
        <ele>1886</ele>
        <time>2012-03-04T08:29:17Z</time>
      </trkpt>
      <trkpt lat="45.92856" lon="6.51467">
        <ele>1897.5</ele>
        <time>2012-03-04T08:29:49Z</time>
      </trkpt>
      <trkpt lat="45.9286" lon="6.51476">
        <ele>1899.9</ele>
        <time>2012-03-04T08:30:00Z</time>
      </trkpt>
      <trkpt lat="45.92866" lon="6.51484">
        <ele>1905.5</ele>
        <time>2012-03-04T08:30:14Z</time>
      </trkpt>
      <trkpt lat="45.92873" lon="6.5149">
        <ele>1906.9</ele>
        <time>2012-03-04T08:30:27Z</time>
      </trkpt>
      <trkpt lat="45.92874" lon="6.51491">
        <ele>1907.3</ele>
        <time>2012-03-04T08:30:28Z</time>
      </trkpt>
      <trkpt lat="45.92879" lon="6.51512">
        <ele>1911.1</ele>
        <time>2012-03-04T08:30:51Z</time>
      </trkpt>
      <trkpt lat="45.92877" lon="6.51524">
        <ele>1932.4</ele>
        <time>2012-03-04T08:31:31Z</time>
      </trkpt>
      <trkpt lat="45.92877" lon="6.51525">
        <ele>1932</ele>
        <time>2012-03-04T08:31:32Z</time>
      </trkpt>
      <trkpt lat="45.92869" lon="6.51542">
        <ele>1932.9</ele>
        <time>2012-03-04T08:32:02Z</time>
      </trkpt>
      <trkpt lat="45.92868" lon="6.51555">
        <ele>1935</ele>
        <time>2012-03-04T08:32:20Z</time>
      </trkpt>
      <trkpt lat="45.92872" lon="6.51565">
        <ele>1933.5</ele>
        <time>2012-03-04T08:32:28Z</time>
      </trkpt>
      <trkpt lat="45.92876" lon="6.51575">
        <ele>1931.5</ele>
        <time>2012-03-04T08:32:36Z</time>
      </trkpt>
      <trkpt lat="45.92876" lon="6.51576">
        <ele>1931.4</ele>
        <time>2012-03-04T08:32:37Z</time>
      </trkpt>
      <trkpt lat="45.92873" lon="6.516">
        <ele>1945.5</ele>
        <time>2012-03-04T08:33:24Z</time>
      </trkpt>
      <trkpt lat="45.92869" lon="6.51611">
        <ele>1946.5</ele>
        <time>2012-03-04T08:33:48Z</time>
      </trkpt>
      <trkpt lat="45.92869" lon="6.51612">
        <ele>1946.3</ele>
        <time>2012-03-04T08:33:49Z</time>
      </trkpt>
      <trkpt lat="45.92876" lon="6.51634">
        <ele>1960.5</ele>
        <time>2012-03-04T08:34:51Z</time>
      </trkpt>
      <trkpt lat="45.92876" lon="6.51635">
        <ele>1960.5</ele>
        <time>2012-03-04T08:34:52Z</time>
      </trkpt>
      <trkpt lat="45.92882" lon="6.51657">
        <ele>1950.1</ele>
        <time>2012-03-04T08:35:07Z</time>
      </trkpt>
      <trkpt lat="45.92875" lon="6.51663">
        <ele>1973.5</ele>
        <time>2012-03-04T08:35:52Z</time>
      </trkpt>
      <trkpt lat="45.92874" lon="6.51663">
        <ele>1973.5</ele>
        <time>2012-03-04T08:35:53Z</time>
      </trkpt>
      <trkpt lat="45.92864" lon="6.51674">
        <ele>1972</ele>
        <time>2012-03-04T08:36:20Z</time>
      </trkpt>
      <trkpt lat="45.92855" lon="6.51672">
        <ele>1974.9</ele>
        <time>2012-03-04T08:36:39Z</time>
      </trkpt>
      <trkpt lat="45.92848" lon="6.51666">
        <ele>1977.5</ele>
        <time>2012-03-04T08:36:53Z</time>
      </trkpt>
      <trkpt lat="45.92847" lon="6.51665">
        <ele>1977.5</ele>
        <time>2012-03-04T08:36:54Z</time>
      </trkpt>
      <trkpt lat="45.92832" lon="6.51656">
        <ele>1981.5</ele>
        <time>2012-03-04T08:37:16Z</time>
      </trkpt>
      <trkpt lat="45.92824" lon="6.51652">
        <ele>1985.3</ele>
        <time>2012-03-04T08:37:28Z</time>
      </trkpt>
      <trkpt lat="45.92816" lon="6.51647">
        <ele>1989.5</ele>
        <time>2012-03-04T08:37:41Z</time>
      </trkpt>
      <trkpt lat="45.92808" lon="6.51642">
        <ele>1987.5</ele>
        <time>2012-03-04T08:37:58Z</time>
      </trkpt>
      <trkpt lat="45.92808" lon="6.51642">
        <ele>1986.5</ele>
        <time>2012-03-04T08:37:59Z</time>
      </trkpt>
      <trkpt lat="45.92792" lon="6.51653">
        <ele>1972.6</ele>
        <time>2012-03-04T08:38:44Z</time>
      </trkpt>
      <trkpt lat="45.92786" lon="6.51661">
        <ele>1972.3</ele>
        <time>2012-03-04T08:38:54Z</time>
      </trkpt>
      <trkpt lat="45.92794" lon="6.51662">
        <ele>2002.6</ele>
        <time>2012-03-04T08:40:41Z</time>
      </trkpt>
      <trkpt lat="45.92795" lon="6.51662">
        <ele>2002.5</ele>
        <time>2012-03-04T08:40:42Z</time>
      </trkpt>
      <trkpt lat="45.92785" lon="6.51663">
        <ele>1991.3</ele>
        <time>2012-03-04T08:42:56Z</time>
      </trkpt>
      <trkpt lat="45.92781" lon="6.51657">
        <ele>1986.1</ele>
        <time>2012-03-04T08:43:59Z</time>
      </trkpt>
      <trkpt lat="45.9278" lon="6.51658">
        <ele>1985.6</ele>
        <time>2012-03-04T08:44:00Z</time>
      </trkpt>
      <trkpt lat="45.92771" lon="6.51677">
        <ele>1985</ele>
        <time>2012-03-04T08:44:19Z</time>
      </trkpt>
      <trkpt lat="45.9277" lon="6.5169">
        <ele>1984.5</ele>
        <time>2012-03-04T08:44:30Z</time>
      </trkpt>
      <trkpt lat="45.92769" lon="6.51702">
        <ele>1985.5</ele>
        <time>2012-03-04T08:44:42Z</time>
      </trkpt>
      <trkpt lat="45.92762" lon="6.51709">
        <ele>1987.5</ele>
        <time>2012-03-04T08:44:57Z</time>
      </trkpt>
      <trkpt lat="45.92753" lon="6.51711">
        <ele>1992</ele>
        <time>2012-03-04T08:45:13Z</time>
      </trkpt>
      <trkpt lat="45.92753" lon="6.51712">
        <ele>1992.4</ele>
        <time>2012-03-04T08:45:14Z</time>
      </trkpt>
      <trkpt lat="45.92738" lon="6.51722">
        <ele>2001.1</ele>
        <time>2012-03-04T08:45:39Z</time>
      </trkpt>
      <trkpt lat="45.92736" lon="6.51734">
        <ele>2004.9</ele>
        <time>2012-03-04T08:45:56Z</time>
      </trkpt>
      <trkpt lat="45.9273" lon="6.51744">
        <ele>2007</ele>
        <time>2012-03-04T08:46:13Z</time>
      </trkpt>
      <trkpt lat="45.92724" lon="6.51754">
        <ele>2011.3</ele>
        <time>2012-03-04T08:46:33Z</time>
      </trkpt>
      <trkpt lat="45.92724" lon="6.51754">
        <ele>2011.5</ele>
        <time>2012-03-04T08:46:34Z</time>
      </trkpt>
      <trkpt lat="45.92724" lon="6.51774">
        <ele>2029.9</ele>
        <time>2012-03-04T08:47:36Z</time>
      </trkpt>
      <trkpt lat="45.92725" lon="6.51775">
        <ele>2029.9</ele>
        <time>2012-03-04T08:47:37Z</time>
      </trkpt>
      <trkpt lat="45.92735" lon="6.51793">
        <ele>2034.6</ele>
        <time>2012-03-04T08:48:20Z</time>
      </trkpt>
      <trkpt lat="45.92742" lon="6.51801">
        <ele>2038.3</ele>
        <time>2012-03-04T08:48:41Z</time>
      </trkpt>
      <trkpt lat="45.92742" lon="6.51802">
        <ele>2038.1</ele>
        <time>2012-03-04T08:48:42Z</time>
      </trkpt>
      <trkpt lat="45.92747" lon="6.51823">
        <ele>2045.8</ele>
        <time>2012-03-04T08:49:39Z</time>
      </trkpt>
      <trkpt lat="45.92754" lon="6.5183">
        <ele>2045.8</ele>
        <time>2012-03-04T08:49:49Z</time>
      </trkpt>
      <trkpt lat="45.92755" lon="6.51831">
        <ele>2045.3</ele>
        <time>2012-03-04T08:49:50Z</time>
      </trkpt>
      <trkpt lat="45.9275" lon="6.51843">
        <ele>2060.8</ele>
        <time>2012-03-04T08:51:00Z</time>
      </trkpt>
      <trkpt lat="45.92749" lon="6.51843">
        <ele>2060.6</ele>
        <time>2012-03-04T08:51:01Z</time>
      </trkpt>
      <trkpt lat="45.92761" lon="6.5186">
        <ele>2057.1</ele>
        <time>2012-03-04T08:51:25Z</time>
      </trkpt>
      <trkpt lat="45.92756" lon="6.51871">
        <ele>2046.9</ele>
        <time>2012-03-04T08:52:01Z</time>
      </trkpt>
      <trkpt lat="45.92756" lon="6.51872">
        <ele>2046.5</ele>
        <time>2012-03-04T08:52:02Z</time>
      </trkpt>
      <trkpt lat="45.9274" lon="6.51863">
        <ele>2056.3</ele>
        <time>2012-03-04T08:52:57Z</time>
      </trkpt>
      <trkpt lat="45.92731" lon="6.51864">
        <ele>2053</ele>
        <time>2012-03-04T08:53:34Z</time>
      </trkpt>
      <trkpt lat="45.9273" lon="6.51864">
        <ele>2052.6</ele>
        <time>2012-03-04T08:53:35Z</time>
      </trkpt>
      <trkpt lat="45.92715" lon="6.51853">
        <ele>2055.1</ele>
        <time>2012-03-04T08:54:23Z</time>
      </trkpt>
      <trkpt lat="45.92708" lon="6.51845">
        <ele>2057.3</ele>
        <time>2012-03-04T08:54:45Z</time>
      </trkpt>
      <trkpt lat="45.92708" lon="6.51845">
        <ele>2057.6</ele>
        <time>2012-03-04T08:54:46Z</time>
      </trkpt>
      <trkpt lat="45.92692" lon="6.51836">
        <ele>2062.1</ele>
        <time>2012-03-04T08:55:19Z</time>
      </trkpt>
      <trkpt lat="45.92684" lon="6.51833">
        <ele>2054.6</ele>
        <time>2012-03-04T08:55:46Z</time>
      </trkpt>
      <trkpt lat="45.92683" lon="6.51833">
        <ele>2054.5</ele>
        <time>2012-03-04T08:55:47Z</time>
      </trkpt>
      <trkpt lat="45.92668" lon="6.51822">
        <ele>2060.6</ele>
        <time>2012-03-04T08:56:31Z</time>
      </trkpt>
      <trkpt lat="45.9266" lon="6.51819">
        <ele>2057.6</ele>
        <time>2012-03-04T08:56:57Z</time>
      </trkpt>
      <trkpt lat="45.9266" lon="6.51818">
        <ele>2057.5</ele>
        <time>2012-03-04T08:56:58Z</time>
      </trkpt>
      <trkpt lat="45.92643" lon="6.51813">
        <ele>2060.1</ele>
        <time>2012-03-04T08:57:37Z</time>
      </trkpt>
      <trkpt lat="45.92635" lon="6.5181">
        <ele>2057.3</ele>
        <time>2012-03-04T08:57:53Z</time>
      </trkpt>
      <trkpt lat="45.92628" lon="6.51801">
        <ele>2064.5</ele>
        <time>2012-03-04T08:58:08Z</time>
      </trkpt>
      <trkpt lat="45.92628" lon="6.518">
        <ele>2065.5</ele>
        <time>2012-03-04T08:58:09Z</time>
      </trkpt>
      <trkpt lat="45.92613" lon="6.518">
        <ele>2092.8</ele>
        <time>2012-03-04T08:58:49Z</time>
      </trkpt>
      <trkpt lat="45.92604" lon="6.51797">
        <ele>2091.6</ele>
        <time>2012-03-04T08:59:28Z</time>
      </trkpt>
      <trkpt lat="45.92604" lon="6.51797">
        <ele>2091.6</ele>
        <time>2012-03-04T08:59:29Z</time>
      </trkpt>
      <trkpt lat="45.92588" lon="6.5179">
        <ele>2091.1</ele>
        <time>2012-03-04T09:00:10Z</time>
      </trkpt>
      <trkpt lat="45.9258" lon="6.5179">
        <ele>2093.1</ele>
        <time>2012-03-04T09:00:23Z</time>
      </trkpt>
      <trkpt lat="45.92571" lon="6.51791">
        <ele>2096.5</ele>
        <time>2012-03-04T09:00:35Z</time>
      </trkpt>
      <trkpt lat="45.92571" lon="6.51791">
        <ele>2096.3</ele>
        <time>2012-03-04T09:00:36Z</time>
      </trkpt>
      <trkpt lat="45.92555" lon="6.51799">
        <ele>2092.1</ele>
        <time>2012-03-04T09:01:00Z</time>
      </trkpt>
      <trkpt lat="45.92547" lon="6.51803">
        <ele>2094.3</ele>
        <time>2012-03-04T09:01:10Z</time>
      </trkpt>
      <trkpt lat="45.92546" lon="6.51815">
        <ele>2103.6</ele>
        <time>2012-03-04T09:01:23Z</time>
      </trkpt>
      <trkpt lat="45.92543" lon="6.51827">
        <ele>2118</ele>
        <time>2012-03-04T09:01:40Z</time>
      </trkpt>
      <trkpt lat="45.92543" lon="6.51828">
        <ele>2118.8</ele>
        <time>2012-03-04T09:01:41Z</time>
      </trkpt>
      <trkpt lat="45.92531" lon="6.51837">
        <ele>2128.8</ele>
        <time>2012-03-04T09:02:29Z</time>
      </trkpt>
      <trkpt lat="45.92522" lon="6.51837">
        <ele>2133</ele>
        <time>2012-03-04T09:04:07Z</time>
      </trkpt>
      <trkpt lat="45.92521" lon="6.51837">
        <ele>2133.6</ele>
        <time>2012-03-04T09:04:08Z</time>
      </trkpt>
      <trkpt lat="45.92514" lon="6.51858">
        <ele>2145.8</ele>
        <time>2012-03-04T09:05:09Z</time>
      </trkpt>
      <trkpt lat="45.92513" lon="6.51858">
        <ele>2145.8</ele>
        <time>2012-03-04T09:05:10Z</time>
      </trkpt>
      <trkpt lat="45.92504" lon="6.51877">
        <ele>2140.3</ele>
        <time>2012-03-04T09:05:32Z</time>
      </trkpt>
      <trkpt lat="45.92501" lon="6.51888">
        <ele>2134.5</ele>
        <time>2012-03-04T09:05:42Z</time>
      </trkpt>
      <trkpt lat="45.92499" lon="6.519">
        <ele>2132.8</ele>
        <time>2012-03-04T09:05:50Z</time>
      </trkpt>
      <trkpt lat="45.92497" lon="6.51912">
        <ele>2133.1</ele>
        <time>2012-03-04T09:05:58Z</time>
      </trkpt>
      <trkpt lat="45.92496" lon="6.51924">
        <ele>2131.5</ele>
        <time>2012-03-04T09:06:06Z</time>
      </trkpt>
      <trkpt lat="45.92494" lon="6.51936">
        <ele>2131.3</ele>
        <time>2012-03-04T09:06:16Z</time>
      </trkpt>
      <trkpt lat="45.92494" lon="6.51937">
        <ele>2132</ele>
        <time>2012-03-04T09:06:17Z</time>
      </trkpt>
      <trkpt lat="45.92482" lon="6.51954">
        <ele>2150.1</ele>
        <time>2012-03-04T09:06:41Z</time>
      </trkpt>
      <trkpt lat="45.92474" lon="6.5196">
        <ele>2158</ele>
        <time>2012-03-04T09:06:55Z</time>
      </trkpt>
      <trkpt lat="45.92479" lon="6.51969">
        <ele>2163.6</ele>
        <time>2012-03-04T09:07:16Z</time>
      </trkpt>
      <trkpt lat="45.92476" lon="6.51981">
        <ele>2180.3</ele>
        <time>2012-03-04T09:07:48Z</time>
      </trkpt>
      <trkpt lat="45.92476" lon="6.51982">
        <ele>2180.8</ele>
        <time>2012-03-04T09:07:49Z</time>
      </trkpt>
      <trkpt lat="45.92472" lon="6.52006">
        <ele>2176.5</ele>
        <time>2012-03-04T09:08:10Z</time>
      </trkpt>
      <trkpt lat="45.92471" lon="6.52019">
        <ele>2175.6</ele>
        <time>2012-03-04T09:08:19Z</time>
      </trkpt>
      <trkpt lat="45.92471" lon="6.52031">
        <ele>2175.3</ele>
        <time>2012-03-04T09:08:27Z</time>
      </trkpt>
      <trkpt lat="45.9247" lon="6.52044">
        <ele>2171.3</ele>
        <time>2012-03-04T09:08:37Z</time>
      </trkpt>
      <trkpt lat="45.92468" lon="6.52055">
        <ele>2168.1</ele>
        <time>2012-03-04T09:08:45Z</time>
      </trkpt>
      <trkpt lat="45.92463" lon="6.52066">
        <ele>2169.8</ele>
        <time>2012-03-04T09:08:54Z</time>
      </trkpt>
      <trkpt lat="45.92463" lon="6.52066">
        <ele>2170.1</ele>
        <time>2012-03-04T09:08:55Z</time>
      </trkpt>
      <trkpt lat="45.92457" lon="6.52087">
        <ele>2175</ele>
        <time>2012-03-04T09:09:11Z</time>
      </trkpt>
      <trkpt lat="45.92456" lon="6.52099">
        <ele>2178.8</ele>
        <time>2012-03-04T09:09:21Z</time>
      </trkpt>
      <trkpt lat="45.92404" lon="6.52441">
        <ele>2230.5</ele>
        <time>2012-03-04T09:13:40Z</time>
      </trkpt>
      <trkpt lat="45.92404" lon="6.52443">
        <ele>2230.6</ele>
        <time>2012-03-04T09:13:41Z</time>
      </trkpt>
      <trkpt lat="45.92401" lon="6.52757">
        <ele>2318.3</ele>
        <time>2012-03-04T09:22:51Z</time>
      </trkpt>
      <trkpt lat="45.92402" lon="6.5277">
        <ele>2334.8</ele>
        <time>2012-03-04T09:23:10Z</time>
      </trkpt>
      <trkpt lat="45.92405" lon="6.52781">
        <ele>2337.5</ele>
        <time>2012-03-04T09:23:19Z</time>
      </trkpt>
      <trkpt lat="45.92408" lon="6.52793">
        <ele>2335.3</ele>
        <time>2012-03-04T09:23:28Z</time>
      </trkpt>
      <trkpt lat="45.92411" lon="6.52805">
        <ele>2334</ele>
        <time>2012-03-04T09:23:37Z</time>
      </trkpt>
      <trkpt lat="45.92408" lon="6.52817">
        <ele>2341.6</ele>
        <time>2012-03-04T09:23:50Z</time>
      </trkpt>
      <trkpt lat="45.92409" lon="6.52829">
        <ele>2350.1</ele>
        <time>2012-03-04T09:24:15Z</time>
      </trkpt>
      <trkpt lat="45.92409" lon="6.5283">
        <ele>2350.6</ele>
        <time>2012-03-04T09:24:16Z</time>
      </trkpt>
      <trkpt lat="45.92422" lon="6.52844">
        <ele>2355</ele>
        <time>2012-03-04T09:24:38Z</time>
      </trkpt>
      <trkpt lat="45.92419" lon="6.52856">
        <ele>2355.1</ele>
        <time>2012-03-04T09:24:54Z</time>
      </trkpt>
      <trkpt lat="45.92413" lon="6.52865">
        <ele>2357.1</ele>
        <time>2012-03-04T09:25:07Z</time>
      </trkpt>
      <trkpt lat="45.92416" lon="6.52876">
        <ele>2374.8</ele>
        <time>2012-03-04T09:25:45Z</time>
      </trkpt>
      <trkpt lat="45.92416" lon="6.52877">
        <ele>2375.6</ele>
        <time>2012-03-04T09:25:46Z</time>
      </trkpt>
      <trkpt lat="45.92424" lon="6.52892">
        <ele>2378</ele>
        <time>2012-03-04T09:26:15Z</time>
      </trkpt>
      <trkpt lat="45.92422" lon="6.52904">
        <ele>2372.8</ele>
        <time>2012-03-04T09:26:26Z</time>
      </trkpt>
      <trkpt lat="45.92414" lon="6.5291">
        <ele>2378.3</ele>
        <time>2012-03-04T09:26:42Z</time>
      </trkpt>
      <trkpt lat="45.92417" lon="6.52922">
        <ele>2393.8</ele>
        <time>2012-03-04T09:27:24Z</time>
      </trkpt>
      <trkpt lat="45.92417" lon="6.52923">
        <ele>2394.1</ele>
        <time>2012-03-04T09:27:25Z</time>
      </trkpt>
      <trkpt lat="45.92422" lon="6.52943">
        <ele>2402.6</ele>
        <time>2012-03-04T09:27:57Z</time>
      </trkpt>
      <trkpt lat="45.92426" lon="6.52954">
        <ele>2397.8</ele>
        <time>2012-03-04T09:28:15Z</time>
      </trkpt>
      <trkpt lat="45.92433" lon="6.52959">
        <ele>2404.3</ele>
        <time>2012-03-04T09:28:29Z</time>
      </trkpt>
      <trkpt lat="45.92434" lon="6.5296">
        <ele>2404.3</ele>
        <time>2012-03-04T09:28:30Z</time>
      </trkpt>
      <trkpt lat="45.92433" lon="6.52984">
        <ele>2415.6</ele>
        <time>2012-03-04T09:29:17Z</time>
      </trkpt>
      <trkpt lat="45.92429" lon="6.52996">
        <ele>2423.8</ele>
        <time>2012-03-04T09:29:48Z</time>
      </trkpt>
      <trkpt lat="45.92429" lon="6.52996">
        <ele>2424.6</ele>
        <time>2012-03-04T09:29:49Z</time>
      </trkpt>
      <trkpt lat="45.92425" lon="6.53019">
        <ele>2428.1</ele>
        <time>2012-03-04T09:30:42Z</time>
      </trkpt>
      <trkpt lat="45.9243" lon="6.5303">
        <ele>2431.6</ele>
        <time>2012-03-04T09:30:56Z</time>
      </trkpt>
      <trkpt lat="45.9243" lon="6.53031">
        <ele>2431.8</ele>
        <time>2012-03-04T09:30:57Z</time>
      </trkpt>
      <trkpt lat="45.92436" lon="6.53049">
        <ele>2444.1</ele>
        <time>2012-03-04T09:31:43Z</time>
      </trkpt>
      <trkpt lat="45.92443" lon="6.53055">
        <ele>2437.3</ele>
        <time>2012-03-04T09:32:08Z</time>
      </trkpt>
      <trkpt lat="45.92444" lon="6.53055">
        <ele>2436.6</ele>
        <time>2012-03-04T09:32:10Z</time>
      </trkpt>
      <trkpt lat="45.9246" lon="6.53058">
        <ele>2440.8</ele>
        <time>2012-03-04T09:32:40Z</time>
      </trkpt>
      <trkpt lat="45.92469" lon="6.53057">
        <ele>2443.8</ele>
        <time>2012-03-04T09:32:54Z</time>
      </trkpt>
      <trkpt lat="45.92478" lon="6.53055">
        <ele>2449.8</ele>
        <time>2012-03-04T09:33:10Z</time>
      </trkpt>
      <trkpt lat="45.92481" lon="6.53067">
        <ele>2448.5</ele>
        <time>2012-03-04T09:33:44Z</time>
      </trkpt>
      <trkpt lat="45.92481" lon="6.53067">
        <ele>2448.1</ele>
        <time>2012-03-04T09:33:45Z</time>
      </trkpt>
      <trkpt lat="45.9248" lon="6.53068">
        <ele>2462.1</ele>
        <time>2012-03-04T09:39:51Z</time>
      </trkpt>
      <trkpt lat="45.9248" lon="6.53068">
        <ele>2462.1</ele>
        <time>2012-03-04T09:39:52Z</time>
      </trkpt>
      <trkpt lat="45.92476" lon="6.5308">
        <ele>2457.1</ele>
        <time>2012-03-04T09:43:22Z</time>
      </trkpt>
      <trkpt lat="45.92465" lon="6.53098">
        <ele>2458.1</ele>
        <time>2012-03-04T09:43:51Z</time>
      </trkpt>
      <trkpt lat="45.92472" lon="6.5309">
        <ele>2457.5</ele>
        <time>2012-03-04T09:50:31Z</time>
      </trkpt>
      <trkpt lat="45.92473" lon="6.5309">
        <ele>2457.1</ele>
        <time>2012-03-04T09:50:32Z</time>
      </trkpt>
      <trkpt lat="45.92483" lon="6.53071">
        <ele>2450.1</ele>
        <time>2012-03-04T09:50:55Z</time>
      </trkpt>
      <trkpt lat="45.92477" lon="6.5308">
        <ele>2440.6</ele>
        <time>2012-03-04T10:07:16Z</time>
      </trkpt>
      <trkpt lat="45.92476" lon="6.5308">
        <ele>2441.1</ele>
        <time>2012-03-04T10:07:17Z</time>
      </trkpt>
      <trkpt lat="45.92479" lon="6.53062">
        <ele>2440.3</ele>
        <time>2012-03-04T10:07:25Z</time>
      </trkpt>
      <trkpt lat="45.92483" lon="6.53054">
        <ele>2440.3</ele>
        <time>2012-03-04T10:07:27Z</time>
      </trkpt>
      <trkpt lat="45.92476" lon="6.53048">
        <ele>2440.6</ele>
        <time>2012-03-04T10:07:32Z</time>
      </trkpt>
      <trkpt lat="45.92478" lon="6.5304">
        <ele>2440.8</ele>
        <time>2012-03-04T10:07:34Z</time>
      </trkpt>
      <trkpt lat="45.92472" lon="6.53033">
        <ele>2437.8</ele>
        <time>2012-03-04T10:07:38Z</time>
      </trkpt>
      <trkpt lat="45.92466" lon="6.53035">
        <ele>2436.1</ele>
        <time>2012-03-04T10:07:40Z</time>
      </trkpt>
      <trkpt lat="45.92459" lon="6.53037">
        <ele>2434.6</ele>
        <time>2012-03-04T10:07:42Z</time>
      </trkpt>
      <trkpt lat="45.92451" lon="6.53038">
        <ele>2433.3</ele>
        <time>2012-03-04T10:07:44Z</time>
      </trkpt>
      <trkpt lat="45.92443" lon="6.5304">
        <ele>2432.5</ele>
        <time>2012-03-04T10:07:46Z</time>
      </trkpt>
      <trkpt lat="45.92435" lon="6.53039">
        <ele>2432.8</ele>
        <time>2012-03-04T10:07:58Z</time>
      </trkpt>
      <trkpt lat="45.92427" lon="6.53033">
        <ele>2431.3</ele>
        <time>2012-03-04T10:08:01Z</time>
      </trkpt>
      <trkpt lat="45.92429" lon="6.53025">
        <ele>2429.8</ele>
        <time>2012-03-04T10:08:03Z</time>
      </trkpt>
      <trkpt lat="45.92429" lon="6.53016">
        <ele>2427.6</ele>
        <time>2012-03-04T10:08:05Z</time>
      </trkpt>
      <trkpt lat="45.92431" lon="6.53006">
        <ele>2425.5</ele>
        <time>2012-03-04T10:08:07Z</time>
      </trkpt>
      <trkpt lat="45.92429" lon="6.52996">
        <ele>2421.8</ele>
        <time>2012-03-04T10:08:09Z</time>
      </trkpt>
      <trkpt lat="45.92431" lon="6.52985">
        <ele>2418</ele>
        <time>2012-03-04T10:08:11Z</time>
      </trkpt>
      <trkpt lat="45.92427" lon="6.52977">
        <ele>2415</ele>
        <time>2012-03-04T10:08:13Z</time>
      </trkpt>
      <trkpt lat="45.92428" lon="6.52966">
        <ele>2411.1</ele>
        <time>2012-03-04T10:08:16Z</time>
      </trkpt>
      <trkpt lat="45.92426" lon="6.52956">
        <ele>2408.1</ele>
        <time>2012-03-04T10:08:18Z</time>
      </trkpt>
      <trkpt lat="45.92424" lon="6.52951">
        <ele>2406.3</ele>
        <time>2012-03-04T10:08:19Z</time>
      </trkpt>
      <trkpt lat="45.92427" lon="6.52935">
        <ele>2401.8</ele>
        <time>2012-03-04T10:08:22Z</time>
      </trkpt>
      <trkpt lat="45.92423" lon="6.52925">
        <ele>2397.8</ele>
        <time>2012-03-04T10:08:25Z</time>
      </trkpt>
      <trkpt lat="45.92419" lon="6.52914">
        <ele>2393.6</ele>
        <time>2012-03-04T10:08:28Z</time>
      </trkpt>
      <trkpt lat="45.92413" lon="6.52905">
        <ele>2391.1</ele>
        <time>2012-03-04T10:08:31Z</time>
      </trkpt>
      <trkpt lat="45.92418" lon="6.52897">
        <ele>2389.6</ele>
        <time>2012-03-04T10:08:33Z</time>
      </trkpt>
      <trkpt lat="45.92413" lon="6.52889">
        <ele>2386.3</ele>
        <time>2012-03-04T10:08:36Z</time>
      </trkpt>
      <trkpt lat="45.92406" lon="6.52888">
        <ele>2385.3</ele>
        <time>2012-03-04T10:08:38Z</time>
      </trkpt>
      <trkpt lat="45.92399" lon="6.52886">
        <ele>2384.3</ele>
        <time>2012-03-04T10:08:40Z</time>
      </trkpt>
      <trkpt lat="45.92392" lon="6.5288">
        <ele>2383.5</ele>
        <time>2012-03-04T10:08:42Z</time>
      </trkpt>
      <trkpt lat="45.92394" lon="6.5287">
        <ele>2380.8</ele>
        <time>2012-03-04T10:08:45Z</time>
      </trkpt>
      <trkpt lat="45.9239" lon="6.52859">
        <ele>2377.1</ele>
        <time>2012-03-04T10:08:47Z</time>
      </trkpt>
      <trkpt lat="45.92394" lon="6.52851">
        <ele>2373.1</ele>
        <time>2012-03-04T10:08:49Z</time>
      </trkpt>
      <trkpt lat="45.92395" lon="6.52838">
        <ele>2366.1</ele>
        <time>2012-03-04T10:08:52Z</time>
      </trkpt>
      <trkpt lat="45.92403" lon="6.52835">
        <ele>2360.8</ele>
        <time>2012-03-04T10:08:57Z</time>
      </trkpt>
      <trkpt lat="45.92408" lon="6.52828">
        <ele>2340.8</ele>
        <time>2012-03-04T10:09:23Z</time>
      </trkpt>
      <trkpt lat="45.92405" lon="6.52822">
        <ele>2339.5</ele>
        <time>2012-03-04T10:09:24Z</time>
      </trkpt>
      <trkpt lat="45.92406" lon="6.52809">
        <ele>2336.8</ele>
        <time>2012-03-04T10:09:26Z</time>
      </trkpt>
      <trkpt lat="45.92404" lon="6.52803">
        <ele>2335</ele>
        <time>2012-03-04T10:09:27Z</time>
      </trkpt>
      <trkpt lat="45.92401" lon="6.52797">
        <ele>2334</ele>
        <time>2012-03-04T10:09:28Z</time>
      </trkpt>
      <trkpt lat="45.92401" lon="6.52784">
        <ele>2331.5</ele>
        <time>2012-03-04T10:09:30Z</time>
      </trkpt>
      <trkpt lat="45.92401" lon="6.52777">
        <ele>2330.3</ele>
        <time>2012-03-04T10:09:31Z</time>
      </trkpt>
      <trkpt lat="45.92397" lon="6.52766">
        <ele>2329.6</ele>
        <time>2012-03-04T10:09:33Z</time>
      </trkpt>
      <trkpt lat="45.92398" lon="6.52754">
        <ele>2329</ele>
        <time>2012-03-04T10:09:36Z</time>
      </trkpt>
      <trkpt lat="45.92396" lon="6.52743">
        <ele>2327.6</ele>
        <time>2012-03-04T10:09:38Z</time>
      </trkpt>
      <trkpt lat="45.92394" lon="6.52738">
        <ele>2326.8</ele>
        <time>2012-03-04T10:09:39Z</time>
      </trkpt>
      <trkpt lat="45.9239" lon="6.52727">
        <ele>2325.5</ele>
        <time>2012-03-04T10:09:41Z</time>
      </trkpt>
      <trkpt lat="45.92394" lon="6.5272">
        <ele>2325.1</ele>
        <time>2012-03-04T10:09:43Z</time>
      </trkpt>
      <trkpt lat="45.92395" lon="6.52709">
        <ele>2323.6</ele>
        <time>2012-03-04T10:09:45Z</time>
      </trkpt>
      <trkpt lat="45.92401" lon="6.52699">
        <ele>2322.3</ele>
        <time>2012-03-04T10:09:48Z</time>
      </trkpt>
      <trkpt lat="45.92405" lon="6.52694">
        <ele>2321.6</ele>
        <time>2012-03-04T10:09:49Z</time>
      </trkpt>
      <trkpt lat="45.92411" lon="6.52688">
        <ele>2321.3</ele>
        <time>2012-03-04T10:09:51Z</time>
      </trkpt>
      <trkpt lat="45.92418" lon="6.52681">
        <ele>2319.8</ele>
        <time>2012-03-04T10:09:56Z</time>
      </trkpt>
      <trkpt lat="45.92418" lon="6.52669">
        <ele>2316.5</ele>
        <time>2012-03-04T10:10:00Z</time>
      </trkpt>
      <trkpt lat="45.92424" lon="6.52659">
        <ele>2314.1</ele>
        <time>2012-03-04T10:10:04Z</time>
      </trkpt>
      <trkpt lat="45.92427" lon="6.52651">
        <ele>2313</ele>
        <time>2012-03-04T10:10:06Z</time>
      </trkpt>
      <trkpt lat="45.92431" lon="6.5264">
        <ele>2310.8</ele>
        <time>2012-03-04T10:10:09Z</time>
      </trkpt>
      <trkpt lat="45.92435" lon="6.52628">
        <ele>2308.1</ele>
        <time>2012-03-04T10:10:15Z</time>
      </trkpt>
      <trkpt lat="45.92436" lon="6.52617">
        <ele>2314.6</ele>
        <time>2012-03-04T10:10:27Z</time>
      </trkpt>
      <trkpt lat="45.92437" lon="6.52614">
        <ele>2314.8</ele>
        <time>2012-03-04T10:10:28Z</time>
      </trkpt>
      <trkpt lat="45.92427" lon="6.52598">
        <ele>2309.6</ele>
        <time>2012-03-04T10:10:38Z</time>
      </trkpt>
      <trkpt lat="45.92425" lon="6.52588">
        <ele>2306.5</ele>
        <time>2012-03-04T10:10:42Z</time>
      </trkpt>
      <trkpt lat="45.92417" lon="6.52587">
        <ele>2300.8</ele>
        <time>2012-03-04T10:10:47Z</time>
      </trkpt>
      <trkpt lat="45.92412" lon="6.52595">
        <ele>2298.1</ele>
        <time>2012-03-04T10:10:51Z</time>
      </trkpt>
      <trkpt lat="45.92406" lon="6.52603">
        <ele>2294.8</ele>
        <time>2012-03-04T10:10:55Z</time>
      </trkpt>
      <trkpt lat="45.92403" lon="6.52601">
        <ele>2293.8</ele>
        <time>2012-03-04T10:10:56Z</time>
      </trkpt>
      <trkpt lat="45.92398" lon="6.52596">
        <ele>2292.1</ele>
        <time>2012-03-04T10:10:57Z</time>
      </trkpt>
      <trkpt lat="45.92392" lon="6.52589">
        <ele>2290.3</ele>
        <time>2012-03-04T10:10:58Z</time>
      </trkpt>
      <trkpt lat="45.92387" lon="6.52581">
        <ele>2288.6</ele>
        <time>2012-03-04T10:10:59Z</time>
      </trkpt>
      <trkpt lat="45.92383" lon="6.52573">
        <ele>2287.1</ele>
        <time>2012-03-04T10:11:00Z</time>
      </trkpt>
      <trkpt lat="45.9238" lon="6.52563">
        <ele>2285.8</ele>
        <time>2012-03-04T10:11:01Z</time>
      </trkpt>
      <trkpt lat="45.92377" lon="6.52555">
        <ele>2284.6</ele>
        <time>2012-03-04T10:11:02Z</time>
      </trkpt>
      <trkpt lat="45.92376" lon="6.52542">
        <ele>2282.5</ele>
        <time>2012-03-04T10:11:04Z</time>
      </trkpt>
      <trkpt lat="45.92381" lon="6.52536">
        <ele>2278.1</ele>
        <time>2012-03-04T10:11:06Z</time>
      </trkpt>
      <trkpt lat="45.92382" lon="6.52529">
        <ele>2275.6</ele>
        <time>2012-03-04T10:11:07Z</time>
      </trkpt>
      <trkpt lat="45.92382" lon="6.52522">
        <ele>2273.3</ele>
        <time>2012-03-04T10:11:08Z</time>
      </trkpt>
      <trkpt lat="45.92382" lon="6.52514">
        <ele>2271</ele>
        <time>2012-03-04T10:11:09Z</time>
      </trkpt>
      <trkpt lat="45.92383" lon="6.52507">
        <ele>2268.8</ele>
        <time>2012-03-04T10:11:10Z</time>
      </trkpt>
      <trkpt lat="45.92383" lon="6.52495">
        <ele>2264.8</ele>
        <time>2012-03-04T10:11:12Z</time>
      </trkpt>
      <trkpt lat="45.92382" lon="6.52483">
        <ele>2261</ele>
        <time>2012-03-04T10:11:15Z</time>
      </trkpt>
      <trkpt lat="45.92386" lon="6.52476">
        <ele>2259.3</ele>
        <time>2012-03-04T10:11:18Z</time>
      </trkpt>
      <trkpt lat="45.92389" lon="6.52466">
        <ele>2258.8</ele>
        <time>2012-03-04T10:11:20Z</time>
      </trkpt>
      <trkpt lat="45.9239" lon="6.52454">
        <ele>2258.6</ele>
        <time>2012-03-04T10:11:22Z</time>
      </trkpt>
      <trkpt lat="45.9239" lon="6.52441">
        <ele>2259</ele>
        <time>2012-03-04T10:11:24Z</time>
      </trkpt>
      <trkpt lat="45.92397" lon="6.52436">
        <ele>2259.5</ele>
        <time>2012-03-04T10:11:26Z</time>
      </trkpt>
      <trkpt lat="45.924" lon="6.52425">
        <ele>2258.6</ele>
        <time>2012-03-04T10:11:28Z</time>
      </trkpt>
      <trkpt lat="45.92403" lon="6.5242">
        <ele>2258.3</ele>
        <time>2012-03-04T10:11:29Z</time>
      </trkpt>
      <trkpt lat="45.92408" lon="6.52415">
        <ele>2258.3</ele>
        <time>2012-03-04T10:11:30Z</time>
      </trkpt>
      <trkpt lat="45.92411" lon="6.52409">
        <ele>2258.3</ele>
        <time>2012-03-04T10:11:31Z</time>
      </trkpt>
      <trkpt lat="45.92412" lon="6.524">
        <ele>2258.1</ele>
        <time>2012-03-04T10:11:32Z</time>
      </trkpt>
      <trkpt lat="45.92415" lon="6.52391">
        <ele>2257.3</ele>
        <time>2012-03-04T10:11:33Z</time>
      </trkpt>
      <trkpt lat="45.92418" lon="6.5238">
        <ele>2256.5</ele>
        <time>2012-03-04T10:11:34Z</time>
      </trkpt>
      <trkpt lat="45.92421" lon="6.52368">
        <ele>2255.8</ele>
        <time>2012-03-04T10:11:35Z</time>
      </trkpt>
      <trkpt lat="45.92424" lon="6.52355">
        <ele>2255.5</ele>
        <time>2012-03-04T10:11:36Z</time>
      </trkpt>
      <trkpt lat="45.92426" lon="6.52342">
        <ele>2255.5</ele>
        <time>2012-03-04T10:11:37Z</time>
      </trkpt>
      <trkpt lat="45.92429" lon="6.5233">
        <ele>2255.5</ele>
        <time>2012-03-04T10:11:38Z</time>
      </trkpt>
      <trkpt lat="45.92433" lon="6.52318">
        <ele>2255.3</ele>
        <time>2012-03-04T10:11:39Z</time>
      </trkpt>
      <trkpt lat="45.92437" lon="6.52309">
        <ele>2255.5</ele>
        <time>2012-03-04T10:11:40Z</time>
      </trkpt>
      <trkpt lat="45.92439" lon="6.52299">
        <ele>2254.6</ele>
        <time>2012-03-04T10:11:41Z</time>
      </trkpt>
      <trkpt lat="45.92438" lon="6.52289">
        <ele>2253.3</ele>
        <time>2012-03-04T10:11:42Z</time>
      </trkpt>
      <trkpt lat="45.92436" lon="6.52279">
        <ele>2251.5</ele>
        <time>2012-03-04T10:11:43Z</time>
      </trkpt>
      <trkpt lat="45.92437" lon="6.52269">
        <ele>2249.6</ele>
        <time>2012-03-04T10:11:44Z</time>
      </trkpt>
      <trkpt lat="45.92438" lon="6.52258">
        <ele>2247.8</ele>
        <time>2012-03-04T10:11:45Z</time>
      </trkpt>
      <trkpt lat="45.92441" lon="6.52247">
        <ele>2246.1</ele>
        <time>2012-03-04T10:11:46Z</time>
      </trkpt>
      <trkpt lat="45.92443" lon="6.52236">
        <ele>2244.6</ele>
        <time>2012-03-04T10:11:47Z</time>
      </trkpt>
      <trkpt lat="45.92443" lon="6.52225">
        <ele>2243.3</ele>
        <time>2012-03-04T10:11:48Z</time>
      </trkpt>
      <trkpt lat="45.92443" lon="6.52213">
        <ele>2242.1</ele>
        <time>2012-03-04T10:11:49Z</time>
      </trkpt>
      <trkpt lat="45.92444" lon="6.52203">
        <ele>2241.3</ele>
        <time>2012-03-04T10:11:50Z</time>
      </trkpt>
      <trkpt lat="45.92445" lon="6.52195">
        <ele>2240.8</ele>
        <time>2012-03-04T10:11:51Z</time>
      </trkpt>
      <trkpt lat="45.92446" lon="6.52188">
        <ele>2240.1</ele>
        <time>2012-03-04T10:11:52Z</time>
      </trkpt>
      <trkpt lat="45.92445" lon="6.5218">
        <ele>2239.3</ele>
        <time>2012-03-04T10:11:53Z</time>
      </trkpt>
      <trkpt lat="45.92442" lon="6.52172">
        <ele>2238</ele>
        <time>2012-03-04T10:11:54Z</time>
      </trkpt>
      <trkpt lat="45.92441" lon="6.52164">
        <ele>2236.6</ele>
        <time>2012-03-04T10:11:55Z</time>
      </trkpt>
      <trkpt lat="45.92441" lon="6.52156">
        <ele>2235.8</ele>
        <time>2012-03-04T10:11:56Z</time>
      </trkpt>
      <trkpt lat="45.92443" lon="6.5215">
        <ele>2235.3</ele>
        <time>2012-03-04T10:11:57Z</time>
      </trkpt>
      <trkpt lat="45.92446" lon="6.52138">
        <ele>2233.6</ele>
        <time>2012-03-04T10:11:59Z</time>
      </trkpt>
      <trkpt lat="45.92448" lon="6.52131">
        <ele>2232.6</ele>
        <time>2012-03-04T10:12:00Z</time>
      </trkpt>
      <trkpt lat="45.9245" lon="6.52125">
        <ele>2231.5</ele>
        <time>2012-03-04T10:12:01Z</time>
      </trkpt>
      <trkpt lat="45.92452" lon="6.52117">
        <ele>2230.3</ele>
        <time>2012-03-04T10:12:02Z</time>
      </trkpt>
      <trkpt lat="45.92452" lon="6.52107">
        <ele>2227.6</ele>
        <time>2012-03-04T10:12:04Z</time>
      </trkpt>
      <trkpt lat="45.9245" lon="6.52098">
        <ele>2225.1</ele>
        <time>2012-03-04T10:12:06Z</time>
      </trkpt>
      <trkpt lat="45.92449" lon="6.52087">
        <ele>2222.1</ele>
        <time>2012-03-04T10:12:08Z</time>
      </trkpt>
      <trkpt lat="45.92445" lon="6.5208">
        <ele>2219.6</ele>
        <time>2012-03-04T10:12:09Z</time>
      </trkpt>
      <trkpt lat="45.92439" lon="6.5207">
        <ele>2217.3</ele>
        <time>2012-03-04T10:12:10Z</time>
      </trkpt>
      <trkpt lat="45.92435" lon="6.5206">
        <ele>2215.3</ele>
        <time>2012-03-04T10:12:11Z</time>
      </trkpt>
      <trkpt lat="45.92436" lon="6.52051">
        <ele>2214.3</ele>
        <time>2012-03-04T10:12:12Z</time>
      </trkpt>
      <trkpt lat="45.92435" lon="6.52038">
        <ele>2211.3</ele>
        <time>2012-03-04T10:12:15Z</time>
      </trkpt>
      <trkpt lat="45.92437" lon="6.52028">
        <ele>2207.1</ele>
        <time>2012-03-04T10:12:27Z</time>
      </trkpt>
      <trkpt lat="45.92441" lon="6.52017">
        <ele>2205.6</ele>
        <time>2012-03-04T10:12:29Z</time>
      </trkpt>
      <trkpt lat="45.92435" lon="6.52012">
        <ele>2203.6</ele>
        <time>2012-03-04T10:12:31Z</time>
      </trkpt>
      <trkpt lat="45.92432" lon="6.5201">
        <ele>2203.1</ele>
        <time>2012-03-04T10:12:32Z</time>
      </trkpt>
      <trkpt lat="45.92425" lon="6.51997">
        <ele>2201.3</ele>
        <time>2012-03-04T10:12:35Z</time>
      </trkpt>
      <trkpt lat="45.92423" lon="6.51986">
        <ele>2200.5</ele>
        <time>2012-03-04T10:12:38Z</time>
      </trkpt>
      <trkpt lat="45.92424" lon="6.51977">
        <ele>2200.1</ele>
        <time>2012-03-04T10:12:40Z</time>
      </trkpt>
      <trkpt lat="45.92427" lon="6.51967">
        <ele>2198.8</ele>
        <time>2012-03-04T10:12:42Z</time>
      </trkpt>
      <trkpt lat="45.92429" lon="6.51957">
        <ele>2196.6</ele>
        <time>2012-03-04T10:12:44Z</time>
      </trkpt>
      <trkpt lat="45.92426" lon="6.51947">
        <ele>2194.8</ele>
        <time>2012-03-04T10:12:47Z</time>
      </trkpt>
      <trkpt lat="45.92424" lon="6.51937">
        <ele>2192.8</ele>
        <time>2012-03-04T10:12:58Z</time>
      </trkpt>
      <trkpt lat="45.9242" lon="6.51928">
        <ele>2192.1</ele>
        <time>2012-03-04T10:13:02Z</time>
      </trkpt>
      <trkpt lat="45.92415" lon="6.5192">
        <ele>2191</ele>
        <time>2012-03-04T10:13:07Z</time>
      </trkpt>
      <trkpt lat="45.92411" lon="6.51914">
        <ele>2190.1</ele>
        <time>2012-03-04T10:13:09Z</time>
      </trkpt>
      <trkpt lat="45.92406" lon="6.51904">
        <ele>2188.8</ele>
        <time>2012-03-04T10:13:12Z</time>
      </trkpt>
      <trkpt lat="45.92401" lon="6.51897">
        <ele>2187.8</ele>
        <time>2012-03-04T10:13:14Z</time>
      </trkpt>
      <trkpt lat="45.92396" lon="6.5189">
        <ele>2186.8</ele>
        <time>2012-03-04T10:13:16Z</time>
      </trkpt>
      <trkpt lat="45.92391" lon="6.51882">
        <ele>2186.1</ele>
        <time>2012-03-04T10:13:19Z</time>
      </trkpt>
      <trkpt lat="45.92388" lon="6.51875">
        <ele>2185.1</ele>
        <time>2012-03-04T10:13:21Z</time>
      </trkpt>
      <trkpt lat="45.92383" lon="6.51865">
        <ele>2183.6</ele>
        <time>2012-03-04T10:13:23Z</time>
      </trkpt>
      <trkpt lat="45.92378" lon="6.51857">
        <ele>2182.5</ele>
        <time>2012-03-04T10:13:25Z</time>
      </trkpt>
      <trkpt lat="45.92374" lon="6.51849">
        <ele>2181</ele>
        <time>2012-03-04T10:13:27Z</time>
      </trkpt>
      <trkpt lat="45.9237" lon="6.51838">
        <ele>2177.8</ele>
        <time>2012-03-04T10:13:31Z</time>
      </trkpt>
      <trkpt lat="45.92368" lon="6.5183">
        <ele>2177.1</ele>
        <time>2012-03-04T10:13:33Z</time>
      </trkpt>
      <trkpt lat="45.92369" lon="6.51824">
        <ele>2176.5</ele>
        <time>2012-03-04T10:13:34Z</time>
      </trkpt>
      <trkpt lat="45.92372" lon="6.51807">
        <ele>2171.5</ele>
        <time>2012-03-04T10:13:40Z</time>
      </trkpt>
      <trkpt lat="45.92371" lon="6.51795">
        <ele>2169.8</ele>
        <time>2012-03-04T10:13:51Z</time>
      </trkpt>
      <trkpt lat="45.92371" lon="6.51784">
        <ele>2166.3</ele>
        <time>2012-03-04T10:13:55Z</time>
      </trkpt>
      <trkpt lat="45.92369" lon="6.51774">
        <ele>2164.6</ele>
        <time>2012-03-04T10:13:58Z</time>
      </trkpt>
      <trkpt lat="45.92366" lon="6.51765">
        <ele>2163.3</ele>
        <time>2012-03-04T10:14:00Z</time>
      </trkpt>
      <trkpt lat="45.92363" lon="6.51755">
        <ele>2161.6</ele>
        <time>2012-03-04T10:14:02Z</time>
      </trkpt>
      <trkpt lat="45.92362" lon="6.51748">
        <ele>2160.8</ele>
        <time>2012-03-04T10:14:03Z</time>
      </trkpt>
      <trkpt lat="45.92363" lon="6.51742">
        <ele>2160</ele>
        <time>2012-03-04T10:14:04Z</time>
      </trkpt>
      <trkpt lat="45.92367" lon="6.51737">
        <ele>2158.6</ele>
        <time>2012-03-04T10:14:05Z</time>
      </trkpt>
      <trkpt lat="45.9237" lon="6.5173">
        <ele>2156.8</ele>
        <time>2012-03-04T10:14:06Z</time>
      </trkpt>
      <trkpt lat="45.92375" lon="6.51722">
        <ele>2155.1</ele>
        <time>2012-03-04T10:14:07Z</time>
      </trkpt>
      <trkpt lat="45.92378" lon="6.51713">
        <ele>2153.6</ele>
        <time>2012-03-04T10:14:08Z</time>
      </trkpt>
      <trkpt lat="45.92379" lon="6.51703">
        <ele>2152.8</ele>
        <time>2012-03-04T10:14:09Z</time>
      </trkpt>
      <trkpt lat="45.9238" lon="6.51695">
        <ele>2151</ele>
        <time>2012-03-04T10:14:10Z</time>
      </trkpt>
      <trkpt lat="45.92384" lon="6.51685">
        <ele>2148.5</ele>
        <time>2012-03-04T10:14:12Z</time>
      </trkpt>
      <trkpt lat="45.92382" lon="6.51673">
        <ele>2147.6</ele>
        <time>2012-03-04T10:14:23Z</time>
      </trkpt>
      <trkpt lat="45.9238" lon="6.51666">
        <ele>2147.5</ele>
        <time>2012-03-04T10:14:25Z</time>
      </trkpt>
      <trkpt lat="45.92378" lon="6.51656">
        <ele>2147.3</ele>
        <time>2012-03-04T10:14:27Z</time>
      </trkpt>
      <trkpt lat="45.92377" lon="6.51645">
        <ele>2145.6</ele>
        <time>2012-03-04T10:14:29Z</time>
      </trkpt>
      <trkpt lat="45.9238" lon="6.51635">
        <ele>2143.8</ele>
        <time>2012-03-04T10:14:31Z</time>
      </trkpt>
      <trkpt lat="45.92382" lon="6.51628">
        <ele>2142.8</ele>
        <time>2012-03-04T10:14:32Z</time>
      </trkpt>
      <trkpt lat="45.92384" lon="6.5162">
        <ele>2142.5</ele>
        <time>2012-03-04T10:14:33Z</time>
      </trkpt>
      <trkpt lat="45.92386" lon="6.51612">
        <ele>2142.3</ele>
        <time>2012-03-04T10:14:34Z</time>
      </trkpt>
      <trkpt lat="45.92389" lon="6.51608">
        <ele>2141.3</ele>
        <time>2012-03-04T10:14:35Z</time>
      </trkpt>
      <trkpt lat="45.92394" lon="6.51604">
        <ele>2140.5</ele>
        <time>2012-03-04T10:14:36Z</time>
      </trkpt>
      <trkpt lat="45.924" lon="6.516">
        <ele>2140.1</ele>
        <time>2012-03-04T10:14:37Z</time>
      </trkpt>
      <trkpt lat="45.92405" lon="6.51595">
        <ele>2140</ele>
        <time>2012-03-04T10:14:38Z</time>
      </trkpt>
      <trkpt lat="45.92409" lon="6.51592">
        <ele>2139.8</ele>
        <time>2012-03-04T10:14:39Z</time>
      </trkpt>
      <trkpt lat="45.92417" lon="6.51587">
        <ele>2138.6</ele>
        <time>2012-03-04T10:14:41Z</time>
      </trkpt>
      <trkpt lat="45.92422" lon="6.51582">
        <ele>2136.6</ele>
        <time>2012-03-04T10:14:43Z</time>
      </trkpt>
      <trkpt lat="45.92429" lon="6.51575">
        <ele>2129.8</ele>
        <time>2012-03-04T10:14:50Z</time>
      </trkpt>
      <trkpt lat="45.92437" lon="6.51569">
        <ele>2122.3</ele>
        <time>2012-03-04T10:14:58Z</time>
      </trkpt>
      <trkpt lat="45.92443" lon="6.51571">
        <ele>2120.8</ele>
        <time>2012-03-04T10:15:00Z</time>
      </trkpt>
      <trkpt lat="45.92451" lon="6.51572">
        <ele>2119.5</ele>
        <time>2012-03-04T10:15:02Z</time>
      </trkpt>
      <trkpt lat="45.92459" lon="6.51575">
        <ele>2118.3</ele>
        <time>2012-03-04T10:15:04Z</time>
      </trkpt>
      <trkpt lat="45.92463" lon="6.51581">
        <ele>2116.6</ele>
        <time>2012-03-04T10:15:05Z</time>
      </trkpt>
      <trkpt lat="45.92467" lon="6.51582">
        <ele>2115.1</ele>
        <time>2012-03-04T10:15:06Z</time>
      </trkpt>
      <trkpt lat="45.92472" lon="6.51584">
        <ele>2113.3</ele>
        <time>2012-03-04T10:15:07Z</time>
      </trkpt>
      <trkpt lat="45.9248" lon="6.51586">
        <ele>2109.8</ele>
        <time>2012-03-04T10:15:09Z</time>
      </trkpt>
      <trkpt lat="45.92487" lon="6.51581">
        <ele>2106.6</ele>
        <time>2012-03-04T10:15:12Z</time>
      </trkpt>
      <trkpt lat="45.92495" lon="6.51585">
        <ele>2100.8</ele>
        <time>2012-03-04T10:15:15Z</time>
      </trkpt>
      <trkpt lat="45.92502" lon="6.5158">
        <ele>2094.5</ele>
        <time>2012-03-04T10:15:18Z</time>
      </trkpt>
      <trkpt lat="45.92506" lon="6.5157">
        <ele>2078.1</ele>
        <time>2012-03-04T10:15:39Z</time>
      </trkpt>
      <trkpt lat="45.92507" lon="6.51569">
        <ele>2077.5</ele>
        <time>2012-03-04T10:15:40Z</time>
      </trkpt>
      <trkpt lat="45.92522" lon="6.51571">
        <ele>2070.3</ele>
        <time>2012-03-04T10:15:48Z</time>
      </trkpt>
      <trkpt lat="45.92527" lon="6.51577">
        <ele>2067</ele>
        <time>2012-03-04T10:15:50Z</time>
      </trkpt>
      <trkpt lat="45.92534" lon="6.51577">
        <ele>2063.6</ele>
        <time>2012-03-04T10:15:52Z</time>
      </trkpt>
      <trkpt lat="45.92541" lon="6.51582">
        <ele>2060.1</ele>
        <time>2012-03-04T10:15:54Z</time>
      </trkpt>
      <trkpt lat="45.92548" lon="6.51581">
        <ele>2056.5</ele>
        <time>2012-03-04T10:15:56Z</time>
      </trkpt>
      <trkpt lat="45.92555" lon="6.51583">
        <ele>2053.8</ele>
        <time>2012-03-04T10:15:58Z</time>
      </trkpt>
      <trkpt lat="45.92559" lon="6.51575">
        <ele>2054</ele>
        <time>2012-03-04T10:16:00Z</time>
      </trkpt>
      <trkpt lat="45.92567" lon="6.51572">
        <ele>2052.8</ele>
        <time>2012-03-04T10:16:02Z</time>
      </trkpt>
      <trkpt lat="45.92569" lon="6.5156">
        <ele>2052.8</ele>
        <time>2012-03-04T10:16:05Z</time>
      </trkpt>
      <trkpt lat="45.92577" lon="6.51565">
        <ele>2047.1</ele>
        <time>2012-03-04T10:16:17Z</time>
      </trkpt>
      <trkpt lat="45.9258" lon="6.51554">
        <ele>2025.9</ele>
        <time>2012-03-04T10:17:36Z</time>
      </trkpt>
      <trkpt lat="45.9258" lon="6.51549">
        <ele>2024.9</ele>
        <time>2012-03-04T10:17:37Z</time>
      </trkpt>
      <trkpt lat="45.92586" lon="6.51546">
        <ele>2015</ele>
        <time>2012-03-04T10:17:44Z</time>
      </trkpt>
      <trkpt lat="45.92594" lon="6.51546">
        <ele>2012.8</ele>
        <time>2012-03-04T10:17:47Z</time>
      </trkpt>
      <trkpt lat="45.92598" lon="6.51551">
        <ele>2011.5</ele>
        <time>2012-03-04T10:17:49Z</time>
      </trkpt>
      <trkpt lat="45.92606" lon="6.51551">
        <ele>2009.6</ele>
        <time>2012-03-04T10:17:52Z</time>
      </trkpt>
      <trkpt lat="45.92612" lon="6.51551">
        <ele>2007.6</ele>
        <time>2012-03-04T10:17:54Z</time>
      </trkpt>
      <trkpt lat="45.92619" lon="6.51545">
        <ele>2003.8</ele>
        <time>2012-03-04T10:17:57Z</time>
      </trkpt>
      <trkpt lat="45.92626" lon="6.51544">
        <ele>2001</ele>
        <time>2012-03-04T10:17:59Z</time>
      </trkpt>
      <trkpt lat="45.92632" lon="6.51535">
        <ele>1996.3</ele>
        <time>2012-03-04T10:18:02Z</time>
      </trkpt>
      <trkpt lat="45.9264" lon="6.51532">
        <ele>1992.6</ele>
        <time>2012-03-04T10:18:05Z</time>
      </trkpt>
      <trkpt lat="45.92641" lon="6.5152">
        <ele>1990</ele>
        <time>2012-03-04T10:18:07Z</time>
      </trkpt>
      <trkpt lat="45.92647" lon="6.51515">
        <ele>1987.5</ele>
        <time>2012-03-04T10:18:09Z</time>
      </trkpt>
      <trkpt lat="45.92656" lon="6.51513">
        <ele>1980.6</ele>
        <time>2012-03-04T10:18:13Z</time>
      </trkpt>
      <trkpt lat="45.9266" lon="6.51501">
        <ele>1973.9</ele>
        <time>2012-03-04T10:18:21Z</time>
      </trkpt>
      <trkpt lat="45.92652" lon="6.51497">
        <ele>1961</ele>
        <time>2012-03-04T10:18:29Z</time>
      </trkpt>
      <trkpt lat="45.92657" lon="6.51488">
        <ele>1957.3</ele>
        <time>2012-03-04T10:18:35Z</time>
      </trkpt>
      <trkpt lat="45.92663" lon="6.51491">
        <ele>1956.8</ele>
        <time>2012-03-04T10:18:37Z</time>
      </trkpt>
      <trkpt lat="45.92667" lon="6.51492">
        <ele>1956.5</ele>
        <time>2012-03-04T10:18:38Z</time>
      </trkpt>
      <trkpt lat="45.92672" lon="6.51482">
        <ele>1954.6</ele>
        <time>2012-03-04T10:18:41Z</time>
      </trkpt>
      <trkpt lat="45.92668" lon="6.51472">
        <ele>1952.5</ele>
        <time>2012-03-04T10:18:43Z</time>
      </trkpt>
      <trkpt lat="45.92672" lon="6.51464">
        <ele>1949.5</ele>
        <time>2012-03-04T10:18:45Z</time>
      </trkpt>
      <trkpt lat="45.9268" lon="6.51463">
        <ele>1947.5</ele>
        <time>2012-03-04T10:18:47Z</time>
      </trkpt>
      <trkpt lat="45.92684" lon="6.51459">
        <ele>1946</ele>
        <time>2012-03-04T10:18:48Z</time>
      </trkpt>
      <trkpt lat="45.92688" lon="6.51455">
        <ele>1944.9</ele>
        <time>2012-03-04T10:18:49Z</time>
      </trkpt>
      <trkpt lat="45.92693" lon="6.51455">
        <ele>1943.9</ele>
        <time>2012-03-04T10:18:50Z</time>
      </trkpt>
      <trkpt lat="45.92701" lon="6.51449">
        <ele>1943</ele>
        <time>2012-03-04T10:18:52Z</time>
      </trkpt>
      <trkpt lat="45.92701" lon="6.51438">
        <ele>1941.6</ele>
        <time>2012-03-04T10:18:56Z</time>
      </trkpt>
      <trkpt lat="45.927" lon="6.51432">
        <ele>1941.3</ele>
        <time>2012-03-04T10:18:57Z</time>
      </trkpt>
      <trkpt lat="45.92701" lon="6.5142">
        <ele>1940.5</ele>
        <time>2012-03-04T10:18:59Z</time>
      </trkpt>
      <trkpt lat="45.92707" lon="6.51412">
        <ele>1938.3</ele>
        <time>2012-03-04T10:19:01Z</time>
      </trkpt>
      <trkpt lat="45.92712" lon="6.51403">
        <ele>1936.6</ele>
        <time>2012-03-04T10:19:03Z</time>
      </trkpt>
      <trkpt lat="45.92719" lon="6.51398">
        <ele>1934.1</ele>
        <time>2012-03-04T10:19:05Z</time>
      </trkpt>
      <trkpt lat="45.92726" lon="6.51396">
        <ele>1931.3</ele>
        <time>2012-03-04T10:19:07Z</time>
      </trkpt>
      <trkpt lat="45.92735" lon="6.51396">
        <ele>1928</ele>
        <time>2012-03-04T10:19:09Z</time>
      </trkpt>
      <trkpt lat="45.92741" lon="6.51388">
        <ele>1924.9</ele>
        <time>2012-03-04T10:19:11Z</time>
      </trkpt>
      <trkpt lat="45.92746" lon="6.51389">
        <ele>1923.1</ele>
        <time>2012-03-04T10:19:12Z</time>
      </trkpt>
      <trkpt lat="45.92751" lon="6.51392">
        <ele>1921.5</ele>
        <time>2012-03-04T10:19:13Z</time>
      </trkpt>
      <trkpt lat="45.92756" lon="6.51394">
        <ele>1919.1</ele>
        <time>2012-03-04T10:19:14Z</time>
      </trkpt>
      <trkpt lat="45.92761" lon="6.5139">
        <ele>1917.4</ele>
        <time>2012-03-04T10:19:15Z</time>
      </trkpt>
      <trkpt lat="45.92763" lon="6.51384">
        <ele>1915.4</ele>
        <time>2012-03-04T10:19:16Z</time>
      </trkpt>
      <trkpt lat="45.9277" lon="6.51381">
        <ele>1912.4</ele>
        <time>2012-03-04T10:19:18Z</time>
      </trkpt>
      <trkpt lat="45.92778" lon="6.51385">
        <ele>1911.4</ele>
        <time>2012-03-04T10:19:32Z</time>
      </trkpt>
      <trkpt lat="45.92785" lon="6.51383">
        <ele>1911.1</ele>
        <time>2012-03-04T10:19:43Z</time>
      </trkpt>
      <trkpt lat="45.92786" lon="6.51379">
        <ele>1909.9</ele>
        <time>2012-03-04T10:19:44Z</time>
      </trkpt>
      <trkpt lat="45.9278" lon="6.51363">
        <ele>1906</ele>
        <time>2012-03-04T10:19:49Z</time>
      </trkpt>
      <trkpt lat="45.92783" lon="6.51353">
        <ele>1902.9</ele>
        <time>2012-03-04T10:19:54Z</time>
      </trkpt>
      <trkpt lat="45.9279" lon="6.51354">
        <ele>1901.5</ele>
        <time>2012-03-04T10:19:56Z</time>
      </trkpt>
      <trkpt lat="45.92795" lon="6.51353">
        <ele>1900</ele>
        <time>2012-03-04T10:19:57Z</time>
      </trkpt>
      <trkpt lat="45.92797" lon="6.51341">
        <ele>1897.3</ele>
        <time>2012-03-04T10:19:59Z</time>
      </trkpt>
      <trkpt lat="45.928" lon="6.5133">
        <ele>1893.5</ele>
        <time>2012-03-04T10:20:02Z</time>
      </trkpt>
      <trkpt lat="45.92794" lon="6.51321">
        <ele>1889.8</ele>
        <time>2012-03-04T10:20:06Z</time>
      </trkpt>
      <trkpt lat="45.92789" lon="6.51314">
        <ele>1889.4</ele>
        <time>2012-03-04T10:20:08Z</time>
      </trkpt>
      <trkpt lat="45.92786" lon="6.51306">
        <ele>1888.8</ele>
        <time>2012-03-04T10:20:11Z</time>
      </trkpt>
      <trkpt lat="45.92784" lon="6.51298">
        <ele>1887.4</ele>
        <time>2012-03-04T10:20:13Z</time>
      </trkpt>
      <trkpt lat="45.92781" lon="6.51291">
        <ele>1886.6</ele>
        <time>2012-03-04T10:20:14Z</time>
      </trkpt>
      <trkpt lat="45.9278" lon="6.51281">
        <ele>1884.6</ele>
        <time>2012-03-04T10:20:16Z</time>
      </trkpt>
      <trkpt lat="45.92783" lon="6.51271">
        <ele>1882</ele>
        <time>2012-03-04T10:20:18Z</time>
      </trkpt>
      <trkpt lat="45.92787" lon="6.51264">
        <ele>1879.8</ele>
        <time>2012-03-04T10:20:20Z</time>
      </trkpt>
      <trkpt lat="45.92792" lon="6.51254">
        <ele>1877.1</ele>
        <time>2012-03-04T10:20:22Z</time>
      </trkpt>
      <trkpt lat="45.92795" lon="6.51248">
        <ele>1875.8</ele>
        <time>2012-03-04T10:20:23Z</time>
      </trkpt>
      <trkpt lat="45.92798" lon="6.51236">
        <ele>1873.4</ele>
        <time>2012-03-04T10:20:25Z</time>
      </trkpt>
      <trkpt lat="45.92806" lon="6.51238">
        <ele>1871</ele>
        <time>2012-03-04T10:20:28Z</time>
      </trkpt>
      <trkpt lat="45.92813" lon="6.51232">
        <ele>1866</ele>
        <time>2012-03-04T10:20:32Z</time>
      </trkpt>
      <trkpt lat="45.9281" lon="6.51223">
        <ele>1864.1</ele>
        <time>2012-03-04T10:20:34Z</time>
      </trkpt>
      <trkpt lat="45.92807" lon="6.51212">
        <ele>1863</ele>
        <time>2012-03-04T10:20:36Z</time>
      </trkpt>
      <trkpt lat="45.92805" lon="6.51204">
        <ele>1861.9</ele>
        <time>2012-03-04T10:20:38Z</time>
      </trkpt>
      <trkpt lat="45.92802" lon="6.51195">
        <ele>1860.6</ele>
        <time>2012-03-04T10:20:40Z</time>
      </trkpt>
      <trkpt lat="45.92799" lon="6.51185">
        <ele>1859</ele>
        <time>2012-03-04T10:20:42Z</time>
      </trkpt>
      <trkpt lat="45.92795" lon="6.51176">
        <ele>1856</ele>
        <time>2012-03-04T10:20:44Z</time>
      </trkpt>
      <trkpt lat="45.92793" lon="6.51171">
        <ele>1854.1</ele>
        <time>2012-03-04T10:20:45Z</time>
      </trkpt>
      <trkpt lat="45.92787" lon="6.51156">
        <ele>1845.1</ele>
        <time>2012-03-04T10:20:50Z</time>
      </trkpt>
      <trkpt lat="45.92785" lon="6.51146">
        <ele>1840</ele>
        <time>2012-03-04T10:20:53Z</time>
      </trkpt>
      <trkpt lat="45.92786" lon="6.51135">
        <ele>1835</ele>
        <time>2012-03-04T10:20:56Z</time>
      </trkpt>
      <trkpt lat="45.92787" lon="6.51123">
        <ele>1832.3</ele>
        <time>2012-03-04T10:20:58Z</time>
      </trkpt>
      <trkpt lat="45.9279" lon="6.51112">
        <ele>1830</ele>
        <time>2012-03-04T10:21:06Z</time>
      </trkpt>
      <trkpt lat="45.92795" lon="6.5112">
        <ele>1805.9</ele>
        <time>2012-03-04T10:21:25Z</time>
      </trkpt>
      <trkpt lat="45.928" lon="6.51126">
        <ele>1803.9</ele>
        <time>2012-03-04T10:21:27Z</time>
      </trkpt>
      <trkpt lat="45.92806" lon="6.51118">
        <ele>1802.5</ele>
        <time>2012-03-04T10:21:29Z</time>
      </trkpt>
      <trkpt lat="45.92807" lon="6.51111">
        <ele>1802.5</ele>
        <time>2012-03-04T10:21:30Z</time>
      </trkpt>
      <trkpt lat="45.92808" lon="6.51104">
        <ele>1802.5</ele>
        <time>2012-03-04T10:21:31Z</time>
      </trkpt>
      <trkpt lat="45.92808" lon="6.51097">
        <ele>1802.3</ele>
        <time>2012-03-04T10:21:32Z</time>
      </trkpt>
      <trkpt lat="45.9281" lon="6.51085">
        <ele>1801.8</ele>
        <time>2012-03-04T10:21:34Z</time>
      </trkpt>
      <trkpt lat="45.92812" lon="6.51078">
        <ele>1801</ele>
        <time>2012-03-04T10:21:35Z</time>
      </trkpt>
      <trkpt lat="45.92815" lon="6.51069">
        <ele>1800.3</ele>
        <time>2012-03-04T10:21:36Z</time>
      </trkpt>
      <trkpt lat="45.92818" lon="6.51058">
        <ele>1799.6</ele>
        <time>2012-03-04T10:21:37Z</time>
      </trkpt>
      <trkpt lat="45.92821" lon="6.51047">
        <ele>1799.3</ele>
        <time>2012-03-04T10:21:38Z</time>
      </trkpt>
      <trkpt lat="45.92824" lon="6.51037">
        <ele>1799</ele>
        <time>2012-03-04T10:21:39Z</time>
      </trkpt>
      <trkpt lat="45.92827" lon="6.51026">
        <ele>1798.6</ele>
        <time>2012-03-04T10:21:40Z</time>
      </trkpt>
      <trkpt lat="45.9283" lon="6.51016">
        <ele>1798.5</ele>
        <time>2012-03-04T10:21:41Z</time>
      </trkpt>
      <trkpt lat="45.92833" lon="6.51007">
        <ele>1798.1</ele>
        <time>2012-03-04T10:21:42Z</time>
      </trkpt>
      <trkpt lat="45.92835" lon="6.51">
        <ele>1798</ele>
        <time>2012-03-04T10:21:43Z</time>
      </trkpt>
      <trkpt lat="45.92839" lon="6.50991">
        <ele>1797.5</ele>
        <time>2012-03-04T10:21:45Z</time>
      </trkpt>
      <trkpt lat="45.92841" lon="6.50987">
        <ele>1797.1</ele>
        <time>2012-03-04T10:21:46Z</time>
      </trkpt>
      <trkpt lat="45.92845" lon="6.5097">
        <ele>1795</ele>
        <time>2012-03-04T10:21:49Z</time>
      </trkpt>
      <trkpt lat="45.92845" lon="6.5096">
        <ele>1794.5</ele>
        <time>2012-03-04T10:21:51Z</time>
      </trkpt>
      <trkpt lat="45.92853" lon="6.50954">
        <ele>1792.9</ele>
        <time>2012-03-04T10:21:54Z</time>
      </trkpt>
      <trkpt lat="45.92855" lon="6.5095">
        <ele>1791.3</ele>
        <time>2012-03-04T10:21:55Z</time>
      </trkpt>
      <trkpt lat="45.92857" lon="6.50943">
        <ele>1789.8</ele>
        <time>2012-03-04T10:21:56Z</time>
      </trkpt>
      <trkpt lat="45.92858" lon="6.50934">
        <ele>1788.5</ele>
        <time>2012-03-04T10:21:57Z</time>
      </trkpt>
      <trkpt lat="45.92859" lon="6.50925">
        <ele>1787.6</ele>
        <time>2012-03-04T10:21:58Z</time>
      </trkpt>
      <trkpt lat="45.9286" lon="6.50918">
        <ele>1787.3</ele>
        <time>2012-03-04T10:21:59Z</time>
      </trkpt>
      <trkpt lat="45.92861" lon="6.50911">
        <ele>1786.9</ele>
        <time>2012-03-04T10:22:00Z</time>
      </trkpt>
      <trkpt lat="45.92862" lon="6.50905">
        <ele>1786.5</ele>
        <time>2012-03-04T10:22:01Z</time>
      </trkpt>
      <trkpt lat="45.92864" lon="6.50898">
        <ele>1786.3</ele>
        <time>2012-03-04T10:22:02Z</time>
      </trkpt>
      <trkpt lat="45.92865" lon="6.50891">
        <ele>1786</ele>
        <time>2012-03-04T10:22:03Z</time>
      </trkpt>
      <trkpt lat="45.92867" lon="6.5088">
        <ele>1786.4</ele>
        <time>2012-03-04T10:22:05Z</time>
      </trkpt>
      <trkpt lat="45.9287" lon="6.50868">
        <ele>1789.3</ele>
        <time>2012-03-04T10:22:12Z</time>
      </trkpt>
      <trkpt lat="45.92873" lon="6.50858">
        <ele>1797</ele>
        <time>2012-03-04T10:22:24Z</time>
      </trkpt>
      <trkpt lat="45.9287" lon="6.50847">
        <ele>1797.8</ele>
        <time>2012-03-04T10:22:28Z</time>
      </trkpt>
      <trkpt lat="45.92873" lon="6.50837">
        <ele>1796.5</ele>
        <time>2012-03-04T10:22:32Z</time>
      </trkpt>
      <trkpt lat="45.92878" lon="6.50828">
        <ele>1792</ele>
        <time>2012-03-04T10:22:35Z</time>
      </trkpt>
      <trkpt lat="45.9288" lon="6.50817">
        <ele>1787</ele>
        <time>2012-03-04T10:22:38Z</time>
      </trkpt>
      <trkpt lat="45.92881" lon="6.50805">
        <ele>1782.1</ele>
        <time>2012-03-04T10:22:40Z</time>
      </trkpt>
      <trkpt lat="45.92886" lon="6.50796">
        <ele>1776.6</ele>
        <time>2012-03-04T10:22:42Z</time>
      </trkpt>
      <trkpt lat="45.92887" lon="6.50786">
        <ele>1774.3</ele>
        <time>2012-03-04T10:22:51Z</time>
      </trkpt>
      <trkpt lat="45.92889" lon="6.50783">
        <ele>1773.6</ele>
        <time>2012-03-04T10:22:52Z</time>
      </trkpt>
      <trkpt lat="45.929" lon="6.50788">
        <ele>1771</ele>
        <time>2012-03-04T10:22:55Z</time>
      </trkpt>
      <trkpt lat="45.92907" lon="6.50793">
        <ele>1765</ele>
        <time>2012-03-04T10:23:05Z</time>
      </trkpt>
      <trkpt lat="45.9291" lon="6.50783">
        <ele>1762</ele>
        <time>2012-03-04T10:23:08Z</time>
      </trkpt>
      <trkpt lat="45.92916" lon="6.50783">
        <ele>1758.1</ele>
        <time>2012-03-04T10:23:11Z</time>
      </trkpt>
      <trkpt lat="45.92921" lon="6.50775">
        <ele>1753.4</ele>
        <time>2012-03-04T10:23:14Z</time>
      </trkpt>
      <trkpt lat="45.92929" lon="6.50773">
        <ele>1749.5</ele>
        <time>2012-03-04T10:23:17Z</time>
      </trkpt>
      <trkpt lat="45.92937" lon="6.50768">
        <ele>1743.3</ele>
        <time>2012-03-04T10:23:23Z</time>
      </trkpt>
      <trkpt lat="45.92936" lon="6.50756">
        <ele>1740.8</ele>
        <time>2012-03-04T10:23:27Z</time>
      </trkpt>
      <trkpt lat="45.9294" lon="6.50745">
        <ele>1738.9</ele>
        <time>2012-03-04T10:23:46Z</time>
      </trkpt>
      <trkpt lat="45.92947" lon="6.50739">
        <ele>1735.5</ele>
        <time>2012-03-04T10:23:49Z</time>
      </trkpt>
      <trkpt lat="45.92943" lon="6.50729">
        <ele>1732.3</ele>
        <time>2012-03-04T10:23:52Z</time>
      </trkpt>
      <trkpt lat="45.92942" lon="6.50726">
        <ele>1731.5</ele>
        <time>2012-03-04T10:23:53Z</time>
      </trkpt>
      <trkpt lat="45.92933" lon="6.50713">
        <ele>1728.4</ele>
        <time>2012-03-04T10:23:58Z</time>
      </trkpt>
      <trkpt lat="45.92939" lon="6.50704">
        <ele>1722.6</ele>
        <time>2012-03-04T10:24:01Z</time>
      </trkpt>
      <trkpt lat="45.92935" lon="6.50694">
        <ele>1717.3</ele>
        <time>2012-03-04T10:24:04Z</time>
      </trkpt>
      <trkpt lat="45.9293" lon="6.50683">
        <ele>1714.5</ele>
        <time>2012-03-04T10:24:07Z</time>
      </trkpt>
      <trkpt lat="45.92927" lon="6.50671">
        <ele>1712.3</ele>
        <time>2012-03-04T10:24:09Z</time>
      </trkpt>
      <trkpt lat="45.92926" lon="6.5066">
        <ele>1710.5</ele>
        <time>2012-03-04T10:24:12Z</time>
      </trkpt>
      <trkpt lat="45.92927" lon="6.5065">
        <ele>1707.9</ele>
        <time>2012-03-04T10:24:14Z</time>
      </trkpt>
      <trkpt lat="45.92923" lon="6.50639">
        <ele>1705.3</ele>
        <time>2012-03-04T10:24:16Z</time>
      </trkpt>
      <trkpt lat="45.92919" lon="6.50628">
        <ele>1703.5</ele>
        <time>2012-03-04T10:24:18Z</time>
      </trkpt>
      <trkpt lat="45.92917" lon="6.50618">
        <ele>1701.8</ele>
        <time>2012-03-04T10:24:20Z</time>
      </trkpt>
      <trkpt lat="45.92917" lon="6.50609">
        <ele>1699.9</ele>
        <time>2012-03-04T10:24:22Z</time>
      </trkpt>
      <trkpt lat="45.92918" lon="6.50598">
        <ele>1698.6</ele>
        <time>2012-03-04T10:24:24Z</time>
      </trkpt>
      <trkpt lat="45.92918" lon="6.50586">
        <ele>1697.8</ele>
        <time>2012-03-04T10:24:27Z</time>
      </trkpt>
      <trkpt lat="45.92918" lon="6.50573">
        <ele>1697</ele>
        <time>2012-03-04T10:24:31Z</time>
      </trkpt>
      <trkpt lat="45.92919" lon="6.50562">
        <ele>1694.9</ele>
        <time>2012-03-04T10:24:34Z</time>
      </trkpt>
      <trkpt lat="45.92917" lon="6.5055">
        <ele>1694</ele>
        <time>2012-03-04T10:24:43Z</time>
      </trkpt>
      <trkpt lat="45.92914" lon="6.50537">
        <ele>1692.3</ele>
        <time>2012-03-04T10:24:48Z</time>
      </trkpt>
      <trkpt lat="45.92909" lon="6.50527">
        <ele>1690</ele>
        <time>2012-03-04T10:24:53Z</time>
      </trkpt>
      <trkpt lat="45.92908" lon="6.50526">
        <ele>1689.8</ele>
        <time>2012-03-04T10:24:54Z</time>
      </trkpt>
      <trkpt lat="45.92902" lon="6.50513">
        <ele>1684.3</ele>
        <time>2012-03-04T10:25:03Z</time>
      </trkpt>
      <trkpt lat="45.92897" lon="6.50503">
        <ele>1683</ele>
        <time>2012-03-04T10:25:06Z</time>
      </trkpt>
      <trkpt lat="45.92888" lon="6.505">
        <ele>1680.3</ele>
        <time>2012-03-04T10:25:31Z</time>
      </trkpt>
      <trkpt lat="45.92895" lon="6.50506">
        <ele>1669.1</ele>
        <time>2012-03-04T10:26:45Z</time>
      </trkpt>
      <trkpt lat="45.92896" lon="6.50507">
        <ele>1668.8</ele>
        <time>2012-03-04T10:26:46Z</time>
      </trkpt>
      <trkpt lat="45.92912" lon="6.50505">
        <ele>1668.9</ele>
        <time>2012-03-04T10:27:19Z</time>
      </trkpt>
      <trkpt lat="45.92908" lon="6.50494">
        <ele>1675</ele>
        <time>2012-03-04T10:31:14Z</time>
      </trkpt>
      <trkpt lat="45.92908" lon="6.50493">
        <ele>1675.3</ele>
        <time>2012-03-04T10:31:15Z</time>
      </trkpt>
      <trkpt lat="45.92916" lon="6.50487">
        <ele>1693.5</ele>
        <time>2012-03-04T10:33:10Z</time>
      </trkpt>
      <trkpt lat="45.92913" lon="6.50479">
        <ele>1686.9</ele>
        <time>2012-03-04T10:35:12Z</time>
      </trkpt>
      <trkpt lat="45.92913" lon="6.50479">
        <ele>1686.5</ele>
        <time>2012-03-04T10:35:13Z</time>
      </trkpt>
      <trkpt lat="45.92917" lon="6.50487">
        <ele>1684.3</ele>
        <time>2012-03-04T10:41:12Z</time>
      </trkpt>
      <trkpt lat="45.92918" lon="6.50488">
        <ele>1683.8</ele>
        <time>2012-03-04T10:41:13Z</time>
      </trkpt>
      <trkpt lat="45.92916" lon="6.50491">
        <ele>1651</ele>
        <time>2012-03-04T10:42:22Z</time>
      </trkpt>
      <trkpt lat="45.92914" lon="6.50492">
        <ele>1644.5</ele>
        <time>2012-03-04T10:42:23Z</time>
      </trkpt>
      <trkpt lat="45.92917" lon="6.50491">
        <ele>1666.4</ele>
        <time>2012-03-04T10:43:14Z</time>
      </trkpt>
      <trkpt lat="45.92925" lon="6.50494">
        <ele>1663</ele>
        <time>2012-03-04T10:43:31Z</time>
      </trkpt>
      <trkpt lat="45.92926" lon="6.50494">
        <ele>1664.5</ele>
        <time>2012-03-04T10:43:32Z</time>
      </trkpt>
      <trkpt lat="45.92914" lon="6.5048">
        <ele>1680.9</ele>
        <time>2012-03-04T10:43:48Z</time>
      </trkpt>
      <trkpt lat="45.92906" lon="6.50485">
        <ele>1670</ele>
        <time>2012-03-04T10:44:02Z</time>
      </trkpt>
      <trkpt lat="45.92911" lon="6.50496">
        <ele>1671</ele>
        <time>2012-03-04T10:44:36Z</time>
      </trkpt>
      <trkpt lat="45.92911" lon="6.50496">
        <ele>1671.6</ele>
        <time>2012-03-04T10:44:37Z</time>
      </trkpt>
      <trkpt lat="45.92918" lon="6.50505">
        <ele>1675.3</ele>
        <time>2012-03-04T10:48:02Z</time>
      </trkpt>
      <trkpt lat="45.92909" lon="6.50499">
        <ele>1679.8</ele>
        <time>2012-03-04T10:50:46Z</time>
      </trkpt>
      <trkpt lat="45.92902" lon="6.50489">
        <ele>1678.5</ele>
        <time>2012-03-04T10:52:25Z</time>
      </trkpt>
      <trkpt lat="45.92889" lon="6.50479">
        <ele>1674.8</ele>
        <time>2012-03-04T10:52:37Z</time>
      </trkpt>
      <trkpt lat="45.9288" lon="6.50475">
        <ele>1672.9</ele>
        <time>2012-03-04T10:52:41Z</time>
      </trkpt>
      <trkpt lat="45.92873" lon="6.50481">
        <ele>1673.1</ele>
        <time>2012-03-04T10:53:00Z</time>
      </trkpt>
      <trkpt lat="45.92865" lon="6.50481">
        <ele>1672.4</ele>
        <time>2012-03-04T10:53:03Z</time>
      </trkpt>
      <trkpt lat="45.92868" lon="6.50469">
        <ele>1669</ele>
        <time>2012-03-04T10:53:07Z</time>
      </trkpt>
      <trkpt lat="45.92875" lon="6.50461">
        <ele>1667.4</ele>
        <time>2012-03-04T10:53:10Z</time>
      </trkpt>
      <trkpt lat="45.92869" lon="6.50455">
        <ele>1664</ele>
        <time>2012-03-04T10:53:14Z</time>
      </trkpt>
      <trkpt lat="45.92865" lon="6.50445">
        <ele>1660.6</ele>
        <time>2012-03-04T10:53:18Z</time>
      </trkpt>
      <trkpt lat="45.9286" lon="6.5044">
        <ele>1659.9</ele>
        <time>2012-03-04T10:53:20Z</time>
      </trkpt>
      <trkpt lat="45.92853" lon="6.50434">
        <ele>1657.9</ele>
        <time>2012-03-04T10:53:22Z</time>
      </trkpt>
      <trkpt lat="45.92845" lon="6.50429">
        <ele>1656.5</ele>
        <time>2012-03-04T10:53:24Z</time>
      </trkpt>
      <trkpt lat="45.92839" lon="6.50425">
        <ele>1655.9</ele>
        <time>2012-03-04T10:53:26Z</time>
      </trkpt>
      <trkpt lat="45.92837" lon="6.50423">
        <ele>1655.5</ele>
        <time>2012-03-04T10:53:27Z</time>
      </trkpt>
      <trkpt lat="45.92829" lon="6.50411">
        <ele>1652.1</ele>
        <time>2012-03-04T10:53:32Z</time>
      </trkpt>
      <trkpt lat="45.92833" lon="6.50401">
        <ele>1647.5</ele>
        <time>2012-03-04T10:53:36Z</time>
      </trkpt>
      <trkpt lat="45.92833" lon="6.50389">
        <ele>1643.3</ele>
        <time>2012-03-04T10:53:40Z</time>
      </trkpt>
      <trkpt lat="45.92828" lon="6.50382">
        <ele>1640.9</ele>
        <time>2012-03-04T10:53:45Z</time>
      </trkpt>
      <trkpt lat="45.92823" lon="6.50371">
        <ele>1638.8</ele>
        <time>2012-03-04T10:53:48Z</time>
      </trkpt>
      <trkpt lat="45.92818" lon="6.50363">
        <ele>1636.5</ele>
        <time>2012-03-04T10:53:51Z</time>
      </trkpt>
      <trkpt lat="45.92819" lon="6.50351">
        <ele>1632.4</ele>
        <time>2012-03-04T10:53:55Z</time>
      </trkpt>
      <trkpt lat="45.9282" lon="6.50342">
        <ele>1628</ele>
        <time>2012-03-04T10:53:58Z</time>
      </trkpt>
      <trkpt lat="45.92817" lon="6.50331">
        <ele>1624.4</ele>
        <time>2012-03-04T10:54:13Z</time>
      </trkpt>
      <trkpt lat="45.92812" lon="6.50323">
        <ele>1624</ele>
        <time>2012-03-04T10:54:16Z</time>
      </trkpt>
      <trkpt lat="45.92806" lon="6.50314">
        <ele>1623.4</ele>
        <time>2012-03-04T10:54:22Z</time>
      </trkpt>
      <trkpt lat="45.928" lon="6.50305">
        <ele>1620.5</ele>
        <time>2012-03-04T10:54:25Z</time>
      </trkpt>
      <trkpt lat="45.92794" lon="6.503">
        <ele>1618.8</ele>
        <time>2012-03-04T10:54:27Z</time>
      </trkpt>
      <trkpt lat="45.92792" lon="6.50297">
        <ele>1618</ele>
        <time>2012-03-04T10:54:28Z</time>
      </trkpt>
      <trkpt lat="45.92784" lon="6.50281">
        <ele>1612.6</ele>
        <time>2012-03-04T10:54:32Z</time>
      </trkpt>
      <trkpt lat="45.9278" lon="6.5027">
        <ele>1610</ele>
        <time>2012-03-04T10:54:34Z</time>
      </trkpt>
      <trkpt lat="45.92777" lon="6.50261">
        <ele>1609.4</ele>
        <time>2012-03-04T10:54:36Z</time>
      </trkpt>
      <trkpt lat="45.92776" lon="6.5025">
        <ele>1609.8</ele>
        <time>2012-03-04T10:54:39Z</time>
      </trkpt>
      <trkpt lat="45.92773" lon="6.50242">
        <ele>1608.8</ele>
        <time>2012-03-04T10:54:41Z</time>
      </trkpt>
      <trkpt lat="45.92769" lon="6.50233">
        <ele>1607.5</ele>
        <time>2012-03-04T10:54:43Z</time>
      </trkpt>
      <trkpt lat="45.92765" lon="6.50224">
        <ele>1605.3</ele>
        <time>2012-03-04T10:54:46Z</time>
      </trkpt>
      <trkpt lat="45.92761" lon="6.50215">
        <ele>1603.1</ele>
        <time>2012-03-04T10:54:49Z</time>
      </trkpt>
      <trkpt lat="45.92757" lon="6.50208">
        <ele>1601.5</ele>
        <time>2012-03-04T10:54:51Z</time>
      </trkpt>
      <trkpt lat="45.92751" lon="6.50202">
        <ele>1599.8</ele>
        <time>2012-03-04T10:54:54Z</time>
      </trkpt>
      <trkpt lat="45.92746" lon="6.50195">
        <ele>1598.3</ele>
        <time>2012-03-04T10:54:56Z</time>
      </trkpt>
      <trkpt lat="45.92741" lon="6.50189">
        <ele>1597.3</ele>
        <time>2012-03-04T10:54:58Z</time>
      </trkpt>
      <trkpt lat="45.92734" lon="6.50181">
        <ele>1596</ele>
        <time>2012-03-04T10:55:02Z</time>
      </trkpt>
      <trkpt lat="45.92731" lon="6.50173">
        <ele>1594.3</ele>
        <time>2012-03-04T10:55:04Z</time>
      </trkpt>
      <trkpt lat="45.92725" lon="6.50165">
        <ele>1592.3</ele>
        <time>2012-03-04T10:55:06Z</time>
      </trkpt>
      <trkpt lat="45.92721" lon="6.50161">
        <ele>1590.9</ele>
        <time>2012-03-04T10:55:07Z</time>
      </trkpt>
      <trkpt lat="45.92714" lon="6.50154">
        <ele>1588.4</ele>
        <time>2012-03-04T10:55:09Z</time>
      </trkpt>
      <trkpt lat="45.9271" lon="6.50146">
        <ele>1586.5</ele>
        <time>2012-03-04T10:55:11Z</time>
      </trkpt>
      <trkpt lat="45.92708" lon="6.50134">
        <ele>1584.1</ele>
        <time>2012-03-04T10:55:14Z</time>
      </trkpt>
      <trkpt lat="45.927" lon="6.50132">
        <ele>1578.3</ele>
        <time>2012-03-04T10:55:28Z</time>
      </trkpt>
      <trkpt lat="45.92697" lon="6.50132">
        <ele>1577.4</ele>
        <time>2012-03-04T10:55:29Z</time>
      </trkpt>
      <trkpt lat="45.92686" lon="6.50125">
        <ele>1574.9</ele>
        <time>2012-03-04T10:55:32Z</time>
      </trkpt>
      <trkpt lat="45.9268" lon="6.50117">
        <ele>1573.5</ele>
        <time>2012-03-04T10:55:34Z</time>
      </trkpt>
      <trkpt lat="45.92673" lon="6.50112">
        <ele>1572.5</ele>
        <time>2012-03-04T10:55:37Z</time>
      </trkpt>
      <trkpt lat="45.9267" lon="6.50105">
        <ele>1572</ele>
        <time>2012-03-04T10:55:41Z</time>
      </trkpt>
      <trkpt lat="45.92671" lon="6.50095">
        <ele>1571.4</ele>
        <time>2012-03-04T10:55:43Z</time>
      </trkpt>
      <trkpt lat="45.92674" lon="6.50084">
        <ele>1567.4</ele>
        <time>2012-03-04T10:55:46Z</time>
      </trkpt>
      <trkpt lat="45.9267" lon="6.50076">
        <ele>1565.3</ele>
        <time>2012-03-04T10:55:48Z</time>
      </trkpt>
      <trkpt lat="45.92667" lon="6.50067">
        <ele>1564.1</ele>
        <time>2012-03-04T10:55:50Z</time>
      </trkpt>
      <trkpt lat="45.92665" lon="6.50056">
        <ele>1563.4</ele>
        <time>2012-03-04T10:55:52Z</time>
      </trkpt>
      <trkpt lat="45.92662" lon="6.50048">
        <ele>1563.1</ele>
        <time>2012-03-04T10:55:54Z</time>
      </trkpt>
      <trkpt lat="45.9266" lon="6.50038">
        <ele>1563.1</ele>
        <time>2012-03-04T10:55:56Z</time>
      </trkpt>
      <trkpt lat="45.92658" lon="6.50027">
        <ele>1562.9</ele>
        <time>2012-03-04T10:55:58Z</time>
      </trkpt>
      <trkpt lat="45.92656" lon="6.50017">
        <ele>1562.5</ele>
        <time>2012-03-04T10:56:00Z</time>
      </trkpt>
      <trkpt lat="45.92654" lon="6.50007">
        <ele>1562.4</ele>
        <time>2012-03-04T10:56:02Z</time>
      </trkpt>
      <trkpt lat="45.92661" lon="6.49999">
        <ele>1559.1</ele>
        <time>2012-03-04T10:56:07Z</time>
      </trkpt>
      <trkpt lat="45.92664" lon="6.4999">
        <ele>1558.1</ele>
        <time>2012-03-04T10:56:09Z</time>
      </trkpt>
      <trkpt lat="45.92668" lon="6.49979">
        <ele>1556.9</ele>
        <time>2012-03-04T10:56:12Z</time>
      </trkpt>
      <trkpt lat="45.92673" lon="6.49969">
        <ele>1553.9</ele>
        <time>2012-03-04T10:56:16Z</time>
      </trkpt>
      <trkpt lat="45.9268" lon="6.49966">
        <ele>1547.1</ele>
        <time>2012-03-04T10:56:34Z</time>
      </trkpt>
      <trkpt lat="45.92681" lon="6.49963">
        <ele>1546.5</ele>
        <time>2012-03-04T10:56:35Z</time>
      </trkpt>
      <trkpt lat="45.92678" lon="6.49943">
        <ele>1541.1</ele>
        <time>2012-03-04T10:56:40Z</time>
      </trkpt>
      <trkpt lat="45.92676" lon="6.4993">
        <ele>1538.9</ele>
        <time>2012-03-04T10:56:42Z</time>
      </trkpt>
      <trkpt lat="45.92675" lon="6.49923">
        <ele>1537.8</ele>
        <time>2012-03-04T10:56:43Z</time>
      </trkpt>
      <trkpt lat="45.92674" lon="6.49917">
        <ele>1536.8</ele>
        <time>2012-03-04T10:56:44Z</time>
      </trkpt>
      <trkpt lat="45.92673" lon="6.4991">
        <ele>1536</ele>
        <time>2012-03-04T10:56:45Z</time>
      </trkpt>
      <trkpt lat="45.92672" lon="6.49898">
        <ele>1534.6</ele>
        <time>2012-03-04T10:56:47Z</time>
      </trkpt>
      <trkpt lat="45.92671" lon="6.49891">
        <ele>1534</ele>
        <time>2012-03-04T10:56:48Z</time>
      </trkpt>
      <trkpt lat="45.92671" lon="6.49884">
        <ele>1533.4</ele>
        <time>2012-03-04T10:56:49Z</time>
      </trkpt>
      <trkpt lat="45.9267" lon="6.49877">
        <ele>1533</ele>
        <time>2012-03-04T10:56:50Z</time>
      </trkpt>
      <trkpt lat="45.9267" lon="6.4987">
        <ele>1532.6</ele>
        <time>2012-03-04T10:56:51Z</time>
      </trkpt>
      <trkpt lat="45.9267" lon="6.49864">
        <ele>1532.4</ele>
        <time>2012-03-04T10:56:52Z</time>
      </trkpt>
      <trkpt lat="45.92671" lon="6.49853">
        <ele>1532.1</ele>
        <time>2012-03-04T10:56:54Z</time>
      </trkpt>
      <trkpt lat="45.9267" lon="6.49842">
        <ele>1531.5</ele>
        <time>2012-03-04T10:56:59Z</time>
      </trkpt>
      <trkpt lat="45.92666" lon="6.49833">
        <ele>1527.6</ele>
        <time>2012-03-04T10:57:04Z</time>
      </trkpt>
      <trkpt lat="45.92662" lon="6.49822">
        <ele>1525</ele>
        <time>2012-03-04T10:57:07Z</time>
      </trkpt>
      <trkpt lat="45.9266" lon="6.49812">
        <ele>1523.6</ele>
        <time>2012-03-04T10:57:09Z</time>
      </trkpt>
      <trkpt lat="45.92659" lon="6.49804">
        <ele>1522.8</ele>
        <time>2012-03-04T10:57:12Z</time>
      </trkpt>
      <trkpt lat="45.92656" lon="6.49794">
        <ele>1522.4</ele>
        <time>2012-03-04T10:57:14Z</time>
      </trkpt>
      <trkpt lat="45.92656" lon="6.49782">
        <ele>1520.6</ele>
        <time>2012-03-04T10:57:16Z</time>
      </trkpt>
      <trkpt lat="45.92654" lon="6.4977">
        <ele>1519.5</ele>
        <time>2012-03-04T10:57:18Z</time>
      </trkpt>
      <trkpt lat="45.9265" lon="6.49758">
        <ele>1518.5</ele>
        <time>2012-03-04T10:57:20Z</time>
      </trkpt>
      <trkpt lat="45.92644" lon="6.4975">
        <ele>1517.1</ele>
        <time>2012-03-04T10:57:22Z</time>
      </trkpt>
      <trkpt lat="45.92641" lon="6.49742">
        <ele>1516.6</ele>
        <time>2012-03-04T10:57:24Z</time>
      </trkpt>
      <trkpt lat="45.92638" lon="6.49733">
        <ele>1516.5</ele>
        <time>2012-03-04T10:57:26Z</time>
      </trkpt>
      <trkpt lat="45.92635" lon="6.49722">
        <ele>1514.6</ele>
        <time>2012-03-04T10:57:30Z</time>
      </trkpt>
      <trkpt lat="45.92632" lon="6.49712">
        <ele>1512</ele>
        <time>2012-03-04T10:57:33Z</time>
      </trkpt>
      <trkpt lat="45.92631" lon="6.497">
        <ele>1509.4</ele>
        <time>2012-03-04T10:57:38Z</time>
      </trkpt>
      <trkpt lat="45.92631" lon="6.49695">
        <ele>1509</ele>
        <time>2012-03-04T10:57:39Z</time>
      </trkpt>
      <trkpt lat="45.92631" lon="6.49683">
        <ele>1508.4</ele>
        <time>2012-03-04T10:57:41Z</time>
      </trkpt>
      <trkpt lat="45.92631" lon="6.4967">
        <ele>1508.3</ele>
        <time>2012-03-04T10:57:43Z</time>
      </trkpt>
      <trkpt lat="45.92632" lon="6.49664">
        <ele>1508.5</ele>
        <time>2012-03-04T10:57:44Z</time>
      </trkpt>
      <trkpt lat="45.92634" lon="6.49657">
        <ele>1508.6</ele>
        <time>2012-03-04T10:57:45Z</time>
      </trkpt>
      <trkpt lat="45.92638" lon="6.49647">
        <ele>1510.3</ele>
        <time>2012-03-04T10:57:47Z</time>
      </trkpt>
      <trkpt lat="45.92641" lon="6.49637">
        <ele>1511.6</ele>
        <time>2012-03-04T10:57:49Z</time>
      </trkpt>
      <trkpt lat="45.92642" lon="6.49627">
        <ele>1512.9</ele>
        <time>2012-03-04T10:57:51Z</time>
      </trkpt>
      <trkpt lat="45.92641" lon="6.49615">
        <ele>1515.6</ele>
        <time>2012-03-04T10:57:57Z</time>
      </trkpt>
      <trkpt lat="45.92639" lon="6.49606">
        <ele>1516</ele>
        <time>2012-03-04T10:58:01Z</time>
      </trkpt>
      <trkpt lat="45.92638" lon="6.49594">
        <ele>1514.5</ele>
        <time>2012-03-04T10:58:04Z</time>
      </trkpt>
      <trkpt lat="45.92637" lon="6.49583">
        <ele>1514</ele>
        <time>2012-03-04T10:58:06Z</time>
      </trkpt>
      <trkpt lat="45.92638" lon="6.49573">
        <ele>1513.5</ele>
        <time>2012-03-04T10:58:08Z</time>
      </trkpt>
      <trkpt lat="45.92638" lon="6.49564">
        <ele>1513</ele>
        <time>2012-03-04T10:58:10Z</time>
      </trkpt>
      <trkpt lat="45.92639" lon="6.49554">
        <ele>1513</ele>
        <time>2012-03-04T10:58:12Z</time>
      </trkpt>
      <trkpt lat="45.92641" lon="6.49542">
        <ele>1513</ele>
        <time>2012-03-04T10:58:15Z</time>
      </trkpt>
      <trkpt lat="45.92643" lon="6.49531">
        <ele>1512.8</ele>
        <time>2012-03-04T10:58:17Z</time>
      </trkpt>
      <trkpt lat="45.92644" lon="6.49525">
        <ele>1512.6</ele>
        <time>2012-03-04T10:58:18Z</time>
      </trkpt>
      <trkpt lat="45.92646" lon="6.49518">
        <ele>1512.5</ele>
        <time>2012-03-04T10:58:19Z</time>
      </trkpt>
      <trkpt lat="45.92648" lon="6.49511">
        <ele>1512.5</ele>
        <time>2012-03-04T10:58:20Z</time>
      </trkpt>
      <trkpt lat="45.92649" lon="6.49504">
        <ele>1512.1</ele>
        <time>2012-03-04T10:58:21Z</time>
      </trkpt>
      <trkpt lat="45.92651" lon="6.49497">
        <ele>1511.6</ele>
        <time>2012-03-04T10:58:22Z</time>
      </trkpt>
      <trkpt lat="45.92653" lon="6.49491">
        <ele>1511.3</ele>
        <time>2012-03-04T10:58:23Z</time>
      </trkpt>
      <trkpt lat="45.92656" lon="6.49486">
        <ele>1511.1</ele>
        <time>2012-03-04T10:58:24Z</time>
      </trkpt>
      <trkpt lat="45.92663" lon="6.49477">
        <ele>1511</ele>
        <time>2012-03-04T10:58:26Z</time>
      </trkpt>
      <trkpt lat="45.92669" lon="6.49468">
        <ele>1510.3</ele>
        <time>2012-03-04T10:58:28Z</time>
      </trkpt>
      <trkpt lat="45.92675" lon="6.4946">
        <ele>1509</ele>
        <time>2012-03-04T10:58:30Z</time>
      </trkpt>
      <trkpt lat="45.9268" lon="6.49454">
        <ele>1508</ele>
        <time>2012-03-04T10:58:32Z</time>
      </trkpt>
      <trkpt lat="45.92687" lon="6.49447">
        <ele>1505.4</ele>
        <time>2012-03-04T10:58:36Z</time>
      </trkpt>
      <trkpt lat="45.92693" lon="6.49439">
        <ele>1493.6</ele>
        <time>2012-03-04T10:58:49Z</time>
      </trkpt>
      <trkpt lat="45.92694" lon="6.49438">
        <ele>1493.4</ele>
        <time>2012-03-04T10:58:50Z</time>
      </trkpt>
      <trkpt lat="45.92709" lon="6.49434">
        <ele>1492.5</ele>
        <time>2012-03-04T10:59:14Z</time>
      </trkpt>
      <trkpt lat="45.92713" lon="6.49424">
        <ele>1493.1</ele>
        <time>2012-03-04T10:59:21Z</time>
      </trkpt>
      <trkpt lat="45.92713" lon="6.49414">
        <ele>1493</ele>
        <time>2012-03-04T10:59:24Z</time>
      </trkpt>
      <trkpt lat="45.92712" lon="6.49401">
        <ele>1492.8</ele>
        <time>2012-03-04T10:59:27Z</time>
      </trkpt>
      <trkpt lat="45.92712" lon="6.49389">
        <ele>1493.1</ele>
        <time>2012-03-04T10:59:31Z</time>
      </trkpt>
      <trkpt lat="45.92709" lon="6.49377">
        <ele>1493.9</ele>
        <time>2012-03-04T10:59:39Z</time>
      </trkpt>
      <trkpt lat="45.92705" lon="6.49371">
        <ele>1492.6</ele>
        <time>2012-03-04T10:59:41Z</time>
      </trkpt>
      <trkpt lat="45.92702" lon="6.49365">
        <ele>1491.5</ele>
        <time>2012-03-04T10:59:42Z</time>
      </trkpt>
      <trkpt lat="45.92701" lon="6.49358">
        <ele>1490.9</ele>
        <time>2012-03-04T10:59:43Z</time>
      </trkpt>
      <trkpt lat="45.92701" lon="6.4935">
        <ele>1490.5</ele>
        <time>2012-03-04T10:59:44Z</time>
      </trkpt>
      <trkpt lat="45.92702" lon="6.49343">
        <ele>1490.5</ele>
        <time>2012-03-04T10:59:45Z</time>
      </trkpt>
      <trkpt lat="45.92702" lon="6.49331">
        <ele>1490.4</ele>
        <time>2012-03-04T10:59:47Z</time>
      </trkpt>
      <trkpt lat="45.92701" lon="6.49324">
        <ele>1490.1</ele>
        <time>2012-03-04T10:59:48Z</time>
      </trkpt>
      <trkpt lat="45.92698" lon="6.49312">
        <ele>1489.5</ele>
        <time>2012-03-04T10:59:50Z</time>
      </trkpt>
      <trkpt lat="45.92696" lon="6.49306">
        <ele>1489.1</ele>
        <time>2012-03-04T10:59:51Z</time>
      </trkpt>
      <trkpt lat="45.92693" lon="6.493">
        <ele>1488.4</ele>
        <time>2012-03-04T10:59:52Z</time>
      </trkpt>
      <trkpt lat="45.92689" lon="6.49294">
        <ele>1487.8</ele>
        <time>2012-03-04T10:59:53Z</time>
      </trkpt>
      <trkpt lat="45.92685" lon="6.49289">
        <ele>1487.5</ele>
        <time>2012-03-04T10:59:54Z</time>
      </trkpt>
      <trkpt lat="45.92678" lon="6.49284">
        <ele>1487.5</ele>
        <time>2012-03-04T10:59:56Z</time>
      </trkpt>
      <trkpt lat="45.9267" lon="6.49282">
        <ele>1485.8</ele>
        <time>2012-03-04T10:59:59Z</time>
      </trkpt>
      <trkpt lat="45.92661" lon="6.49279">
        <ele>1483.5</ele>
        <time>2012-03-04T11:00:03Z</time>
      </trkpt>
      <trkpt lat="45.92653" lon="6.49278">
        <ele>1482.4</ele>
        <time>2012-03-04T11:00:09Z</time>
      </trkpt>
      <trkpt lat="45.92645" lon="6.49273">
        <ele>1487</ele>
        <time>2012-03-04T11:00:19Z</time>
      </trkpt>
      <trkpt lat="45.92639" lon="6.49267">
        <ele>1490</ele>
        <time>2012-03-04T11:00:25Z</time>
      </trkpt>
      <trkpt lat="45.92633" lon="6.49261">
        <ele>1491.6</ele>
        <time>2012-03-04T11:00:30Z</time>
      </trkpt>
      <trkpt lat="45.92629" lon="6.49254">
        <ele>1491</ele>
        <time>2012-03-04T11:00:32Z</time>
      </trkpt>
      <trkpt lat="45.92624" lon="6.49246">
        <ele>1490.4</ele>
        <time>2012-03-04T11:00:34Z</time>
      </trkpt>
      <trkpt lat="45.92619" lon="6.49239">
        <ele>1489.6</ele>
        <time>2012-03-04T11:00:36Z</time>
      </trkpt>
      <trkpt lat="45.92613" lon="6.49235">
        <ele>1489.3</ele>
        <time>2012-03-04T11:00:38Z</time>
      </trkpt>
      <trkpt lat="45.92605" lon="6.49231">
        <ele>1490.4</ele>
        <time>2012-03-04T11:00:48Z</time>
      </trkpt>
      <trkpt lat="45.92597" lon="6.49228">
        <ele>1489.5</ele>
        <time>2012-03-04T11:01:01Z</time>
      </trkpt>
      <trkpt lat="45.92596" lon="6.49228">
        <ele>1489.4</ele>
        <time>2012-03-04T11:01:02Z</time>
      </trkpt>
      <trkpt lat="45.92579" lon="6.49225">
        <ele>1490</ele>
        <time>2012-03-04T11:01:24Z</time>
      </trkpt>
      <trkpt lat="45.92571" lon="6.49224">
        <ele>1490</ele>
        <time>2012-03-04T11:01:33Z</time>
      </trkpt>
      <trkpt lat="45.92562" lon="6.49223">
        <ele>1490.8</ele>
        <time>2012-03-04T11:01:45Z</time>
      </trkpt>
      <trkpt lat="45.92554" lon="6.49222">
        <ele>1493.4</ele>
        <time>2012-03-04T11:01:53Z</time>
      </trkpt>
      <trkpt lat="45.92545" lon="6.49222">
        <ele>1493.5</ele>
        <time>2012-03-04T11:01:57Z</time>
      </trkpt>
      <trkpt lat="45.92538" lon="6.49229">
        <ele>1488.4</ele>
        <time>2012-03-04T11:02:21Z</time>
      </trkpt>
      <trkpt lat="45.92537" lon="6.49232">
        <ele>1485.8</ele>
        <time>2012-03-04T11:02:22Z</time>
      </trkpt>
      <trkpt lat="45.92524" lon="6.49216">
        <ele>1494.8</ele>
        <time>2012-03-04T11:03:01Z</time>
      </trkpt>
      <trkpt lat="45.92516" lon="6.4921">
        <ele>1494.3</ele>
        <time>2012-03-04T11:03:09Z</time>
      </trkpt>
      <trkpt lat="45.92509" lon="6.49207">
        <ele>1493.9</ele>
        <time>2012-03-04T11:03:14Z</time>
      </trkpt>
      <trkpt lat="45.92501" lon="6.49205">
        <ele>1492.5</ele>
        <time>2012-03-04T11:03:18Z</time>
      </trkpt>
      <trkpt lat="45.92493" lon="6.49202">
        <ele>1490.6</ele>
        <time>2012-03-04T11:03:24Z</time>
      </trkpt>
      <trkpt lat="45.92492" lon="6.49202">
        <ele>1490.5</ele>
        <time>2012-03-04T11:03:25Z</time>
      </trkpt>
      <trkpt lat="45.92478" lon="6.4919">
        <ele>1493.4</ele>
        <time>2012-03-04T11:03:46Z</time>
      </trkpt>
      <trkpt lat="45.9247" lon="6.49184">
        <ele>1496</ele>
        <time>2012-03-04T11:04:00Z</time>
      </trkpt>
      <trkpt lat="45.92463" lon="6.49184">
        <ele>1496.4</ele>
        <time>2012-03-04T11:04:07Z</time>
      </trkpt>
      <trkpt lat="45.92454" lon="6.49183">
        <ele>1495.5</ele>
        <time>2012-03-04T11:04:11Z</time>
      </trkpt>
      <trkpt lat="45.92447" lon="6.49181">
        <ele>1494.3</ele>
        <time>2012-03-04T11:04:15Z</time>
      </trkpt>
      <trkpt lat="45.92438" lon="6.49178">
        <ele>1490.9</ele>
        <time>2012-03-04T11:04:18Z</time>
      </trkpt>
      <trkpt lat="45.92433" lon="6.49174">
        <ele>1489.8</ele>
        <time>2012-03-04T11:04:19Z</time>
      </trkpt>
      <trkpt lat="45.92428" lon="6.4917">
        <ele>1489.1</ele>
        <time>2012-03-04T11:04:20Z</time>
      </trkpt>
      <trkpt lat="45.92422" lon="6.49167">
        <ele>1488.6</ele>
        <time>2012-03-04T11:04:21Z</time>
      </trkpt>
      <trkpt lat="45.92417" lon="6.49164">
        <ele>1487.8</ele>
        <time>2012-03-04T11:04:22Z</time>
      </trkpt>
      <trkpt lat="45.92412" lon="6.49161">
        <ele>1487.5</ele>
        <time>2012-03-04T11:04:23Z</time>
      </trkpt>
      <trkpt lat="45.92407" lon="6.49157">
        <ele>1487.5</ele>
        <time>2012-03-04T11:04:24Z</time>
      </trkpt>
      <trkpt lat="45.92399" lon="6.49151">
        <ele>1487</ele>
        <time>2012-03-04T11:04:26Z</time>
      </trkpt>
      <trkpt lat="45.92397" lon="6.49147">
        <ele>1488.6</ele>
        <time>2012-03-04T11:04:27Z</time>
      </trkpt>
      <trkpt lat="45.92386" lon="6.49138">
        <ele>1489</ele>
        <time>2012-03-04T11:04:31Z</time>
      </trkpt>
      <trkpt lat="45.9238" lon="6.49134">
        <ele>1486.9</ele>
        <time>2012-03-04T11:04:32Z</time>
      </trkpt>
      <trkpt lat="45.92373" lon="6.49133">
        <ele>1485.4</ele>
        <time>2012-03-04T11:04:33Z</time>
      </trkpt>
      <trkpt lat="45.92366" lon="6.49129">
        <ele>1484.6</ele>
        <time>2012-03-04T11:04:34Z</time>
      </trkpt>
      <trkpt lat="45.92359" lon="6.49125">
        <ele>1484</ele>
        <time>2012-03-04T11:04:35Z</time>
      </trkpt>
      <trkpt lat="45.92352" lon="6.49121">
        <ele>1482.6</ele>
        <time>2012-03-04T11:04:36Z</time>
      </trkpt>
      <trkpt lat="45.92345" lon="6.4912">
        <ele>1482.6</ele>
        <time>2012-03-04T11:04:37Z</time>
      </trkpt>
      <trkpt lat="45.92337" lon="6.49123">
        <ele>1483.4</ele>
        <time>2012-03-04T11:04:43Z</time>
      </trkpt>
      <trkpt lat="45.92345" lon="6.4912">
        <ele>1491.8</ele>
        <time>2012-03-04T11:05:39Z</time>
      </trkpt>
      <trkpt lat="45.92346" lon="6.4912">
        <ele>1491.5</ele>
        <time>2012-03-04T11:05:40Z</time>
      </trkpt>
      <trkpt lat="45.92345" lon="6.49119">
        <ele>1490.5</ele>
        <time>2012-03-04T11:10:55Z</time>
      </trkpt>
      <trkpt lat="45.92345" lon="6.49119">
        <ele>1490.5</ele>
        <time>2012-03-04T11:10:56Z</time>
      </trkpt>
      <trkpt lat="45.92336" lon="6.49125">
        <ele>1493.1</ele>
        <time>2012-03-04T11:14:44Z</time>
      </trkpt>
      <trkpt lat="45.92326" lon="6.4914">
        <ele>1491.5</ele>
        <time>2012-03-04T11:15:00Z</time>
      </trkpt>
      <trkpt lat="45.9232" lon="6.49148">
        <ele>1490.3</ele>
        <time>2012-03-04T11:15:07Z</time>
      </trkpt>
      <trkpt lat="45.92313" lon="6.49156">
        <ele>1491.5</ele>
        <time>2012-03-04T11:15:16Z</time>
      </trkpt>
      <trkpt lat="45.92307" lon="6.49163">
        <ele>1498.6</ele>
        <time>2012-03-04T11:15:27Z</time>
      </trkpt>
      <trkpt lat="45.92299" lon="6.49169">
        <ele>1499.9</ele>
        <time>2012-03-04T11:15:35Z</time>
      </trkpt>
      <trkpt lat="45.92293" lon="6.49175">
        <ele>1498</ele>
        <time>2012-03-04T11:15:42Z</time>
      </trkpt>
      <trkpt lat="45.92286" lon="6.49182">
        <ele>1497.1</ele>
        <time>2012-03-04T11:15:50Z</time>
      </trkpt>
      <trkpt lat="45.92285" lon="6.49183">
        <ele>1497</ele>
        <time>2012-03-04T11:15:51Z</time>
      </trkpt>
      <trkpt lat="45.92274" lon="6.492">
        <ele>1490.5</ele>
        <time>2012-03-04T11:16:07Z</time>
      </trkpt>
      <trkpt lat="45.92268" lon="6.49209">
        <ele>1490.8</ele>
        <time>2012-03-04T11:16:18Z</time>
      </trkpt>
      <trkpt lat="45.9226" lon="6.49214">
        <ele>1494.5</ele>
        <time>2012-03-04T11:16:29Z</time>
      </trkpt>
      <trkpt lat="45.92253" lon="6.49221">
        <ele>1496.6</ele>
        <time>2012-03-04T11:16:40Z</time>
      </trkpt>
      <trkpt lat="45.92246" lon="6.49228">
        <ele>1497.8</ele>
        <time>2012-03-04T11:16:50Z</time>
      </trkpt>
      <trkpt lat="45.92239" lon="6.49235">
        <ele>1500</ele>
        <time>2012-03-04T11:17:00Z</time>
      </trkpt>
      <trkpt lat="45.92238" lon="6.49235">
        <ele>1500.3</ele>
        <time>2012-03-04T11:17:01Z</time>
      </trkpt>
      <trkpt lat="45.92226" lon="6.4925">
        <ele>1503.3</ele>
        <time>2012-03-04T11:17:18Z</time>
      </trkpt>
      <trkpt lat="45.9222" lon="6.49259">
        <ele>1503.4</ele>
        <time>2012-03-04T11:17:26Z</time>
      </trkpt>
      <trkpt lat="45.92217" lon="6.4927">
        <ele>1505.3</ele>
        <time>2012-03-04T11:17:36Z</time>
      </trkpt>
      <trkpt lat="45.92211" lon="6.4928">
        <ele>1509.1</ele>
        <time>2012-03-04T11:17:47Z</time>
      </trkpt>
      <trkpt lat="45.92208" lon="6.49292">
        <ele>1515.5</ele>
        <time>2012-03-04T11:18:00Z</time>
      </trkpt>
      <trkpt lat="45.92213" lon="6.49301">
        <ele>1522.1</ele>
        <time>2012-03-04T11:18:13Z</time>
      </trkpt>
      <trkpt lat="45.92214" lon="6.49301">
        <ele>1522.8</ele>
        <time>2012-03-04T11:18:14Z</time>
      </trkpt>
      <trkpt lat="45.92221" lon="6.49323">
        <ele>1527</ele>
        <time>2012-03-04T11:18:34Z</time>
      </trkpt>
      <trkpt lat="45.92223" lon="6.49334">
        <ele>1528.1</ele>
        <time>2012-03-04T11:18:44Z</time>
      </trkpt>
      <trkpt lat="45.92224" lon="6.49347">
        <ele>1527</ele>
        <time>2012-03-04T11:19:00Z</time>
      </trkpt>
      <trkpt lat="45.92225" lon="6.49359">
        <ele>1526.6</ele>
        <time>2012-03-04T11:19:12Z</time>
      </trkpt>
      <trkpt lat="45.92226" lon="6.49371">
        <ele>1529.6</ele>
        <time>2012-03-04T11:19:32Z</time>
      </trkpt>
      <trkpt lat="45.92226" lon="6.49373">
        <ele>1530</ele>
        <time>2012-03-04T11:19:33Z</time>
      </trkpt>
      <trkpt lat="45.92227" lon="6.49396">
        <ele>1539</ele>
        <time>2012-03-04T11:19:56Z</time>
      </trkpt>
      <trkpt lat="45.92229" lon="6.49408">
        <ele>1543.9</ele>
        <time>2012-03-04T11:20:07Z</time>
      </trkpt>
      <trkpt lat="45.92232" lon="6.4942">
        <ele>1545.3</ele>
        <time>2012-03-04T11:20:16Z</time>
      </trkpt>
      <trkpt lat="45.92236" lon="6.4943">
        <ele>1544.9</ele>
        <time>2012-03-04T11:20:25Z</time>
      </trkpt>
      <trkpt lat="45.92239" lon="6.49442">
        <ele>1545</ele>
        <time>2012-03-04T11:20:36Z</time>
      </trkpt>
      <trkpt lat="45.92239" lon="6.49443">
        <ele>1545</ele>
        <time>2012-03-04T11:20:37Z</time>
      </trkpt>
      <trkpt lat="45.92237" lon="6.49466">
        <ele>1550</ele>
        <time>2012-03-04T11:21:03Z</time>
      </trkpt>
      <trkpt lat="45.92242" lon="6.49476">
        <ele>1560</ele>
        <time>2012-03-04T11:21:20Z</time>
      </trkpt>
      <trkpt lat="45.92247" lon="6.49485">
        <ele>1563.9</ele>
        <time>2012-03-04T11:21:32Z</time>
      </trkpt>
      <trkpt lat="45.92249" lon="6.49497">
        <ele>1567.3</ele>
        <time>2012-03-04T11:21:53Z</time>
      </trkpt>
      <trkpt lat="45.92249" lon="6.49498">
        <ele>1567.3</ele>
        <time>2012-03-04T11:21:54Z</time>
      </trkpt>
      <trkpt lat="45.92251" lon="6.49522">
        <ele>1578.4</ele>
        <time>2012-03-04T11:22:39Z</time>
      </trkpt>
      <trkpt lat="45.92257" lon="6.49531">
        <ele>1581.5</ele>
        <time>2012-03-04T11:22:52Z</time>
      </trkpt>
      <trkpt lat="45.9226" lon="6.49543">
        <ele>1582.8</ele>
        <time>2012-03-04T11:23:08Z</time>
      </trkpt>
      <trkpt lat="45.9226" lon="6.49543">
        <ele>1582.5</ele>
        <time>2012-03-04T11:23:09Z</time>
      </trkpt>
      <trkpt lat="45.9226" lon="6.49566">
        <ele>1589.6</ele>
        <time>2012-03-04T11:23:50Z</time>
      </trkpt>
      <trkpt lat="45.92257" lon="6.49578">
        <ele>1594</ele>
        <time>2012-03-04T11:24:18Z</time>
      </trkpt>
      <trkpt lat="45.92258" lon="6.49579">
        <ele>1594.3</ele>
        <time>2012-03-04T11:24:19Z</time>
      </trkpt>
      <trkpt lat="45.92242" lon="6.49589">
        <ele>1601.3</ele>
        <time>2012-03-04T11:24:46Z</time>
      </trkpt>
      <trkpt lat="45.92234" lon="6.49586">
        <ele>1603.5</ele>
        <time>2012-03-04T11:24:57Z</time>
      </trkpt>
      <trkpt lat="45.92226" lon="6.49583">
        <ele>1603.8</ele>
        <time>2012-03-04T11:25:08Z</time>
      </trkpt>
      <trkpt lat="45.92217" lon="6.49582">
        <ele>1603</ele>
        <time>2012-03-04T11:25:19Z</time>
      </trkpt>
      <trkpt lat="45.92216" lon="6.49582">
        <ele>1603.1</ele>
        <time>2012-03-04T11:25:20Z</time>
      </trkpt>
      <trkpt lat="45.92207" lon="6.49594">
        <ele>1612.9</ele>
        <time>2012-03-04T11:25:55Z</time>
      </trkpt>
      <trkpt lat="45.92211" lon="6.49605">
        <ele>1616.1</ele>
        <time>2012-03-04T11:26:07Z</time>
      </trkpt>
      <trkpt lat="45.92213" lon="6.49617">
        <ele>1619.6</ele>
        <time>2012-03-04T11:26:21Z</time>
      </trkpt>
      <trkpt lat="45.92214" lon="6.49618">
        <ele>1619.9</ele>
        <time>2012-03-04T11:26:22Z</time>
      </trkpt>
      <trkpt lat="45.92197" lon="6.49624">
        <ele>1622.5</ele>
        <time>2012-03-04T11:27:04Z</time>
      </trkpt>
      <trkpt lat="45.92198" lon="6.49637">
        <ele>1628.4</ele>
        <time>2012-03-04T11:27:22Z</time>
      </trkpt>
      <trkpt lat="45.92199" lon="6.49638">
        <ele>1628.4</ele>
        <time>2012-03-04T11:27:23Z</time>
      </trkpt>
      <trkpt lat="45.92202" lon="6.49661">
        <ele>1634.5</ele>
        <time>2012-03-04T11:27:44Z</time>
      </trkpt>
      <trkpt lat="45.92196" lon="6.49668">
        <ele>1641.9</ele>
        <time>2012-03-04T11:28:05Z</time>
      </trkpt>
      <trkpt lat="45.92187" lon="6.49668">
        <ele>1643.6</ele>
        <time>2012-03-04T11:28:19Z</time>
      </trkpt>
      <trkpt lat="45.92178" lon="6.49666">
        <ele>1645.3</ele>
        <time>2012-03-04T11:28:32Z</time>
      </trkpt>
      <trkpt lat="45.92178" lon="6.49665">
        <ele>1645.5</ele>
        <time>2012-03-04T11:28:33Z</time>
      </trkpt>
      <trkpt lat="45.92162" lon="6.49667">
        <ele>1647</ele>
        <time>2012-03-04T11:28:53Z</time>
      </trkpt>
      <trkpt lat="45.92154" lon="6.4967">
        <ele>1650.3</ele>
        <time>2012-03-04T11:29:06Z</time>
      </trkpt>
      <trkpt lat="45.92146" lon="6.49676">
        <ele>1653.1</ele>
        <time>2012-03-04T11:29:17Z</time>
      </trkpt>
      <trkpt lat="45.92147" lon="6.49687">
        <ele>1658.6</ele>
        <time>2012-03-04T11:29:31Z</time>
      </trkpt>
      <trkpt lat="45.92149" lon="6.497">
        <ele>1658.3</ele>
        <time>2012-03-04T11:29:41Z</time>
      </trkpt>
      <trkpt lat="45.92149" lon="6.49701">
        <ele>1658.1</ele>
        <time>2012-03-04T11:29:42Z</time>
      </trkpt>
      <trkpt lat="45.92152" lon="6.49724">
        <ele>1664.9</ele>
        <time>2012-03-04T11:30:05Z</time>
      </trkpt>
      <trkpt lat="45.92154" lon="6.49736">
        <ele>1666.6</ele>
        <time>2012-03-04T11:30:17Z</time>
      </trkpt>
      <trkpt lat="45.92154" lon="6.49749">
        <ele>1667.8</ele>
        <time>2012-03-04T11:30:28Z</time>
      </trkpt>
      <trkpt lat="45.92146" lon="6.49752">
        <ele>1671.4</ele>
        <time>2012-03-04T11:30:43Z</time>
      </trkpt>
      <trkpt lat="45.92145" lon="6.49752">
        <ele>1671.6</ele>
        <time>2012-03-04T11:30:44Z</time>
      </trkpt>
      <trkpt lat="45.92129" lon="6.49751">
        <ele>1681.5</ele>
        <time>2012-03-04T11:31:11Z</time>
      </trkpt>
      <trkpt lat="45.92127" lon="6.49764">
        <ele>1685.5</ele>
        <time>2012-03-04T11:31:30Z</time>
      </trkpt>
      <trkpt lat="45.92121" lon="6.49772">
        <ele>1687.3</ele>
        <time>2012-03-04T11:31:49Z</time>
      </trkpt>
      <trkpt lat="45.9212" lon="6.49772">
        <ele>1687.5</ele>
        <time>2012-03-04T11:31:50Z</time>
      </trkpt>
      <trkpt lat="45.92105" lon="6.49763">
        <ele>1690.8</ele>
        <time>2012-03-04T11:32:13Z</time>
      </trkpt>
      <trkpt lat="45.92097" lon="6.49758">
        <ele>1692</ele>
        <time>2012-03-04T11:32:23Z</time>
      </trkpt>
      <trkpt lat="45.92089" lon="6.49757">
        <ele>1695.9</ele>
        <time>2012-03-04T11:32:49Z</time>
      </trkpt>
      <trkpt lat="45.9208" lon="6.49757">
        <ele>1699.5</ele>
        <time>2012-03-04T11:33:00Z</time>
      </trkpt>
      <trkpt lat="45.9208" lon="6.49757">
        <ele>1700</ele>
        <time>2012-03-04T11:33:01Z</time>
      </trkpt>
      <trkpt lat="45.92073" lon="6.49771">
        <ele>1707.5</ele>
        <time>2012-03-04T11:33:27Z</time>
      </trkpt>
      <trkpt lat="45.92066" lon="6.49779">
        <ele>1717.8</ele>
        <time>2012-03-04T11:33:45Z</time>
      </trkpt>
      <trkpt lat="45.92058" lon="6.49782">
        <ele>1718.6</ele>
        <time>2012-03-04T11:33:57Z</time>
      </trkpt>
      <trkpt lat="45.9205" lon="6.49787">
        <ele>1719.4</ele>
        <time>2012-03-04T11:34:07Z</time>
      </trkpt>
      <trkpt lat="45.92049" lon="6.49787">
        <ele>1719.5</ele>
        <time>2012-03-04T11:34:08Z</time>
      </trkpt>
      <trkpt lat="45.92035" lon="6.498">
        <ele>1731.5</ele>
        <time>2012-03-04T11:34:49Z</time>
      </trkpt>
      <trkpt lat="45.92027" lon="6.49802">
        <ele>1727.9</ele>
        <time>2012-03-04T11:35:03Z</time>
      </trkpt>
      <trkpt lat="45.92026" lon="6.49814">
        <ele>1738.1</ele>
        <time>2012-03-04T11:35:43Z</time>
      </trkpt>
      <trkpt lat="45.92026" lon="6.49815">
        <ele>1738.1</ele>
        <time>2012-03-04T11:35:44Z</time>
      </trkpt>
      <trkpt lat="45.92018" lon="6.49832">
        <ele>1735.1</ele>
        <time>2012-03-04T11:36:09Z</time>
      </trkpt>
      <trkpt lat="45.92009" lon="6.49829">
        <ele>1731</ele>
        <time>2012-03-04T11:36:30Z</time>
      </trkpt>
      <trkpt lat="45.92006" lon="6.49841">
        <ele>1755.4</ele>
        <time>2012-03-04T11:37:47Z</time>
      </trkpt>
      <trkpt lat="45.92005" lon="6.49841">
        <ele>1754.8</ele>
        <time>2012-03-04T11:37:48Z</time>
      </trkpt>
      <trkpt lat="45.92002" lon="6.49841">
        <ele>1744.3</ele>
        <time>2012-03-04T11:39:06Z</time>
      </trkpt>
      <trkpt lat="45.92001" lon="6.49841">
        <ele>1744.1</ele>
        <time>2012-03-04T11:39:07Z</time>
      </trkpt>
      <trkpt lat="45.91986" lon="6.49829">
        <ele>1745</ele>
        <time>2012-03-04T11:39:36Z</time>
      </trkpt>
      <trkpt lat="45.91978" lon="6.49828">
        <ele>1769</ele>
        <time>2012-03-04T11:40:14Z</time>
      </trkpt>
      <trkpt lat="45.91977" lon="6.49829">
        <ele>1769</ele>
        <time>2012-03-04T11:40:15Z</time>
      </trkpt>
      <trkpt lat="45.91972" lon="6.49847">
        <ele>1768.3</ele>
        <time>2012-03-04T11:40:46Z</time>
      </trkpt>
      <trkpt lat="45.91971" lon="6.4986">
        <ele>1772.3</ele>
        <time>2012-03-04T11:40:58Z</time>
      </trkpt>
      <trkpt lat="45.91964" lon="6.49865">
        <ele>1772.5</ele>
        <time>2012-03-04T11:41:10Z</time>
      </trkpt>
      <trkpt lat="45.91955" lon="6.49864">
        <ele>1770.3</ele>
        <time>2012-03-04T11:41:23Z</time>
      </trkpt>
      <trkpt lat="45.91955" lon="6.49864">
        <ele>1770</ele>
        <time>2012-03-04T11:41:24Z</time>
      </trkpt>
      <trkpt lat="45.9194" lon="6.49852">
        <ele>1775.4</ele>
        <time>2012-03-04T11:41:49Z</time>
      </trkpt>
      <trkpt lat="45.91932" lon="6.49847">
        <ele>1777.4</ele>
        <time>2012-03-04T11:42:01Z</time>
      </trkpt>
      <trkpt lat="45.91934" lon="6.49859">
        <ele>1788.6</ele>
        <time>2012-03-04T11:42:26Z</time>
      </trkpt>
      <trkpt lat="45.91934" lon="6.49861">
        <ele>1788.9</ele>
        <time>2012-03-04T11:42:27Z</time>
      </trkpt>
      <trkpt lat="45.91928" lon="6.49873">
        <ele>1784.6</ele>
        <time>2012-03-04T11:43:05Z</time>
      </trkpt>
      <trkpt lat="45.91928" lon="6.49886">
        <ele>1800.9</ele>
        <time>2012-03-04T11:43:46Z</time>
      </trkpt>
      <trkpt lat="45.91928" lon="6.49886">
        <ele>1801</ele>
        <time>2012-03-04T11:43:47Z</time>
      </trkpt>
      <trkpt lat="45.91921" lon="6.49903">
        <ele>1796.6</ele>
        <time>2012-03-04T11:46:48Z</time>
      </trkpt>
      <trkpt lat="45.91921" lon="6.49903">
        <ele>1796.6</ele>
        <time>2012-03-04T11:46:49Z</time>
      </trkpt>
      <trkpt lat="45.91909" lon="6.49919">
        <ele>1803.5</ele>
        <time>2012-03-04T11:47:24Z</time>
      </trkpt>
      <trkpt lat="45.91907" lon="6.49931">
        <ele>1806</ele>
        <time>2012-03-04T11:47:38Z</time>
      </trkpt>
      <trkpt lat="45.91903" lon="6.49921">
        <ele>1815.8</ele>
        <time>2012-03-04T11:48:06Z</time>
      </trkpt>
      <trkpt lat="45.91902" lon="6.4992">
        <ele>1816</ele>
        <time>2012-03-04T11:48:07Z</time>
      </trkpt>
      <trkpt lat="45.91891" lon="6.49905">
        <ele>1820.4</ele>
        <time>2012-03-04T11:48:27Z</time>
      </trkpt>
      <trkpt lat="45.91883" lon="6.49909">
        <ele>1826.4</ele>
        <time>2012-03-04T11:48:45Z</time>
      </trkpt>
      <trkpt lat="45.91877" lon="6.49918">
        <ele>1830.5</ele>
        <time>2012-03-04T11:48:55Z</time>
      </trkpt>
      <trkpt lat="45.91872" lon="6.49928">
        <ele>1834</ele>
        <time>2012-03-04T11:49:06Z</time>
      </trkpt>
      <trkpt lat="45.91867" lon="6.49938">
        <ele>1834.5</ele>
        <time>2012-03-04T11:49:17Z</time>
      </trkpt>
      <trkpt lat="45.91867" lon="6.49939">
        <ele>1834.5</ele>
        <time>2012-03-04T11:49:18Z</time>
      </trkpt>
      <trkpt lat="45.91856" lon="6.49943">
        <ele>1845.1</ele>
        <time>2012-03-04T11:50:07Z</time>
      </trkpt>
      <trkpt lat="45.9185" lon="6.49936">
        <ele>1845.5</ele>
        <time>2012-03-04T11:50:16Z</time>
      </trkpt>
      <trkpt lat="45.91842" lon="6.49941">
        <ele>1846.9</ele>
        <time>2012-03-04T11:50:33Z</time>
      </trkpt>
      <trkpt lat="45.91841" lon="6.49941">
        <ele>1847</ele>
        <time>2012-03-04T11:50:34Z</time>
      </trkpt>
      <trkpt lat="45.91833" lon="6.49961">
        <ele>1858.9</ele>
        <time>2012-03-04T11:50:56Z</time>
      </trkpt>
      <trkpt lat="45.91825" lon="6.49958">
        <ele>1853.5</ele>
        <time>2012-03-04T11:51:16Z</time>
      </trkpt>
      <trkpt lat="45.91819" lon="6.49949">
        <ele>1854.5</ele>
        <time>2012-03-04T11:51:37Z</time>
      </trkpt>
      <trkpt lat="45.91818" lon="6.49949">
        <ele>1854.9</ele>
        <time>2012-03-04T11:51:38Z</time>
      </trkpt>
      <trkpt lat="45.91806" lon="6.49942">
        <ele>1859.5</ele>
        <time>2012-03-04T11:53:13Z</time>
      </trkpt>
      <trkpt lat="45.91805" lon="6.49942">
        <ele>1859.5</ele>
        <time>2012-03-04T11:53:14Z</time>
      </trkpt>
      <trkpt lat="45.91791" lon="6.49952">
        <ele>1871.5</ele>
        <time>2012-03-04T11:53:47Z</time>
      </trkpt>
      <trkpt lat="45.91783" lon="6.49958">
        <ele>1877</ele>
        <time>2012-03-04T11:54:08Z</time>
      </trkpt>
      <trkpt lat="45.91774" lon="6.4996">
        <ele>1880.3</ele>
        <time>2012-03-04T11:54:19Z</time>
      </trkpt>
      <trkpt lat="45.91774" lon="6.49961">
        <ele>1880.5</ele>
        <time>2012-03-04T11:54:20Z</time>
      </trkpt>
      <trkpt lat="45.91758" lon="6.49967">
        <ele>1885.9</ele>
        <time>2012-03-04T11:54:41Z</time>
      </trkpt>
      <trkpt lat="45.91749" lon="6.49967">
        <ele>1887</ele>
        <time>2012-03-04T11:54:51Z</time>
      </trkpt>
      <trkpt lat="45.91741" lon="6.49967">
        <ele>1887.4</ele>
        <time>2012-03-04T11:55:01Z</time>
      </trkpt>
      <trkpt lat="45.91732" lon="6.49969">
        <ele>1889.3</ele>
        <time>2012-03-04T11:55:15Z</time>
      </trkpt>
      <trkpt lat="45.91724" lon="6.49968">
        <ele>1889.3</ele>
        <time>2012-03-04T11:55:27Z</time>
      </trkpt>
      <trkpt lat="45.91723" lon="6.49968">
        <ele>1889.4</ele>
        <time>2012-03-04T11:55:28Z</time>
      </trkpt>
      <trkpt lat="45.91709" lon="6.49975">
        <ele>1899.1</ele>
        <time>2012-03-04T11:55:56Z</time>
      </trkpt>
      <trkpt lat="45.91701" lon="6.49978">
        <ele>1905.8</ele>
        <time>2012-03-04T11:56:28Z</time>
      </trkpt>
      <trkpt lat="45.917" lon="6.49977">
        <ele>1905.5</ele>
        <time>2012-03-04T11:56:29Z</time>
      </trkpt>
      <trkpt lat="45.91684" lon="6.49971">
        <ele>1908.4</ele>
        <time>2012-03-04T11:56:54Z</time>
      </trkpt>
      <trkpt lat="45.91677" lon="6.49979">
        <ele>1917</ele>
        <time>2012-03-04T11:57:25Z</time>
      </trkpt>
      <trkpt lat="45.91668" lon="6.49977">
        <ele>1914.3</ele>
        <time>2012-03-04T11:57:38Z</time>
      </trkpt>
      <trkpt lat="45.91668" lon="6.49977">
        <ele>1914</ele>
        <time>2012-03-04T11:57:39Z</time>
      </trkpt>
      <trkpt lat="45.91657" lon="6.49985">
        <ele>1920.9</ele>
        <time>2012-03-04T11:58:15Z</time>
      </trkpt>
      <trkpt lat="45.91658" lon="6.49996">
        <ele>1927</ele>
        <time>2012-03-04T11:58:26Z</time>
      </trkpt>
      <trkpt lat="45.91649" lon="6.49996">
        <ele>1924.5</ele>
        <time>2012-03-04T11:58:45Z</time>
      </trkpt>
      <trkpt lat="45.91648" lon="6.49996">
        <ele>1924</ele>
        <time>2012-03-04T11:58:46Z</time>
      </trkpt>
      <trkpt lat="45.91636" lon="6.50005">
        <ele>1925.5</ele>
        <time>2012-03-04T11:59:10Z</time>
      </trkpt>
      <trkpt lat="45.91627" lon="6.50003">
        <ele>1926.1</ele>
        <time>2012-03-04T11:59:26Z</time>
      </trkpt>
      <trkpt lat="45.91618" lon="6.49999">
        <ele>1926.5</ele>
        <time>2012-03-04T11:59:38Z</time>
      </trkpt>
      <trkpt lat="45.9161" lon="6.49997">
        <ele>1937</ele>
        <time>2012-03-04T11:59:57Z</time>
      </trkpt>
      <trkpt lat="45.91609" lon="6.49997">
        <ele>1937.4</ele>
        <time>2012-03-04T11:59:58Z</time>
      </trkpt>
      <trkpt lat="45.91602" lon="6.50005">
        <ele>1955.1</ele>
        <time>2012-03-04T12:00:42Z</time>
      </trkpt>
      <trkpt lat="45.9161" lon="6.50009">
        <ele>1966.9</ele>
        <time>2012-03-04T12:00:49Z</time>
      </trkpt>
      <trkpt lat="45.91601" lon="6.5001">
        <ele>1957.6</ele>
        <time>2012-03-04T12:01:09Z</time>
      </trkpt>
      <trkpt lat="45.916" lon="6.5001">
        <ele>1957.5</ele>
        <time>2012-03-04T12:01:10Z</time>
      </trkpt>
      <trkpt lat="45.91596" lon="6.49994">
        <ele>1962.5</ele>
        <time>2012-03-04T12:01:32Z</time>
      </trkpt>
      <trkpt lat="45.91594" lon="6.49981">
        <ele>1964.3</ele>
        <time>2012-03-04T12:01:44Z</time>
      </trkpt>
      <trkpt lat="45.91587" lon="6.49976">
        <ele>1962.5</ele>
        <time>2012-03-04T12:01:53Z</time>
      </trkpt>
      <trkpt lat="45.91579" lon="6.49973">
        <ele>1957</ele>
        <time>2012-03-04T12:01:58Z</time>
      </trkpt>
      <trkpt lat="45.91571" lon="6.49971">
        <ele>1953.3</ele>
        <time>2012-03-04T12:02:02Z</time>
      </trkpt>
      <trkpt lat="45.91563" lon="6.49973">
        <ele>1955.9</ele>
        <time>2012-03-04T12:02:13Z</time>
      </trkpt>
      <trkpt lat="45.91562" lon="6.49973">
        <ele>1956.9</ele>
        <time>2012-03-04T12:02:14Z</time>
      </trkpt>
      <trkpt lat="45.91558" lon="6.49996">
        <ele>1971</ele>
        <time>2012-03-04T12:02:53Z</time>
      </trkpt>
      <trkpt lat="45.91555" lon="6.50008">
        <ele>1974.5</ele>
        <time>2012-03-04T12:03:06Z</time>
      </trkpt>
      <trkpt lat="45.91555" lon="6.50021">
        <ele>1975.5</ele>
        <time>2012-03-04T12:03:18Z</time>
      </trkpt>
      <trkpt lat="45.91555" lon="6.50022">
        <ele>1975.5</ele>
        <time>2012-03-04T12:03:19Z</time>
      </trkpt>
      <trkpt lat="45.91541" lon="6.50037">
        <ele>1980.5</ele>
        <time>2012-03-04T12:04:01Z</time>
      </trkpt>
      <trkpt lat="45.91533" lon="6.50043">
        <ele>1987.6</ele>
        <time>2012-03-04T12:04:20Z</time>
      </trkpt>
      <trkpt lat="45.91533" lon="6.50044">
        <ele>1988</ele>
        <time>2012-03-04T12:04:21Z</time>
      </trkpt>
      <trkpt lat="45.9152" lon="6.50056">
        <ele>1988.8</ele>
        <time>2012-03-04T12:04:56Z</time>
      </trkpt>
      <trkpt lat="45.91515" lon="6.50066">
        <ele>1989</ele>
        <time>2012-03-04T12:05:06Z</time>
      </trkpt>
      <trkpt lat="45.91513" lon="6.50078">
        <ele>1994.4</ele>
        <time>2012-03-04T12:05:16Z</time>
      </trkpt>
      <trkpt lat="45.91512" lon="6.50089">
        <ele>1998.1</ele>
        <time>2012-03-04T12:05:27Z</time>
      </trkpt>
      <trkpt lat="45.91512" lon="6.50091">
        <ele>1998.4</ele>
        <time>2012-03-04T12:05:28Z</time>
      </trkpt>
      <trkpt lat="45.91522" lon="6.50109">
        <ele>2005.4</ele>
        <time>2012-03-04T12:05:48Z</time>
      </trkpt>
      <trkpt lat="45.91528" lon="6.50118">
        <ele>2012.5</ele>
        <time>2012-03-04T12:05:59Z</time>
      </trkpt>
      <trkpt lat="45.91532" lon="6.50129">
        <ele>2021.1</ele>
        <time>2012-03-04T12:06:34Z</time>
      </trkpt>
      <trkpt lat="45.91533" lon="6.50129">
        <ele>2020.9</ele>
        <time>2012-03-04T12:06:35Z</time>
      </trkpt>
      <trkpt lat="45.91519" lon="6.50142">
        <ele>2017.9</ele>
        <time>2012-03-04T12:07:02Z</time>
      </trkpt>
      <trkpt lat="45.91511" lon="6.50146">
        <ele>2019.1</ele>
        <time>2012-03-04T12:07:19Z</time>
      </trkpt>
      <trkpt lat="45.91516" lon="6.50156">
        <ele>2035.9</ele>
        <time>2012-03-04T12:07:48Z</time>
      </trkpt>
      <trkpt lat="45.91517" lon="6.50156">
        <ele>2035</ele>
        <time>2012-03-04T12:07:49Z</time>
      </trkpt>
      <trkpt lat="45.91502" lon="6.5014">
        <ele>2019.5</ele>
        <time>2012-03-04T12:08:22Z</time>
      </trkpt>
      <trkpt lat="45.91494" lon="6.50135">
        <ele>2015.4</ele>
        <time>2012-03-04T12:08:27Z</time>
      </trkpt>
      <trkpt lat="45.91487" lon="6.50129">
        <ele>2009.4</ele>
        <time>2012-03-04T12:08:36Z</time>
      </trkpt>
      <trkpt lat="45.9148" lon="6.50121">
        <ele>2004</ele>
        <time>2012-03-04T12:08:45Z</time>
      </trkpt>
      <trkpt lat="45.91488" lon="6.50128">
        <ele>2010.1</ele>
        <time>2012-03-04T12:09:31Z</time>
      </trkpt>
      <trkpt lat="45.91488" lon="6.50128">
        <ele>2010.4</ele>
        <time>2012-03-04T12:09:32Z</time>
      </trkpt>
      <trkpt lat="45.91503" lon="6.50141">
        <ele>2029.5</ele>
        <time>2012-03-04T12:10:49Z</time>
      </trkpt>
      <trkpt lat="45.91503" lon="6.50141">
        <ele>2029.4</ele>
        <time>2012-03-04T12:10:50Z</time>
      </trkpt>
      <trkpt lat="45.9152" lon="6.50148">
        <ele>2016</ele>
        <time>2012-03-04T12:12:45Z</time>
      </trkpt>
      <trkpt lat="45.9152" lon="6.50148">
        <ele>2016</ele>
        <time>2012-03-04T12:12:46Z</time>
      </trkpt>
      <trkpt lat="45.91511" lon="6.50147">
        <ele>2031.8</ele>
        <time>2012-03-04T12:15:30Z</time>
      </trkpt>
      <trkpt lat="45.91527" lon="6.50155">
        <ele>2037.8</ele>
        <time>2012-03-04T12:16:39Z</time>
      </trkpt>
      <trkpt lat="45.91529" lon="6.50156">
        <ele>2037.6</ele>
        <time>2012-03-04T12:16:40Z</time>
      </trkpt>
      <trkpt lat="45.91512" lon="6.50152">
        <ele>2023.1</ele>
        <time>2012-03-04T12:17:16Z</time>
      </trkpt>
      <trkpt lat="45.91504" lon="6.50146">
        <ele>2013.3</ele>
        <time>2012-03-04T12:17:21Z</time>
      </trkpt>
      <trkpt lat="45.91496" lon="6.50141">
        <ele>2005.5</ele>
        <time>2012-03-04T12:17:26Z</time>
      </trkpt>
      <trkpt lat="45.91489" lon="6.50137">
        <ele>2000.5</ele>
        <time>2012-03-04T12:17:30Z</time>
      </trkpt>
      <trkpt lat="45.91483" lon="6.50133">
        <ele>1995.1</ele>
        <time>2012-03-04T12:17:34Z</time>
      </trkpt>
      <trkpt lat="45.91475" lon="6.50127">
        <ele>1989.6</ele>
        <time>2012-03-04T12:17:41Z</time>
      </trkpt>
      <trkpt lat="45.91474" lon="6.50127">
        <ele>1989.8</ele>
        <time>2012-03-04T12:17:42Z</time>
      </trkpt>
      <trkpt lat="45.9149" lon="6.50138">
        <ele>2017.9</ele>
        <time>2012-03-04T12:18:25Z</time>
      </trkpt>
      <trkpt lat="45.91498" lon="6.50142">
        <ele>2008.5</ele>
        <time>2012-03-04T12:18:41Z</time>
      </trkpt>
      <trkpt lat="45.91506" lon="6.50146">
        <ele>1996.6</ele>
        <time>2012-03-04T12:18:51Z</time>
      </trkpt>
      <trkpt lat="45.91507" lon="6.50146">
        <ele>1996.4</ele>
        <time>2012-03-04T12:18:52Z</time>
      </trkpt>
      <trkpt lat="45.91521" lon="6.50143">
        <ele>2007</ele>
        <time>2012-03-04T12:22:54Z</time>
      </trkpt>
      <trkpt lat="45.91524" lon="6.50142">
        <ele>2006.3</ele>
        <time>2012-03-04T12:22:55Z</time>
      </trkpt>
      <trkpt lat="45.91533" lon="6.50137">
        <ele>2004</ele>
        <time>2012-03-04T12:22:57Z</time>
      </trkpt>
      <trkpt lat="45.91538" lon="6.50134">
        <ele>2002.6</ele>
        <time>2012-03-04T12:22:58Z</time>
      </trkpt>
      <trkpt lat="45.91545" lon="6.50127">
        <ele>2001.5</ele>
        <time>2012-03-04T12:23:00Z</time>
      </trkpt>
      <trkpt lat="45.91548" lon="6.50116">
        <ele>2000</ele>
        <time>2012-03-04T12:23:03Z</time>
      </trkpt>
      <trkpt lat="45.91554" lon="6.50108">
        <ele>1998.1</ele>
        <time>2012-03-04T12:23:07Z</time>
      </trkpt>
      <trkpt lat="45.91562" lon="6.50109">
        <ele>1998.4</ele>
        <time>2012-03-04T12:23:11Z</time>
      </trkpt>
      <trkpt lat="45.91569" lon="6.50115">
        <ele>1998.5</ele>
        <time>2012-03-04T12:23:14Z</time>
      </trkpt>
      <trkpt lat="45.91573" lon="6.50123">
        <ele>1998.3</ele>
        <time>2012-03-04T12:23:16Z</time>
      </trkpt>
      <trkpt lat="45.9158" lon="6.50129">
        <ele>1998</ele>
        <time>2012-03-04T12:23:18Z</time>
      </trkpt>
      <trkpt lat="45.91587" lon="6.5013">
        <ele>1996.9</ele>
        <time>2012-03-04T12:23:20Z</time>
      </trkpt>
      <trkpt lat="45.91592" lon="6.50123">
        <ele>1993.3</ele>
        <time>2012-03-04T12:23:23Z</time>
      </trkpt>
      <trkpt lat="45.91596" lon="6.50117">
        <ele>1989.8</ele>
        <time>2012-03-04T12:23:25Z</time>
      </trkpt>
      <trkpt lat="45.91604" lon="6.50118">
        <ele>1987.5</ele>
        <time>2012-03-04T12:23:27Z</time>
      </trkpt>
      <trkpt lat="45.91612" lon="6.50124">
        <ele>1985.6</ele>
        <time>2012-03-04T12:23:29Z</time>
      </trkpt>
      <trkpt lat="45.9162" lon="6.50129">
        <ele>1983.3</ele>
        <time>2012-03-04T12:23:31Z</time>
      </trkpt>
      <trkpt lat="45.91625" lon="6.50132">
        <ele>1982</ele>
        <time>2012-03-04T12:23:32Z</time>
      </trkpt>
      <trkpt lat="45.9163" lon="6.50134">
        <ele>1980.9</ele>
        <time>2012-03-04T12:23:33Z</time>
      </trkpt>
      <trkpt lat="45.91635" lon="6.50137">
        <ele>1979.4</ele>
        <time>2012-03-04T12:23:34Z</time>
      </trkpt>
      <trkpt lat="45.91643" lon="6.5014">
        <ele>1976</ele>
        <time>2012-03-04T12:23:36Z</time>
      </trkpt>
      <trkpt lat="45.91651" lon="6.50143">
        <ele>1972.6</ele>
        <time>2012-03-04T12:23:38Z</time>
      </trkpt>
      <trkpt lat="45.91655" lon="6.50144">
        <ele>1970.9</ele>
        <time>2012-03-04T12:23:39Z</time>
      </trkpt>
      <trkpt lat="45.91664" lon="6.50147">
        <ele>1967.5</ele>
        <time>2012-03-04T12:23:41Z</time>
      </trkpt>
      <trkpt lat="45.9167" lon="6.50149">
        <ele>1965.1</ele>
        <time>2012-03-04T12:23:43Z</time>
      </trkpt>
      <trkpt lat="45.91679" lon="6.50149">
        <ele>1962</ele>
        <time>2012-03-04T12:23:46Z</time>
      </trkpt>
      <trkpt lat="45.91681" lon="6.50139">
        <ele>1959.1</ele>
        <time>2012-03-04T12:23:48Z</time>
      </trkpt>
      <trkpt lat="45.91686" lon="6.50134">
        <ele>1957</ele>
        <time>2012-03-04T12:23:50Z</time>
      </trkpt>
      <trkpt lat="45.91692" lon="6.50127">
        <ele>1955.3</ele>
        <time>2012-03-04T12:23:52Z</time>
      </trkpt>
      <trkpt lat="45.917" lon="6.50131">
        <ele>1953.4</ele>
        <time>2012-03-04T12:23:55Z</time>
      </trkpt>
      <trkpt lat="45.91702" lon="6.50134">
        <ele>1952.9</ele>
        <time>2012-03-04T12:23:56Z</time>
      </trkpt>
      <trkpt lat="45.91714" lon="6.50134">
        <ele>1949</ele>
        <time>2012-03-04T12:24:02Z</time>
      </trkpt>
      <trkpt lat="45.91723" lon="6.50134">
        <ele>1945.3</ele>
        <time>2012-03-04T12:24:08Z</time>
      </trkpt>
      <trkpt lat="45.9173" lon="6.50137">
        <ele>1944</ele>
        <time>2012-03-04T12:24:25Z</time>
      </trkpt>
      <trkpt lat="45.91737" lon="6.5014">
        <ele>1943.5</ele>
        <time>2012-03-04T12:24:28Z</time>
      </trkpt>
      <trkpt lat="45.91741" lon="6.50129">
        <ele>1941.6</ele>
        <time>2012-03-04T12:24:32Z</time>
      </trkpt>
      <trkpt lat="45.91749" lon="6.50129">
        <ele>1940</ele>
        <time>2012-03-04T12:24:35Z</time>
      </trkpt>
      <trkpt lat="45.91752" lon="6.50117">
        <ele>1937</ele>
        <time>2012-03-04T12:24:38Z</time>
      </trkpt>
      <trkpt lat="45.91759" lon="6.50109">
        <ele>1932.3</ele>
        <time>2012-03-04T12:24:41Z</time>
      </trkpt>
      <trkpt lat="45.91755" lon="6.50099">
        <ele>1929.8</ele>
        <time>2012-03-04T12:24:43Z</time>
      </trkpt>
      <trkpt lat="45.91752" lon="6.5009">
        <ele>1928.4</ele>
        <time>2012-03-04T12:24:45Z</time>
      </trkpt>
      <trkpt lat="45.91757" lon="6.50085">
        <ele>1926.1</ele>
        <time>2012-03-04T12:24:48Z</time>
      </trkpt>
      <trkpt lat="45.91765" lon="6.50088">
        <ele>1924.5</ele>
        <time>2012-03-04T12:24:50Z</time>
      </trkpt>
      <trkpt lat="45.9177" lon="6.5008">
        <ele>1920</ele>
        <time>2012-03-04T12:24:53Z</time>
      </trkpt>
      <trkpt lat="45.91777" lon="6.5008">
        <ele>1916.8</ele>
        <time>2012-03-04T12:24:56Z</time>
      </trkpt>
      <trkpt lat="45.9178" lon="6.5008">
        <ele>1915.9</ele>
        <time>2012-03-04T12:24:57Z</time>
      </trkpt>
      <trkpt lat="45.91791" lon="6.50068">
        <ele>1908</ele>
        <time>2012-03-04T12:25:02Z</time>
      </trkpt>
      <trkpt lat="45.91788" lon="6.50055">
        <ele>1904.8</ele>
        <time>2012-03-04T12:26:05Z</time>
      </trkpt>
      <trkpt lat="45.91787" lon="6.50054">
        <ele>1904.1</ele>
        <time>2012-03-04T12:26:06Z</time>
      </trkpt>
      <trkpt lat="45.91787" lon="6.50042">
        <ele>1899.6</ele>
        <time>2012-03-04T12:26:12Z</time>
      </trkpt>
      <trkpt lat="45.91794" lon="6.50043">
        <ele>1898.6</ele>
        <time>2012-03-04T12:26:14Z</time>
      </trkpt>
      <trkpt lat="45.91799" lon="6.50032">
        <ele>1893.9</ele>
        <time>2012-03-04T12:26:18Z</time>
      </trkpt>
      <trkpt lat="45.91806" lon="6.50031">
        <ele>1891</ele>
        <time>2012-03-04T12:26:20Z</time>
      </trkpt>
      <trkpt lat="45.9181" lon="6.50027">
        <ele>1887.6</ele>
        <time>2012-03-04T12:26:22Z</time>
      </trkpt>
      <trkpt lat="45.91817" lon="6.50022">
        <ele>1884.8</ele>
        <time>2012-03-04T12:26:24Z</time>
      </trkpt>
      <trkpt lat="45.91823" lon="6.50014">
        <ele>1880.3</ele>
        <time>2012-03-04T12:26:26Z</time>
      </trkpt>
      <trkpt lat="45.91827" lon="6.50003">
        <ele>1876.4</ele>
        <time>2012-03-04T12:26:28Z</time>
      </trkpt>
      <trkpt lat="45.91834" lon="6.49996">
        <ele>1871.6</ele>
        <time>2012-03-04T12:26:30Z</time>
      </trkpt>
      <trkpt lat="45.91834" lon="6.49984">
        <ele>1867.5</ele>
        <time>2012-03-04T12:26:32Z</time>
      </trkpt>
      <trkpt lat="45.91841" lon="6.49982">
        <ele>1864</ele>
        <time>2012-03-04T12:26:34Z</time>
      </trkpt>
      <trkpt lat="45.91844" lon="6.49971">
        <ele>1860</ele>
        <time>2012-03-04T12:26:36Z</time>
      </trkpt>
      <trkpt lat="45.9185" lon="6.49968">
        <ele>1856</ele>
        <time>2012-03-04T12:26:38Z</time>
      </trkpt>
      <trkpt lat="45.91858" lon="6.49963">
        <ele>1851</ele>
        <time>2012-03-04T12:26:40Z</time>
      </trkpt>
      <trkpt lat="45.91865" lon="6.49955">
        <ele>1846</ele>
        <time>2012-03-04T12:26:42Z</time>
      </trkpt>
      <trkpt lat="45.9187" lon="6.49955">
        <ele>1844.3</ele>
        <time>2012-03-04T12:26:43Z</time>
      </trkpt>
      <trkpt lat="45.91874" lon="6.49951">
        <ele>1842.3</ele>
        <time>2012-03-04T12:26:44Z</time>
      </trkpt>
      <trkpt lat="45.91876" lon="6.49944">
        <ele>1840.3</ele>
        <time>2012-03-04T12:26:45Z</time>
      </trkpt>
      <trkpt lat="45.91883" lon="6.4994">
        <ele>1836</ele>
        <time>2012-03-04T12:26:47Z</time>
      </trkpt>
      <trkpt lat="45.9189" lon="6.49934">
        <ele>1831.1</ele>
        <time>2012-03-04T12:26:49Z</time>
      </trkpt>
      <trkpt lat="45.9189" lon="6.49921">
        <ele>1825.9</ele>
        <time>2012-03-04T12:26:54Z</time>
      </trkpt>
      <trkpt lat="45.91898" lon="6.4992">
        <ele>1832.5</ele>
        <time>2012-03-04T12:29:03Z</time>
      </trkpt>
      <trkpt lat="45.91902" lon="6.49923">
        <ele>1831.9</ele>
        <time>2012-03-04T12:29:04Z</time>
      </trkpt>
      <trkpt lat="45.91914" lon="6.49914">
        <ele>1825.8</ele>
        <time>2012-03-04T12:29:08Z</time>
      </trkpt>
      <trkpt lat="45.91918" lon="6.49907">
        <ele>1820.8</ele>
        <time>2012-03-04T12:29:10Z</time>
      </trkpt>
      <trkpt lat="45.91917" lon="6.49895">
        <ele>1815.5</ele>
        <time>2012-03-04T12:29:12Z</time>
      </trkpt>
      <trkpt lat="45.91923" lon="6.4989">
        <ele>1811.1</ele>
        <time>2012-03-04T12:29:14Z</time>
      </trkpt>
      <trkpt lat="45.91923" lon="6.4988">
        <ele>1805.4</ele>
        <time>2012-03-04T12:29:16Z</time>
      </trkpt>
      <trkpt lat="45.91926" lon="6.49868">
        <ele>1797.8</ele>
        <time>2012-03-04T12:29:19Z</time>
      </trkpt>
      <trkpt lat="45.91932" lon="6.49861">
        <ele>1790.6</ele>
        <time>2012-03-04T12:29:22Z</time>
      </trkpt>
      <trkpt lat="45.91939" lon="6.49862">
        <ele>1785.4</ele>
        <time>2012-03-04T12:29:25Z</time>
      </trkpt>
      <trkpt lat="45.91946" lon="6.49868">
        <ele>1781.6</ele>
        <time>2012-03-04T12:29:28Z</time>
      </trkpt>
      <trkpt lat="45.91952" lon="6.49874">
        <ele>1779.5</ele>
        <time>2012-03-04T12:29:30Z</time>
      </trkpt>
      <trkpt lat="45.91959" lon="6.49868">
        <ele>1776.5</ele>
        <time>2012-03-04T12:29:32Z</time>
      </trkpt>
      <trkpt lat="45.91966" lon="6.49861">
        <ele>1773.4</ele>
        <time>2012-03-04T12:29:34Z</time>
      </trkpt>
      <trkpt lat="45.91971" lon="6.49852">
        <ele>1770.5</ele>
        <time>2012-03-04T12:29:36Z</time>
      </trkpt>
      <trkpt lat="45.91979" lon="6.49857">
        <ele>1763.5</ele>
        <time>2012-03-04T12:29:45Z</time>
      </trkpt>
      <trkpt lat="45.91985" lon="6.49867">
        <ele>1756.1</ele>
        <time>2012-03-04T12:29:50Z</time>
      </trkpt>
      <trkpt lat="45.91993" lon="6.49871">
        <ele>1761.8</ele>
        <time>2012-03-04T12:30:20Z</time>
      </trkpt>
      <trkpt lat="45.91994" lon="6.49871">
        <ele>1761</ele>
        <time>2012-03-04T12:30:21Z</time>
      </trkpt>
      <trkpt lat="45.92004" lon="6.49855">
        <ele>1751.8</ele>
        <time>2012-03-04T12:30:28Z</time>
      </trkpt>
      <trkpt lat="45.9201" lon="6.4985">
        <ele>1747.8</ele>
        <time>2012-03-04T12:30:30Z</time>
      </trkpt>
      <trkpt lat="45.92011" lon="6.49842">
        <ele>1745.1</ele>
        <time>2012-03-04T12:30:32Z</time>
      </trkpt>
      <trkpt lat="45.92018" lon="6.49838">
        <ele>1741.5</ele>
        <time>2012-03-04T12:30:35Z</time>
      </trkpt>
      <trkpt lat="45.92023" lon="6.49829">
        <ele>1738.3</ele>
        <time>2012-03-04T12:30:38Z</time>
      </trkpt>
      <trkpt lat="45.92029" lon="6.49821">
        <ele>1734.5</ele>
        <time>2012-03-04T12:30:42Z</time>
      </trkpt>
      <trkpt lat="45.92036" lon="6.49815">
        <ele>1730.3</ele>
        <time>2012-03-04T12:30:47Z</time>
      </trkpt>
      <trkpt lat="45.92041" lon="6.49814">
        <ele>1729.4</ele>
        <time>2012-03-04T12:30:48Z</time>
      </trkpt>
      <trkpt lat="45.9205" lon="6.49811">
        <ele>1727.4</ele>
        <time>2012-03-04T12:30:50Z</time>
      </trkpt>
      <trkpt lat="45.92056" lon="6.49815">
        <ele>1726.1</ele>
        <time>2012-03-04T12:30:53Z</time>
      </trkpt>
      <trkpt lat="45.92064" lon="6.49819">
        <ele>1725.4</ele>
        <time>2012-03-04T12:30:57Z</time>
      </trkpt>
      <trkpt lat="45.92072" lon="6.49818">
        <ele>1723.5</ele>
        <time>2012-03-04T12:30:59Z</time>
      </trkpt>
      <trkpt lat="45.92081" lon="6.49819">
        <ele>1721.6</ele>
        <time>2012-03-04T12:31:01Z</time>
      </trkpt>
      <trkpt lat="45.92089" lon="6.49818">
        <ele>1719.4</ele>
        <time>2012-03-04T12:31:03Z</time>
      </trkpt>
      <trkpt lat="45.92095" lon="6.49811">
        <ele>1717.9</ele>
        <time>2012-03-04T12:31:05Z</time>
      </trkpt>
      <trkpt lat="45.921" lon="6.49801">
        <ele>1714.6</ele>
        <time>2012-03-04T12:31:07Z</time>
      </trkpt>
      <trkpt lat="45.92108" lon="6.49797">
        <ele>1711.4</ele>
        <time>2012-03-04T12:31:09Z</time>
      </trkpt>
      <trkpt lat="45.92115" lon="6.49791">
        <ele>1708.3</ele>
        <time>2012-03-04T12:31:11Z</time>
      </trkpt>
      <trkpt lat="45.9212" lon="6.49783">
        <ele>1704.5</ele>
        <time>2012-03-04T12:31:13Z</time>
      </trkpt>
      <trkpt lat="45.92126" lon="6.49777">
        <ele>1700.5</ele>
        <time>2012-03-04T12:31:15Z</time>
      </trkpt>
      <trkpt lat="45.92129" lon="6.49766">
        <ele>1697</ele>
        <time>2012-03-04T12:31:17Z</time>
      </trkpt>
      <trkpt lat="45.92134" lon="6.49757">
        <ele>1693.5</ele>
        <time>2012-03-04T12:31:19Z</time>
      </trkpt>
      <trkpt lat="45.92141" lon="6.49754">
        <ele>1689.5</ele>
        <time>2012-03-04T12:31:21Z</time>
      </trkpt>
      <trkpt lat="45.92144" lon="6.49748">
        <ele>1686.8</ele>
        <time>2012-03-04T12:31:22Z</time>
      </trkpt>
      <trkpt lat="45.92152" lon="6.49744">
        <ele>1682.5</ele>
        <time>2012-03-04T12:31:24Z</time>
      </trkpt>
      <trkpt lat="45.92157" lon="6.49737">
        <ele>1678.3</ele>
        <time>2012-03-04T12:31:26Z</time>
      </trkpt>
      <trkpt lat="45.9216" lon="6.49726">
        <ele>1674</ele>
        <time>2012-03-04T12:31:28Z</time>
      </trkpt>
      <trkpt lat="45.92166" lon="6.49717">
        <ele>1669.9</ele>
        <time>2012-03-04T12:31:30Z</time>
      </trkpt>
      <trkpt lat="45.92172" lon="6.4971">
        <ele>1665.9</ele>
        <time>2012-03-04T12:31:32Z</time>
      </trkpt>
      <trkpt lat="45.92179" lon="6.49702">
        <ele>1660.6</ele>
        <time>2012-03-04T12:31:35Z</time>
      </trkpt>
      <trkpt lat="45.92188" lon="6.49703">
        <ele>1654.1</ele>
        <time>2012-03-04T12:31:56Z</time>
      </trkpt>
      <trkpt lat="45.92189" lon="6.4969">
        <ele>1649.9</ele>
        <time>2012-03-04T12:32:02Z</time>
      </trkpt>
      <trkpt lat="45.92194" lon="6.4968">
        <ele>1646.1</ele>
        <time>2012-03-04T12:32:05Z</time>
      </trkpt>
      <trkpt lat="45.92197" lon="6.49668">
        <ele>1641</ele>
        <time>2012-03-04T12:32:08Z</time>
      </trkpt>
      <trkpt lat="45.92202" lon="6.49659">
        <ele>1635.5</ele>
        <time>2012-03-04T12:32:12Z</time>
      </trkpt>
      <trkpt lat="45.9221" lon="6.49655">
        <ele>1632.5</ele>
        <time>2012-03-04T12:32:15Z</time>
      </trkpt>
      <trkpt lat="45.92212" lon="6.49645">
        <ele>1630.9</ele>
        <time>2012-03-04T12:32:17Z</time>
      </trkpt>
      <trkpt lat="45.92208" lon="6.49633">
        <ele>1629.9</ele>
        <time>2012-03-04T12:32:19Z</time>
      </trkpt>
      <trkpt lat="45.92211" lon="6.49624">
        <ele>1629</ele>
        <time>2012-03-04T12:32:22Z</time>
      </trkpt>
      <trkpt lat="45.92211" lon="6.4962">
        <ele>1628.4</ele>
        <time>2012-03-04T12:32:23Z</time>
      </trkpt>
      <trkpt lat="45.92224" lon="6.49618">
        <ele>1623.8</ele>
        <time>2012-03-04T12:32:30Z</time>
      </trkpt>
      <trkpt lat="45.92221" lon="6.49607">
        <ele>1605.5</ele>
        <time>2012-03-04T12:32:49Z</time>
      </trkpt>
      <trkpt lat="45.92221" lon="6.49596">
        <ele>1603</ele>
        <time>2012-03-04T12:32:53Z</time>
      </trkpt>
      <trkpt lat="45.92225" lon="6.49593">
        <ele>1602.4</ele>
        <time>2012-03-04T12:32:54Z</time>
      </trkpt>
      <trkpt lat="45.92229" lon="6.49592">
        <ele>1601.8</ele>
        <time>2012-03-04T12:32:55Z</time>
      </trkpt>
      <trkpt lat="45.92234" lon="6.49591">
        <ele>1601</ele>
        <time>2012-03-04T12:32:56Z</time>
      </trkpt>
      <trkpt lat="45.9224" lon="6.49591">
        <ele>1600.6</ele>
        <time>2012-03-04T12:32:57Z</time>
      </trkpt>
      <trkpt lat="45.92248" lon="6.49588">
        <ele>1599.9</ele>
        <time>2012-03-04T12:32:59Z</time>
      </trkpt>
      <trkpt lat="45.92255" lon="6.49584">
        <ele>1599</ele>
        <time>2012-03-04T12:33:01Z</time>
      </trkpt>
      <trkpt lat="45.92262" lon="6.49582">
        <ele>1599.3</ele>
        <time>2012-03-04T12:33:03Z</time>
      </trkpt>
      <trkpt lat="45.92269" lon="6.49579">
        <ele>1599.4</ele>
        <time>2012-03-04T12:33:05Z</time>
      </trkpt>
      <trkpt lat="45.92268" lon="6.49569">
        <ele>1597.8</ele>
        <time>2012-03-04T12:33:07Z</time>
      </trkpt>
      <trkpt lat="45.9226" lon="6.49563">
        <ele>1596.5</ele>
        <time>2012-03-04T12:33:09Z</time>
      </trkpt>
      <trkpt lat="45.9226" lon="6.49554">
        <ele>1594.3</ele>
        <time>2012-03-04T12:33:12Z</time>
      </trkpt>
      <trkpt lat="45.92261" lon="6.49543">
        <ele>1590.5</ele>
        <time>2012-03-04T12:33:15Z</time>
      </trkpt>
      <trkpt lat="45.92267" lon="6.49537">
        <ele>1588</ele>
        <time>2012-03-04T12:33:17Z</time>
      </trkpt>
      <trkpt lat="45.92264" lon="6.49529">
        <ele>1584.9</ele>
        <time>2012-03-04T12:33:19Z</time>
      </trkpt>
      <trkpt lat="45.92261" lon="6.49521">
        <ele>1580.8</ele>
        <time>2012-03-04T12:33:21Z</time>
      </trkpt>
      <trkpt lat="45.92255" lon="6.49514">
        <ele>1575.8</ele>
        <time>2012-03-04T12:33:23Z</time>
      </trkpt>
      <trkpt lat="45.92253" lon="6.49508">
        <ele>1572.9</ele>
        <time>2012-03-04T12:33:24Z</time>
      </trkpt>
      <trkpt lat="45.92249" lon="6.49493">
        <ele>1564.8</ele>
        <time>2012-03-04T12:33:27Z</time>
      </trkpt>
      <trkpt lat="45.92245" lon="6.49487">
        <ele>1562.5</ele>
        <time>2012-03-04T12:33:28Z</time>
      </trkpt>
      <trkpt lat="45.92245" lon="6.49479">
        <ele>1559.5</ele>
        <time>2012-03-04T12:33:29Z</time>
      </trkpt>
      <trkpt lat="45.92246" lon="6.4947">
        <ele>1556.5</ele>
        <time>2012-03-04T12:33:30Z</time>
      </trkpt>
      <trkpt lat="45.92244" lon="6.49463">
        <ele>1554.4</ele>
        <time>2012-03-04T12:33:31Z</time>
      </trkpt>
      <trkpt lat="45.92242" lon="6.49457">
        <ele>1552</ele>
        <time>2012-03-04T12:33:32Z</time>
      </trkpt>
      <trkpt lat="45.92242" lon="6.49449">
        <ele>1549.5</ele>
        <time>2012-03-04T12:33:33Z</time>
      </trkpt>
      <trkpt lat="45.92237" lon="6.49438">
        <ele>1545</ele>
        <time>2012-03-04T12:33:35Z</time>
      </trkpt>
      <trkpt lat="45.92234" lon="6.49428">
        <ele>1541.1</ele>
        <time>2012-03-04T12:33:37Z</time>
      </trkpt>
      <trkpt lat="45.92233" lon="6.49417">
        <ele>1538.6</ele>
        <time>2012-03-04T12:33:39Z</time>
      </trkpt>
      <trkpt lat="45.9223" lon="6.49413">
        <ele>1537.5</ele>
        <time>2012-03-04T12:33:40Z</time>
      </trkpt>
      <trkpt lat="45.92227" lon="6.49408">
        <ele>1536.4</ele>
        <time>2012-03-04T12:33:41Z</time>
      </trkpt>
      <trkpt lat="45.92228" lon="6.49397">
        <ele>1533</ele>
        <time>2012-03-04T12:33:43Z</time>
      </trkpt>
      <trkpt lat="45.9223" lon="6.4939">
        <ele>1531.3</ele>
        <time>2012-03-04T12:33:44Z</time>
      </trkpt>
      <trkpt lat="45.92229" lon="6.49383">
        <ele>1529.5</ele>
        <time>2012-03-04T12:33:45Z</time>
      </trkpt>
      <trkpt lat="45.92226" lon="6.49378">
        <ele>1528.5</ele>
        <time>2012-03-04T12:33:46Z</time>
      </trkpt>
      <trkpt lat="45.92224" lon="6.49366">
        <ele>1527</ele>
        <time>2012-03-04T12:33:48Z</time>
      </trkpt>
      <trkpt lat="45.92226" lon="6.49359">
        <ele>1525.8</ele>
        <time>2012-03-04T12:33:49Z</time>
      </trkpt>
      <trkpt lat="45.92225" lon="6.49352">
        <ele>1524.9</ele>
        <time>2012-03-04T12:33:50Z</time>
      </trkpt>
      <trkpt lat="45.92222" lon="6.49346">
        <ele>1524</ele>
        <time>2012-03-04T12:33:51Z</time>
      </trkpt>
      <trkpt lat="45.92221" lon="6.49339">
        <ele>1523.1</ele>
        <time>2012-03-04T12:33:52Z</time>
      </trkpt>
      <trkpt lat="45.92221" lon="6.49327">
        <ele>1522.1</ele>
        <time>2012-03-04T12:33:54Z</time>
      </trkpt>
      <trkpt lat="45.92215" lon="6.49319">
        <ele>1535</ele>
        <time>2012-03-04T12:34:10Z</time>
      </trkpt>
      <trkpt lat="45.92212" lon="6.4931">
        <ele>1534.6</ele>
        <time>2012-03-04T12:34:12Z</time>
      </trkpt>
      <trkpt lat="45.92204" lon="6.49303">
        <ele>1534</ele>
        <time>2012-03-04T12:34:14Z</time>
      </trkpt>
      <trkpt lat="45.922" lon="6.49297">
        <ele>1533.8</ele>
        <time>2012-03-04T12:34:15Z</time>
      </trkpt>
      <trkpt lat="45.92195" lon="6.49293">
        <ele>1533.3</ele>
        <time>2012-03-04T12:34:16Z</time>
      </trkpt>
      <trkpt lat="45.92191" lon="6.49288">
        <ele>1532.6</ele>
        <time>2012-03-04T12:34:17Z</time>
      </trkpt>
      <trkpt lat="45.92187" lon="6.49277">
        <ele>1530.9</ele>
        <time>2012-03-04T12:34:19Z</time>
      </trkpt>
      <trkpt lat="45.92193" lon="6.49269">
        <ele>1528.5</ele>
        <time>2012-03-04T12:34:21Z</time>
      </trkpt>
      <trkpt lat="45.9219" lon="6.49259">
        <ele>1526.6</ele>
        <time>2012-03-04T12:34:23Z</time>
      </trkpt>
      <trkpt lat="45.92187" lon="6.49255">
        <ele>1525.6</ele>
        <time>2012-03-04T12:34:24Z</time>
      </trkpt>
      <trkpt lat="45.92183" lon="6.4925">
        <ele>1524.4</ele>
        <time>2012-03-04T12:34:25Z</time>
      </trkpt>
      <trkpt lat="45.92184" lon="6.49239">
        <ele>1520.5</ele>
        <time>2012-03-04T12:34:27Z</time>
      </trkpt>
      <trkpt lat="45.92188" lon="6.49236">
        <ele>1518.9</ele>
        <time>2012-03-04T12:34:28Z</time>
      </trkpt>
      <trkpt lat="45.92192" lon="6.49233">
        <ele>1517.5</ele>
        <time>2012-03-04T12:34:29Z</time>
      </trkpt>
      <trkpt lat="45.92197" lon="6.49223">
        <ele>1514.6</ele>
        <time>2012-03-04T12:34:31Z</time>
      </trkpt>
      <trkpt lat="45.92194" lon="6.49216">
        <ele>1513.5</ele>
        <time>2012-03-04T12:34:32Z</time>
      </trkpt>
      <trkpt lat="45.92191" lon="6.49211">
        <ele>1512.5</ele>
        <time>2012-03-04T12:34:33Z</time>
      </trkpt>
      <trkpt lat="45.92189" lon="6.49205">
        <ele>1511</ele>
        <time>2012-03-04T12:34:34Z</time>
      </trkpt>
      <trkpt lat="45.9219" lon="6.49198">
        <ele>1509</ele>
        <time>2012-03-04T12:34:35Z</time>
      </trkpt>
      <trkpt lat="45.92189" lon="6.49191">
        <ele>1507</ele>
        <time>2012-03-04T12:34:36Z</time>
      </trkpt>
      <trkpt lat="45.92187" lon="6.49184">
        <ele>1504.6</ele>
        <time>2012-03-04T12:34:37Z</time>
      </trkpt>
      <trkpt lat="45.92186" lon="6.49176">
        <ele>1502.5</ele>
        <time>2012-03-04T12:34:38Z</time>
      </trkpt>
      <trkpt lat="45.92185" lon="6.49168">
        <ele>1500.5</ele>
        <time>2012-03-04T12:34:39Z</time>
      </trkpt>
      <trkpt lat="45.92183" lon="6.49161">
        <ele>1498.5</ele>
        <time>2012-03-04T12:34:40Z</time>
      </trkpt>
      <trkpt lat="45.92182" lon="6.49153">
        <ele>1496.6</ele>
        <time>2012-03-04T12:34:41Z</time>
      </trkpt>
      <trkpt lat="45.9218" lon="6.49145">
        <ele>1494.5</ele>
        <time>2012-03-04T12:34:42Z</time>
      </trkpt>
      <trkpt lat="45.92181" lon="6.49139">
        <ele>1492.4</ele>
        <time>2012-03-04T12:34:43Z</time>
      </trkpt>
      <trkpt lat="45.92183" lon="6.49132">
        <ele>1490.6</ele>
        <time>2012-03-04T12:34:44Z</time>
      </trkpt>
      <trkpt lat="45.92182" lon="6.49124">
        <ele>1489.4</ele>
        <time>2012-03-04T12:34:45Z</time>
      </trkpt>
      <trkpt lat="45.92181" lon="6.49116">
        <ele>1488</ele>
        <time>2012-03-04T12:34:46Z</time>
      </trkpt>
      <trkpt lat="45.92179" lon="6.49108">
        <ele>1486.5</ele>
        <time>2012-03-04T12:34:47Z</time>
      </trkpt>
      <trkpt lat="45.92176" lon="6.49102">
        <ele>1485.1</ele>
        <time>2012-03-04T12:34:48Z</time>
      </trkpt>
      <trkpt lat="45.92173" lon="6.49095">
        <ele>1483.9</ele>
        <time>2012-03-04T12:34:49Z</time>
      </trkpt>
      <trkpt lat="45.92172" lon="6.49086">
        <ele>1482.5</ele>
        <time>2012-03-04T12:34:50Z</time>
      </trkpt>
      <trkpt lat="45.92169" lon="6.49076">
        <ele>1481.3</ele>
        <time>2012-03-04T12:34:51Z</time>
      </trkpt>
      <trkpt lat="45.92167" lon="6.49066">
        <ele>1480</ele>
        <time>2012-03-04T12:34:52Z</time>
      </trkpt>
      <trkpt lat="45.92167" lon="6.49057">
        <ele>1479.3</ele>
        <time>2012-03-04T12:34:53Z</time>
      </trkpt>
      <trkpt lat="45.92165" lon="6.49048">
        <ele>1478.5</ele>
        <time>2012-03-04T12:34:54Z</time>
      </trkpt>
      <trkpt lat="45.92165" lon="6.49038">
        <ele>1477.8</ele>
        <time>2012-03-04T12:34:55Z</time>
      </trkpt>
      <trkpt lat="45.92164" lon="6.49028">
        <ele>1476.6</ele>
        <time>2012-03-04T12:34:56Z</time>
      </trkpt>
      <trkpt lat="45.92163" lon="6.49016">
        <ele>1475.3</ele>
        <time>2012-03-04T12:34:57Z</time>
      </trkpt>
      <trkpt lat="45.92162" lon="6.49003">
        <ele>1474</ele>
        <time>2012-03-04T12:34:58Z</time>
      </trkpt>
      <trkpt lat="45.92161" lon="6.48988">
        <ele>1472.5</ele>
        <time>2012-03-04T12:34:59Z</time>
      </trkpt>
      <trkpt lat="45.9216" lon="6.48973">
        <ele>1470.9</ele>
        <time>2012-03-04T12:35:00Z</time>
      </trkpt>
      <trkpt lat="45.92159" lon="6.48958">
        <ele>1469.4</ele>
        <time>2012-03-04T12:35:01Z</time>
      </trkpt>
      <trkpt lat="45.92159" lon="6.48943">
        <ele>1467.8</ele>
        <time>2012-03-04T12:35:02Z</time>
      </trkpt>
      <trkpt lat="45.92159" lon="6.48929">
        <ele>1466.1</ele>
        <time>2012-03-04T12:35:03Z</time>
      </trkpt>
      <trkpt lat="45.92158" lon="6.48914">
        <ele>1464.6</ele>
        <time>2012-03-04T12:35:04Z</time>
      </trkpt>
      <trkpt lat="45.92157" lon="6.489">
        <ele>1463.4</ele>
        <time>2012-03-04T12:35:05Z</time>
      </trkpt>
      <trkpt lat="45.92156" lon="6.48886">
        <ele>1462</ele>
        <time>2012-03-04T12:35:06Z</time>
      </trkpt>
      <trkpt lat="45.92156" lon="6.48874">
        <ele>1461</ele>
        <time>2012-03-04T12:35:07Z</time>
      </trkpt>
      <trkpt lat="45.92156" lon="6.48862">
        <ele>1460.3</ele>
        <time>2012-03-04T12:35:08Z</time>
      </trkpt>
      <trkpt lat="45.92159" lon="6.48853">
        <ele>1460</ele>
        <time>2012-03-04T12:35:09Z</time>
      </trkpt>
      <trkpt lat="45.92161" lon="6.48845">
        <ele>1459.5</ele>
        <time>2012-03-04T12:35:10Z</time>
      </trkpt>
      <trkpt lat="45.92165" lon="6.48834">
        <ele>1459.3</ele>
        <time>2012-03-04T12:35:12Z</time>
      </trkpt>
      <trkpt lat="45.92167" lon="6.48824">
        <ele>1458.5</ele>
        <time>2012-03-04T12:35:17Z</time>
      </trkpt>
      <trkpt lat="45.92171" lon="6.48812">
        <ele>1460.8</ele>
        <time>2012-03-04T12:35:28Z</time>
      </trkpt>
      <trkpt lat="45.92171" lon="6.48812">
        <ele>1461</ele>
        <time>2012-03-04T12:35:29Z</time>
      </trkpt>
      <trkpt lat="45.92174" lon="6.48789">
        <ele>1471.9</ele>
        <time>2012-03-04T12:36:07Z</time>
      </trkpt>
      <trkpt lat="45.92172" lon="6.48777">
        <ele>1470.6</ele>
        <time>2012-03-04T12:36:18Z</time>
      </trkpt>
      <trkpt lat="45.92169" lon="6.48766">
        <ele>1470.3</ele>
        <time>2012-03-04T12:36:30Z</time>
      </trkpt>
      <trkpt lat="45.92169" lon="6.48765">
        <ele>1470.5</ele>
        <time>2012-03-04T12:36:31Z</time>
      </trkpt>
      <trkpt lat="45.92163" lon="6.48742">
        <ele>1471.1</ele>
        <time>2012-03-04T12:36:50Z</time>
      </trkpt>
      <trkpt lat="45.92159" lon="6.48732">
        <ele>1470.6</ele>
        <time>2012-03-04T12:36:59Z</time>
      </trkpt>
      <trkpt lat="45.92154" lon="6.48721">
        <ele>1469.9</ele>
        <time>2012-03-04T12:37:09Z</time>
      </trkpt>
      <trkpt lat="45.9215" lon="6.48711">
        <ele>1468.4</ele>
        <time>2012-03-04T12:37:19Z</time>
      </trkpt>
      <trkpt lat="45.92146" lon="6.487">
        <ele>1467.6</ele>
        <time>2012-03-04T12:37:28Z</time>
      </trkpt>
      <trkpt lat="45.92142" lon="6.48689">
        <ele>1466.5</ele>
        <time>2012-03-04T12:37:33Z</time>
      </trkpt>
      <trkpt lat="45.92139" lon="6.48685">
        <ele>1466</ele>
        <time>2012-03-04T12:37:34Z</time>
      </trkpt>
      <trkpt lat="45.92136" lon="6.48679">
        <ele>1465.1</ele>
        <time>2012-03-04T12:37:35Z</time>
      </trkpt>
      <trkpt lat="45.92133" lon="6.48674">
        <ele>1464.4</ele>
        <time>2012-03-04T12:37:36Z</time>
      </trkpt>
      <trkpt lat="45.9213" lon="6.48668">
        <ele>1463.8</ele>
        <time>2012-03-04T12:37:37Z</time>
      </trkpt>
      <trkpt lat="45.92127" lon="6.48662">
        <ele>1463.3</ele>
        <time>2012-03-04T12:37:38Z</time>
      </trkpt>
      <trkpt lat="45.92125" lon="6.48649">
        <ele>1462.5</ele>
        <time>2012-03-04T12:37:40Z</time>
      </trkpt>
      <trkpt lat="45.92127" lon="6.48638">
        <ele>1461.5</ele>
        <time>2012-03-04T12:37:42Z</time>
      </trkpt>
      <trkpt lat="45.92129" lon="6.48632">
        <ele>1461</ele>
        <time>2012-03-04T12:37:43Z</time>
      </trkpt>
      <trkpt lat="45.92132" lon="6.48626">
        <ele>1460.6</ele>
        <time>2012-03-04T12:37:44Z</time>
      </trkpt>
      <trkpt lat="45.92134" lon="6.4862">
        <ele>1460.4</ele>
        <time>2012-03-04T12:37:45Z</time>
      </trkpt>
      <trkpt lat="45.92137" lon="6.48613">
        <ele>1459.9</ele>
        <time>2012-03-04T12:37:46Z</time>
      </trkpt>
      <trkpt lat="45.9214" lon="6.48607">
        <ele>1459.5</ele>
        <time>2012-03-04T12:37:47Z</time>
      </trkpt>
      <trkpt lat="45.92143" lon="6.486">
        <ele>1459.1</ele>
        <time>2012-03-04T12:37:48Z</time>
      </trkpt>
      <trkpt lat="45.92145" lon="6.48594">
        <ele>1458.8</ele>
        <time>2012-03-04T12:37:49Z</time>
      </trkpt>
      <trkpt lat="45.92148" lon="6.48586">
        <ele>1458.5</ele>
        <time>2012-03-04T12:37:50Z</time>
      </trkpt>
      <trkpt lat="45.92151" lon="6.48579">
        <ele>1458.1</ele>
        <time>2012-03-04T12:37:51Z</time>
      </trkpt>
      <trkpt lat="45.92154" lon="6.48572">
        <ele>1457.8</ele>
        <time>2012-03-04T12:37:52Z</time>
      </trkpt>
      <trkpt lat="45.92157" lon="6.48565">
        <ele>1457.5</ele>
        <time>2012-03-04T12:37:53Z</time>
      </trkpt>
      <trkpt lat="45.9216" lon="6.48557">
        <ele>1457</ele>
        <time>2012-03-04T12:37:54Z</time>
      </trkpt>
      <trkpt lat="45.92162" lon="6.48549">
        <ele>1456.5</ele>
        <time>2012-03-04T12:37:55Z</time>
      </trkpt>
      <trkpt lat="45.92165" lon="6.48541">
        <ele>1456</ele>
        <time>2012-03-04T12:37:56Z</time>
      </trkpt>
      <trkpt lat="45.92168" lon="6.48533">
        <ele>1455.5</ele>
        <time>2012-03-04T12:37:57Z</time>
      </trkpt>
      <trkpt lat="45.92171" lon="6.48525">
        <ele>1455</ele>
        <time>2012-03-04T12:37:58Z</time>
      </trkpt>
      <trkpt lat="45.92175" lon="6.48517">
        <ele>1454.4</ele>
        <time>2012-03-04T12:37:59Z</time>
      </trkpt>
      <trkpt lat="45.92178" lon="6.48508">
        <ele>1453.8</ele>
        <time>2012-03-04T12:38:00Z</time>
      </trkpt>
      <trkpt lat="45.92182" lon="6.48499">
        <ele>1453.1</ele>
        <time>2012-03-04T12:38:01Z</time>
      </trkpt>
      <trkpt lat="45.92186" lon="6.4849">
        <ele>1452.8</ele>
        <time>2012-03-04T12:38:02Z</time>
      </trkpt>
      <trkpt lat="45.9219" lon="6.48482">
        <ele>1452.4</ele>
        <time>2012-03-04T12:38:03Z</time>
      </trkpt>
      <trkpt lat="45.92194" lon="6.48474">
        <ele>1451.9</ele>
        <time>2012-03-04T12:38:04Z</time>
      </trkpt>
      <trkpt lat="45.92198" lon="6.48466">
        <ele>1451.5</ele>
        <time>2012-03-04T12:38:05Z</time>
      </trkpt>
      <trkpt lat="45.92203" lon="6.48459">
        <ele>1451</ele>
        <time>2012-03-04T12:38:06Z</time>
      </trkpt>
      <trkpt lat="45.92208" lon="6.48452">
        <ele>1450.4</ele>
        <time>2012-03-04T12:38:07Z</time>
      </trkpt>
      <trkpt lat="45.92213" lon="6.48445">
        <ele>1450</ele>
        <time>2012-03-04T12:38:08Z</time>
      </trkpt>
      <trkpt lat="45.92218" lon="6.48439">
        <ele>1449.6</ele>
        <time>2012-03-04T12:38:09Z</time>
      </trkpt>
      <trkpt lat="45.92222" lon="6.48433">
        <ele>1449.5</ele>
        <time>2012-03-04T12:38:10Z</time>
      </trkpt>
      <trkpt lat="45.92226" lon="6.48427">
        <ele>1449.5</ele>
        <time>2012-03-04T12:38:11Z</time>
      </trkpt>
      <trkpt lat="45.92231" lon="6.48416">
        <ele>1450</ele>
        <time>2012-03-04T12:38:13Z</time>
      </trkpt>
      <trkpt lat="45.92227" lon="6.48405">
        <ele>1453.5</ele>
        <time>2012-03-04T12:38:38Z</time>
      </trkpt>
      <trkpt lat="45.92227" lon="6.48404">
        <ele>1453.6</ele>
        <time>2012-03-04T12:38:39Z</time>
      </trkpt>
      <trkpt lat="45.92217" lon="6.48389">
        <ele>1453</ele>
        <time>2012-03-04T12:38:47Z</time>
      </trkpt>
      <trkpt lat="45.92213" lon="6.48384">
        <ele>1451.6</ele>
        <time>2012-03-04T12:38:48Z</time>
      </trkpt>
      <trkpt lat="45.9221" lon="6.48375">
        <ele>1450.5</ele>
        <time>2012-03-04T12:38:49Z</time>
      </trkpt>
      <trkpt lat="45.92208" lon="6.48366">
        <ele>1449.6</ele>
        <time>2012-03-04T12:38:50Z</time>
      </trkpt>
      <trkpt lat="45.92206" lon="6.48357">
        <ele>1448.9</ele>
        <time>2012-03-04T12:38:51Z</time>
      </trkpt>
      <trkpt lat="45.92205" lon="6.48347">
        <ele>1447.8</ele>
        <time>2012-03-04T12:38:52Z</time>
      </trkpt>
      <trkpt lat="45.92203" lon="6.48336">
        <ele>1447</ele>
        <time>2012-03-04T12:38:53Z</time>
      </trkpt>
      <trkpt lat="45.92202" lon="6.48326">
        <ele>1446.1</ele>
        <time>2012-03-04T12:38:54Z</time>
      </trkpt>
      <trkpt lat="45.92201" lon="6.48317">
        <ele>1445.5</ele>
        <time>2012-03-04T12:38:55Z</time>
      </trkpt>
      <trkpt lat="45.922" lon="6.48309">
        <ele>1445.3</ele>
        <time>2012-03-04T12:38:56Z</time>
      </trkpt>
      <trkpt lat="45.92199" lon="6.48302">
        <ele>1445</ele>
        <time>2012-03-04T12:38:57Z</time>
      </trkpt>
      <trkpt lat="45.92197" lon="6.48295">
        <ele>1444.9</ele>
        <time>2012-03-04T12:38:58Z</time>
      </trkpt>
      <trkpt lat="45.92195" lon="6.4829">
        <ele>1444.5</ele>
        <time>2012-03-04T12:38:59Z</time>
      </trkpt>
      <trkpt lat="45.92193" lon="6.48283">
        <ele>1444</ele>
        <time>2012-03-04T12:39:00Z</time>
      </trkpt>
      <trkpt lat="45.9219" lon="6.48276">
        <ele>1443.5</ele>
        <time>2012-03-04T12:39:01Z</time>
      </trkpt>
      <trkpt lat="45.92188" lon="6.4827">
        <ele>1442.9</ele>
        <time>2012-03-04T12:39:02Z</time>
      </trkpt>
      <trkpt lat="45.92186" lon="6.48264">
        <ele>1442.5</ele>
        <time>2012-03-04T12:39:03Z</time>
      </trkpt>
      <trkpt lat="45.92184" lon="6.48258">
        <ele>1442.1</ele>
        <time>2012-03-04T12:39:04Z</time>
      </trkpt>
      <trkpt lat="45.9218" lon="6.48247">
        <ele>1441.6</ele>
        <time>2012-03-04T12:39:06Z</time>
      </trkpt>
      <trkpt lat="45.92177" lon="6.48241">
        <ele>1441.5</ele>
        <time>2012-03-04T12:39:07Z</time>
      </trkpt>
      <trkpt lat="45.92175" lon="6.48236">
        <ele>1441.4</ele>
        <time>2012-03-04T12:39:08Z</time>
      </trkpt>
      <trkpt lat="45.92172" lon="6.4823">
        <ele>1441</ele>
        <time>2012-03-04T12:39:09Z</time>
      </trkpt>
      <trkpt lat="45.92169" lon="6.48225">
        <ele>1440.8</ele>
        <time>2012-03-04T12:39:10Z</time>
      </trkpt>
      <trkpt lat="45.92166" lon="6.4822">
        <ele>1440.5</ele>
        <time>2012-03-04T12:39:11Z</time>
      </trkpt>
      <trkpt lat="45.92163" lon="6.48215">
        <ele>1440.1</ele>
        <time>2012-03-04T12:39:12Z</time>
      </trkpt>
      <trkpt lat="45.92159" lon="6.48209">
        <ele>1439.5</ele>
        <time>2012-03-04T12:39:13Z</time>
      </trkpt>
      <trkpt lat="45.92156" lon="6.48203">
        <ele>1438.8</ele>
        <time>2012-03-04T12:39:14Z</time>
      </trkpt>
      <trkpt lat="45.92151" lon="6.48196">
        <ele>1438.1</ele>
        <time>2012-03-04T12:39:15Z</time>
      </trkpt>
      <trkpt lat="45.92147" lon="6.48189">
        <ele>1437.9</ele>
        <time>2012-03-04T12:39:16Z</time>
      </trkpt>
      <trkpt lat="45.92142" lon="6.48183">
        <ele>1437.8</ele>
        <time>2012-03-04T12:39:17Z</time>
      </trkpt>
      <trkpt lat="45.92138" lon="6.48176">
        <ele>1437.8</ele>
        <time>2012-03-04T12:39:18Z</time>
      </trkpt>
      <trkpt lat="45.92134" lon="6.4817">
        <ele>1437.8</ele>
        <time>2012-03-04T12:39:19Z</time>
      </trkpt>
      <trkpt lat="45.9213" lon="6.48164">
        <ele>1437.8</ele>
        <time>2012-03-04T12:39:20Z</time>
      </trkpt>
      <trkpt lat="45.92127" lon="6.48159">
        <ele>1437.9</ele>
        <time>2012-03-04T12:39:21Z</time>
      </trkpt>
      <trkpt lat="45.92123" lon="6.48155">
        <ele>1437.9</ele>
        <time>2012-03-04T12:39:22Z</time>
      </trkpt>
      <trkpt lat="45.9212" lon="6.4815">
        <ele>1438</ele>
        <time>2012-03-04T12:39:23Z</time>
      </trkpt>
      <trkpt lat="45.92114" lon="6.48141">
        <ele>1438.1</ele>
        <time>2012-03-04T12:39:25Z</time>
      </trkpt>
      <trkpt lat="45.92109" lon="6.48135">
        <ele>1438.3</ele>
        <time>2012-03-04T12:39:27Z</time>
      </trkpt>
      <trkpt lat="45.92103" lon="6.48128">
        <ele>1437.9</ele>
        <time>2012-03-04T12:39:29Z</time>
      </trkpt>
      <trkpt lat="45.92096" lon="6.48122">
        <ele>1437.5</ele>
        <time>2012-03-04T12:39:31Z</time>
      </trkpt>
      <trkpt lat="45.92088" lon="6.48116">
        <ele>1436.3</ele>
        <time>2012-03-04T12:39:33Z</time>
      </trkpt>
      <trkpt lat="45.92084" lon="6.48114">
        <ele>1435.6</ele>
        <time>2012-03-04T12:39:34Z</time>
      </trkpt>
      <trkpt lat="45.92075" lon="6.48111">
        <ele>1435</ele>
        <time>2012-03-04T12:39:36Z</time>
      </trkpt>
      <trkpt lat="45.92068" lon="6.48109">
        <ele>1434.9</ele>
        <time>2012-03-04T12:39:38Z</time>
      </trkpt>
      <trkpt lat="45.92062" lon="6.48107">
        <ele>1434.1</ele>
        <time>2012-03-04T12:39:40Z</time>
      </trkpt>
      <trkpt lat="45.92058" lon="6.48105">
        <ele>1433.4</ele>
        <time>2012-03-04T12:39:41Z</time>
      </trkpt>
      <trkpt lat="45.9205" lon="6.48099">
        <ele>1431.4</ele>
        <time>2012-03-04T12:39:43Z</time>
      </trkpt>
      <trkpt lat="45.92046" lon="6.48094">
        <ele>1430.6</ele>
        <time>2012-03-04T12:39:44Z</time>
      </trkpt>
      <trkpt lat="45.92043" lon="6.48088">
        <ele>1430.1</ele>
        <time>2012-03-04T12:39:45Z</time>
      </trkpt>
      <trkpt lat="45.92039" lon="6.48082">
        <ele>1429.8</ele>
        <time>2012-03-04T12:39:46Z</time>
      </trkpt>
      <trkpt lat="45.92036" lon="6.48075">
        <ele>1429.5</ele>
        <time>2012-03-04T12:39:47Z</time>
      </trkpt>
      <trkpt lat="45.92033" lon="6.48069">
        <ele>1429.5</ele>
        <time>2012-03-04T12:39:48Z</time>
      </trkpt>
      <trkpt lat="45.9203" lon="6.48062">
        <ele>1429.4</ele>
        <time>2012-03-04T12:39:49Z</time>
      </trkpt>
      <trkpt lat="45.92028" lon="6.48056">
        <ele>1429.4</ele>
        <time>2012-03-04T12:39:50Z</time>
      </trkpt>
      <trkpt lat="45.92026" lon="6.4805">
        <ele>1429.3</ele>
        <time>2012-03-04T12:39:51Z</time>
      </trkpt>
      <trkpt lat="45.92024" lon="6.48044">
        <ele>1429</ele>
        <time>2012-03-04T12:39:52Z</time>
      </trkpt>
      <trkpt lat="45.9202" lon="6.48032">
        <ele>1429</ele>
        <time>2012-03-04T12:39:54Z</time>
      </trkpt>
      <trkpt lat="45.92015" lon="6.48022">
        <ele>1428.8</ele>
        <time>2012-03-04T12:39:56Z</time>
      </trkpt>
      <trkpt lat="45.92011" lon="6.48011">
        <ele>1428.1</ele>
        <time>2012-03-04T12:39:58Z</time>
      </trkpt>
      <trkpt lat="45.92009" lon="6.48005">
        <ele>1427.9</ele>
        <time>2012-03-04T12:39:59Z</time>
      </trkpt>
      <trkpt lat="45.92008" lon="6.47998">
        <ele>1427.5</ele>
        <time>2012-03-04T12:40:00Z</time>
      </trkpt>
      <trkpt lat="45.92007" lon="6.47991">
        <ele>1427.1</ele>
        <time>2012-03-04T12:40:01Z</time>
      </trkpt>
      <trkpt lat="45.92005" lon="6.47984">
        <ele>1426.6</ele>
        <time>2012-03-04T12:40:02Z</time>
      </trkpt>
      <trkpt lat="45.92004" lon="6.47978">
        <ele>1426.4</ele>
        <time>2012-03-04T12:40:03Z</time>
      </trkpt>
      <trkpt lat="45.92002" lon="6.47971">
        <ele>1426.3</ele>
        <time>2012-03-04T12:40:04Z</time>
      </trkpt>
      <trkpt lat="45.92001" lon="6.47965">
        <ele>1426.1</ele>
        <time>2012-03-04T12:40:05Z</time>
      </trkpt>
      <trkpt lat="45.92" lon="6.47958">
        <ele>1426.1</ele>
        <time>2012-03-04T12:40:06Z</time>
      </trkpt>
      <trkpt lat="45.91997" lon="6.47946">
        <ele>1426</ele>
        <time>2012-03-04T12:40:08Z</time>
      </trkpt>
      <trkpt lat="45.91994" lon="6.47935">
        <ele>1426.4</ele>
        <time>2012-03-04T12:40:10Z</time>
      </trkpt>
      <trkpt lat="45.91992" lon="6.47925">
        <ele>1426.8</ele>
        <time>2012-03-04T12:40:12Z</time>
      </trkpt>
      <trkpt lat="45.91989" lon="6.47915">
        <ele>1427.1</ele>
        <time>2012-03-04T12:40:14Z</time>
      </trkpt>
      <trkpt lat="45.91985" lon="6.47905">
        <ele>1427.3</ele>
        <time>2012-03-04T12:40:16Z</time>
      </trkpt>
      <trkpt lat="45.91982" lon="6.47896">
        <ele>1427.4</ele>
        <time>2012-03-04T12:40:18Z</time>
      </trkpt>
      <trkpt lat="45.91976" lon="6.47886">
        <ele>1427.3</ele>
        <time>2012-03-04T12:40:21Z</time>
      </trkpt>
      <trkpt lat="45.91976" lon="6.47873">
        <ele>1424.6</ele>
        <time>2012-03-04T12:41:07Z</time>
      </trkpt>
      <trkpt lat="45.91976" lon="6.47873">
        <ele>1424.5</ele>
        <time>2012-03-04T12:41:08Z</time>
      </trkpt>
      <trkpt lat="45.91977" lon="6.47872">
        <ele>1422.6</ele>
        <time>2012-03-04T12:41:31Z</time>
      </trkpt>
    </trkseg>
  </trk>
</gpx>